[[{"header":{"parameterUnit":"m.s-1","parameterCategory":1,"la1":30.6,"la2":29.2853,"lo1":-89.7004,"lo2":-87.6739,"dy":0.0162,"dx":0.0183,"nx":112,"ny":82,"refTime":"2026-04-04T00:00:00:Z","depth":0,"parameterNumber":2,"parameterNumberName":"U-component_of_WINDS"},"data":[0.0,0.0,0.0,0.0,0.0,0.0,0.0,0.0,0.0,0.0,0.0,0.0,0.0,0.0,0.0,0.0,0.0,0.0,0.0,0.0,0.0,0.0,0.0,0.0,0.0,0.0,0.0,0.0,0.0,0.0,0.0,0.0,0.0,0.0,0.0,0.0,0.0,0.0,0.0,0.0,0.0,0.0,0.0,0.0,0.0,0.0,0.0,0.0,0.0,0.0,0.0,0.0,0.0,0.0,0.0,0.0,0.0,0.0,0.0,0.0,0.0,0.0,0.0,0.0,0.0,0.0,0.0,0.0,0.0,0.0,0.0,0.0,0.0,0.0,0.0,0.0,0.0,0.0,0.0,0.0,0.0,0.0,0.0,0.0,0.0,0.0,0.0,0.0,0.0,0.0,0.0,-2.1647,-2.2662,-2.3271,-2.3371,-2.2619,-2.0871,-1.7871,0.0,0.0,0.0,0.0,0.0,0.0,0.0,0.0,0.0,0.0,0.0,0.0,0.0,0.0,0.0,0.0,0.0,0.0,0.0,0.0,0.0,0.0,0.0,0.0,0.0,0.0,0.0,0.0,0.0,0.0,0.0,0.0,0.0,0.0,0.0,0.0,0.0,0.0,0.0,0.0,0.0,0.0,0.0,0.0,0.0,0.0,0.0,0.0,0.0,0.0,0.0,0.0,0.0,0.0,0.0,0.0,0.0,0.0,0.0,0.0,0.0,0.0,0.0,0.0,0.0,0.0,0.0,0.0,0.0,0.0,0.0,0.0,0.0,0.0,0.0,0.0,0.0,0.0,0.0,0.0,0.0,0.0,0.0,0.0,0.0,0.0,0.0,0.0,0.0,0.0,0.0,0.0,0.0,0.0,0.0,0.0,0.0,0.0,0.0,0.0,0.0,0.0,0.0,0.0,-2.004,-2.3251,-2.3745,-2.4054,-2.4499,-2.2749,-2.0989,-1.9507,0.0,0.0,0.0,0.0,0.0,0.0,0.0,0.0,0.0,0.0,0.0,0.0,0.0,0.0,0.0,0.0,0.0,0.0,0.0,0.0,0.0,0.0,0.0,0.0,0.0,0.0,0.0,0.0,0.0,0.0,0.0,0.0,0.0,0.0,0.0,0.0,0.0,0.0,0.0,0.0,0.0,0.0,0.0,0.0,0.0,0.0,0.0,0.0,0.0,0.0,0.0,0.0,0.0,0.0,0.0,0.0,0.0,0.0,0.0,0.0,0.0,0.0,0.0,0.0,0.0,0.0,0.0,0.0,0.0,0.0,0.0,0.0,0.0,0.0,0.0,0.0,0.0,0.0,0.0,0.0,0.0,0.0,0.0,0.0,0.0,0.0,0.0,0.0,0.0,0.0,0.0,0.0,0.0,0.0,0.0,0.0,0.0,0.0,0.0,0.0,0.0,0.0,0.0,-2.0198,-2.1277,-2.4117,-2.418,-2.423,-2.475,-2.2774,-2.0854,-1.9393,-1.779,0.0,0.0,0.0,0.0,0.0,0.0,0.0,0.0,0.0,0.0,0.0,0.0,0.0,0.0,0.0,0.0,0.0,0.0,0.0,0.0,0.0,0.0,0.0,0.0,0.0,0.0,0.0,0.0,0.0,0.0,0.0,0.0,0.0,0.0,0.0,0.0,0.0,0.0,0.0,0.0,0.0,0.0,0.0,0.0,0.0,0.0,0.0,0.0,0.0,0.0,0.0,0.0,0.0,0.0,0.0,0.0,0.0,0.0,0.0,0.0,0.0,0.0,0.0,0.0,0.0,0.0,0.0,0.0,0.0,0.0,0.0,0.0,0.0,0.0,0.0,0.0,0.0,0.0,0.0,0.0,0.0,0.0,0.0,0.0,0.0,0.0,0.0,0.0,0.0,0.0,0.0,0.0,0.0,0.0,0.0,0.0,0.0,0.0,0.0,0.0,0.0,0.0,-2.2219,-2.301,-2.4822,-2.4531,-2.4356,-2.475,-2.2648,-2.0675,-1.9208,-1.7348,0.0,0.0,0.0,0.0,0.0,0.0,0.0,0.0,0.0,0.0,0.0,0.0,0.0,0.0,0.0,0.0,0.0,0.0,0.0,0.0,0.0,0.0,0.0,0.0,0.0,0.0,0.0,0.0,0.0,0.0,0.0,0.0,0.0,0.0,0.0,0.0,0.0,0.0,0.0,0.0,0.0,0.0,0.0,0.0,0.0,0.0,0.0,0.0,0.0,0.0,0.0,0.0,0.0,0.0,0.0,0.0,0.0,0.0,0.0,0.0,0.0,0.0,0.0,0.0,0.0,0.0,0.0,0.0,0.0,0.0,0.0,0.0,0.0,0.0,0.0,0.0,0.0,0.0,0.0,0.0,0.0,0.0,0.0,0.0,0.0,0.0,0.0,0.0,0.0,0.0,0.0,0.0,0.0,0.0,0.0,0.0,0.0,0.0,0.0,0.0,0.0,0.0,-2.3307,-2.49,-2.5476,-2.5084,-2.475,-2.48,-2.2297,-2.0464,-1.9784,-1.7227,0.0,0.0,0.0,0.0,0.0,0.0,0.0,0.0,0.0,0.0,0.0,0.0,0.0,0.0,0.0,0.0,0.0,0.0,0.0,0.0,0.0,0.0,0.0,0.0,0.0,0.0,0.0,0.0,0.0,0.0,0.0,0.0,0.0,0.0,0.0,0.0,0.0,0.0,0.0,0.0,0.0,0.0,0.0,0.0,0.0,0.0,0.0,0.0,0.0,0.0,0.0,0.0,0.0,0.0,0.0,0.0,0.0,0.0,0.0,0.0,0.0,0.0,0.0,0.0,0.0,0.0,0.0,0.0,0.0,0.0,0.0,0.0,0.0,0.0,0.0,0.0,0.0,0.0,0.0,0.0,0.0,0.0,0.0,0.0,0.0,0.0,0.0,0.0,0.0,0.0,0.0,0.0,0.0,0.0,0.0,0.0,0.0,0.0,0.0,0.0,0.0,0.0,-2.3027,-2.4258,0.0,-2.5134,-2.48,-2.48,-2.2573,-2.0817,-1.9861,0.0,0.0,0.0,0.0,0.0,0.0,0.0,0.0,0.0,0.0,0.0,0.0,0.0,0.0,0.0,0.0,0.0,0.0,0.0,0.0,0.0,0.0,0.0,0.0,0.0,0.0,0.0,0.0,0.0,0.0,0.0,0.0,0.0,0.0,0.0,0.0,0.0,0.0,0.0,0.0,0.0,0.0,0.0,0.0,0.0,0.0,0.0,0.0,0.0,0.0,0.0,0.0,0.0,0.0,0.0,0.0,0.0,0.0,0.0,0.0,0.0,0.0,0.0,0.0,0.0,0.0,0.0,0.0,0.0,0.0,0.0,0.0,0.0,0.0,0.0,0.0,0.0,0.0,0.0,0.0,0.0,0.0,0.0,0.0,0.0,0.0,0.0,0.0,0.0,0.0,0.0,0.0,0.0,0.0,0.0,0.0,0.0,0.0,0.0,0.0,0.0,0.0,-2.2194,-2.3192,-2.4199,0.0,-2.5385,-2.5008,-2.48,-2.2774,-2.0886,-1.943,0.0,0.0,0.0,0.0,0.0,0.0,0.0,0.0,0.0,0.0,0.0,0.0,0.0,0.0,0.0,0.0,0.0,0.0,0.0,0.0,0.0,0.0,0.0,0.0,0.0,0.0,0.0,0.0,0.0,0.0,0.0,0.0,0.0,0.0,0.0,0.0,0.0,0.0,0.0,0.0,0.0,0.0,0.0,0.0,0.0,0.0,0.0,0.0,0.0,0.0,0.0,0.0,0.0,0.0,0.0,0.0,0.0,0.0,0.0,0.0,0.0,0.0,0.0,0.0,0.0,0.0,0.0,0.0,0.0,0.0,0.0,0.0,0.0,0.0,0.0,0.0,0.0,0.0,0.0,0.0,0.0,0.0,0.0,0.0,0.0,0.0,0.0,0.0,0.0,0.0,0.0,0.0,0.0,0.0,0.0,0.0,0.0,0.0,0.0,0.0,0.0,0.0,-2.2796,-2.4094,-2.5234,-2.6373,-2.5971,-2.5385,-2.4825,-2.2774,-2.06,0.0,0.0,0.0,0.0,0.0,0.0,0.0,0.0,0.0,0.0,0.0,0.0,0.0,0.0,0.0,0.0,0.0,0.0,0.0,0.0,0.0,0.0,0.0,0.0,0.0,0.0,0.0,0.0,0.0,0.0,0.0,0.0,0.0,0.0,0.0,0.0,0.0,0.0,0.0,0.0,0.0,0.0,0.0,0.0,0.0,0.0,0.0,0.0,0.0,0.0,0.0,0.0,0.0,0.0,0.0,0.0,0.0,0.0,0.0,0.0,0.0,0.0,0.0,0.0,0.0,0.0,0.0,0.0,0.0,0.0,0.0,0.0,0.0,0.0,0.0,0.0,0.0,0.0,0.0,0.0,0.0,0.0,0.0,0.0,0.0,0.0,0.0,0.0,0.0,0.0,0.0,0.0,0.0,0.0,0.0,0.0,0.0,0.0,0.0,0.0,0.0,0.0,0.0,-2.2796,-2.4094,-2.5234,-2.6373,-2.5971,-2.5385,-2.4825,-2.3125,-2.0998,-1.8479,0.0,0.0,0.0,0.0,0.0,0.0,0.0,0.0,0.0,0.0,0.0,0.0,0.0,0.0,0.0,0.0,0.0,0.0,0.0,0.0,0.0,0.0,0.0,0.0,0.0,0.0,0.0,0.0,0.0,0.0,0.0,0.0,0.0,0.0,0.0,0.0,0.0,0.0,0.0,0.0,0.0,0.0,0.0,0.0,0.0,0.0,0.0,0.0,0.0,0.0,0.0,0.0,0.0,0.0,0.0,0.0,0.0,0.0,0.0,0.0,0.0,0.0,0.0,0.0,0.0,0.0,0.0,0.0,0.0,0.0,0.0,0.0,0.0,0.0,0.0,0.0,0.0,0.0,0.0,0.0,0.0,0.0,0.0,0.0,0.0,0.0,0.0,0.0,0.0,0.0,0.0,0.0,0.0,0.0,0.0,0.0,0.0,0.0,0.0,0.0,0.0,0.0,-2.251,-2.3974,-2.5234,-2.6373,-2.6172,-2.5636,-2.4883,-2.3446,-2.1368,-1.8503,0.0,0.0,0.0,0.0,0.0,0.0,0.0,0.0,0.0,0.0,0.0,0.0,0.0,0.0,0.0,0.0,0.0,0.0,0.0,0.0,0.0,0.0,0.0,0.0,0.0,0.0,0.0,0.0,0.0,0.0,0.0,0.0,0.0,0.0,0.0,0.0,0.0,0.0,0.0,0.0,0.0,0.0,0.0,0.0,0.0,0.0,0.0,0.0,0.0,0.0,0.0,0.0,0.0,0.0,0.0,0.0,0.0,0.0,0.0,0.0,0.0,0.0,0.0,0.0,0.0,0.0,0.0,0.0,0.0,0.0,0.0,0.0,0.0,0.0,0.0,0.0,0.0,0.0,0.0,0.0,0.0,0.0,0.0,0.0,0.0,0.0,0.0,0.0,0.0,0.0,0.0,0.0,0.0,0.0,0.0,0.0,0.0,0.0,0.0,0.0,0.0,0.0,-2.2035,-2.376,-2.5234,-2.6373,-2.6499,-2.6072,-2.4983,-2.3822,-2.1815,-1.8648,0.0,0.0,0.0,0.0,0.0,0.0,0.0,0.0,0.0,0.0,0.0,0.0,0.0,0.0,0.0,0.0,0.0,0.0,0.0,0.0,0.0,0.0,0.0,0.0,0.0,0.0,0.0,0.0,0.0,0.0,0.0,0.0,0.0,0.0,0.0,0.0,0.0,0.0,0.0,0.0,0.0,0.0,0.0,0.0,0.0,0.0,0.0,0.0,0.0,0.0,0.0,0.0,0.0,0.0,0.0,0.0,0.0,0.0,0.0,0.0,-2.3982,0.0,0.0,0.0,0.0,0.0,0.0,0.0,0.0,0.0,0.0,0.0,0.0,0.0,0.0,0.0,0.0,0.0,0.0,0.0,0.0,0.0,0.0,0.0,0.0,0.0,0.0,0.0,0.0,0.0,0.0,0.0,0.0,0.0,0.0,0.0,0.0,0.0,0.0,0.0,0.0,0.0,-2.2008,-2.376,-2.5234,-2.6373,-2.6499,-2.6223,-2.5485,-2.4431,-2.2591,-1.9718,-1.7581,0.0,0.0,0.0,0.0,0.0,0.0,0.0,0.0,0.0,0.0,0.0,0.0,0.0,0.0,0.0,0.0,0.0,0.0,0.0,0.0,0.0,0.0,0.0,0.0,0.0,0.0,0.0,0.0,0.0,0.0,0.0,0.0,0.0,0.0,0.0,0.0,0.0,0.0,0.0,0.0,0.0,0.0,0.0,0.0,0.0,0.0,0.0,0.0,0.0,0.0,0.0,0.0,0.0,0.0,0.0,0.0,0.0,0.0,0.0,0.0,-2.493,0.0,0.0,0.0,0.0,0.0,0.0,0.0,0.0,0.0,0.0,0.0,0.0,0.0,0.0,0.0,0.0,0.0,0.0,0.0,0.0,0.0,0.0,0.0,0.0,0.0,0.0,0.0,0.0,0.0,0.0,0.0,0.0,0.0,0.0,0.0,0.0,0.0,0.0,0.0,0.0,-2.1657,-2.3609,-2.5234,-2.6373,-2.6499,-2.6273,-2.5636,-2.4607,-2.316,-2.1181,-1.8825,0.0,0.0,0.0,0.0,0.0,0.0,0.0,0.0,0.0,0.0,0.0,0.0,0.0,0.0,0.0,0.0,0.0,0.0,0.0,0.0,0.0,0.0,0.0,0.0,0.0,0.0,0.0,0.0,0.0,0.0,0.0,0.0,0.0,0.0,0.0,0.0,0.0,0.0,0.0,0.0,0.0,0.0,0.0,0.0,0.0,0.0,0.0,0.0,0.0,0.0,0.0,0.0,0.0,-2.9652,-2.9972,-2.9765,-3.0382,-3.0909,-3.1185,-2.8875,-2.8187,-2.8534,-2.5991,0.0,0.0,0.0,0.0,0.0,0.0,0.0,0.0,0.0,0.0,0.0,0.0,0.0,0.0,0.0,0.0,0.0,0.0,0.0,0.0,0.0,0.0,0.0,0.0,-2.4874,-2.4457,0.0,0.0,0.0,0.0,0.0,0.0,0.0,0.0,0.0,0.0,0.0,0.0,-2.1599,-2.3627,-2.5335,-2.6399,-2.6499,-2.6298,-2.5787,-2.4833,-2.3803,-2.2673,-2.0338,-1.8313,0.0,0.0,0.0,0.0,0.0,0.0,0.0,0.0,0.0,0.0,0.0,0.0,0.0,0.0,0.0,0.0,0.0,0.0,0.0,0.0,0.0,0.0,0.0,0.0,0.0,0.0,0.0,0.0,0.0,0.0,0.0,0.0,-2.298,-2.3627,0.0,0.0,0.0,0.0,0.0,0.0,0.0,0.0,0.0,0.0,0.0,0.0,0.0,-2.8874,-2.9529,-3.0893,-3.1362,-3.0979,-3.3021,-3.3708,-3.3269,-3.3822,-3.4123,-3.4148,-3.3765,0.0,-2.9606,-2.9243,0.0,0.0,0.0,0.0,0.0,0.0,0.0,0.0,0.0,0.0,0.0,0.0,0.0,0.0,0.0,0.0,0.0,0.0,0.0,0.0,0.0,0.0,-2.9109,-2.729,-2.6911,-2.6725,0.0,-2.3082,-2.0624,-2.0139,-1.8653,0.0,0.0,0.0,0.0,0.0,0.0,0.0,-2.2619,-2.4431,-2.5737,-2.6424,-2.6499,-2.6474,-2.6399,-2.5762,-2.4933,-2.3853,-2.2514,-2.1034,-1.9358,-1.6947,0.0,0.0,0.0,0.0,0.0,0.0,0.0,0.0,0.0,0.0,0.0,0.0,0.0,0.0,0.0,0.0,0.0,0.0,0.0,0.0,0.0,0.0,0.0,0.0,0.0,0.0,0.0,0.0,0.0,-2.3692,-2.4855,-2.442,-2.4778,-2.4205,0.0,0.0,0.0,0.0,0.0,0.0,0.0,0.0,0.0,-2.9821,-3.0493,-3.1286,-3.2179,-3.3139,-3.3671,-3.3746,-3.5027,-3.568,-3.5755,-3.6307,-3.6558,-3.6558,-3.6232,-3.5102,-3.3363,-3.1523,-2.9492,-2.754,0.0,0.0,0.0,0.0,-2.6983,-2.6628,-2.8826,-2.8917,0.0,-2.7851,0.0,0.0,0.0,0.0,0.0,0.0,0.0,0.0,0.0,0.0,-2.9025,-2.8761,-2.8699,-2.8624,-2.8435,-2.649,-2.428,0.0,-2.1794,-2.069,-1.7953,0.0,0.0,0.0,0.0,-2.192,-2.3797,-2.4958,-2.5937,-2.6851,-2.6675,-2.6499,-2.6499,-2.5971,-2.5285,-2.4506,-2.3371,-2.2142,-2.0815,-1.8755,-1.6955,0.0,0.0,0.0,0.0,0.0,0.0,0.0,0.0,0.0,0.0,0.0,0.0,0.0,0.0,0.0,0.0,0.0,0.0,0.0,0.0,0.0,0.0,0.0,0.0,0.0,0.0,0.0,0.0,-2.5618,-2.6721,-2.5932,-2.6785,-2.6352,0.0,0.0,0.0,0.0,0.0,0.0,-2.975,-3.0157,-3.0971,-3.2429,-3.3115,-3.3897,-3.4726,-3.5278,-3.5734,-3.6135,-3.6584,-3.6985,-3.7412,-3.7814,-3.8015,-3.799,-3.7563,-3.7161,-3.6581,-3.3495,-3.1612,-3.0522,-2.9576,-2.8898,-2.8618,-3.0226,-3.0115,-2.9567,-3.2108,-3.2235,-3.1135,-3.0432,-2.9453,-2.822,-2.6568,0.0,0.0,0.0,0.0,-2.7138,-2.9166,-2.9337,-2.9151,-3.0005,-3.0105,-3.0005,-3.0005,-2.9227,-2.772,0.0,-2.47,-2.3929,-2.0489,0.0,0.0,0.0,0.0,-2.3552,-2.5202,-2.5912,-2.6515,-2.7193,-2.6952,-2.665,-2.6499,-2.6097,-2.5536,-2.4825,-2.3998,-2.297,-2.1744,-2.021,-1.8671,-1.7219,0.0,0.0,0.0,0.0,0.0,0.0,0.0,0.0,0.0,0.0,0.0,0.0,0.0,0.0,0.0,0.0,0.0,0.0,0.0,0.0,0.0,0.0,0.0,0.0,0.0,0.0,0.0,0.0,0.0,-2.961,-2.8751,0.0,0.0,0.0,0.0,-2.7864,-2.9042,-3.0197,-3.1246,-3.2802,-3.3916,-3.4544,-3.6081,-3.696,-3.701,-3.7563,-3.7864,-3.7889,-3.7914,-3.7939,-3.7965,-3.799,-3.8015,-3.8015,-3.7965,-3.7939,-3.7739,-3.5479,-3.3897,-3.2842,-3.2256,-3.1653,-3.1291,-3.187,-3.2072,-3.2181,-3.3388,-3.3463,-3.3043,-3.3495,-3.1863,-2.9679,-2.9566,-2.8422,0.0,0.0,-2.9164,-2.9843,-3.0974,-3.1276,-3.1235,-3.1311,-3.0934,-3.0583,-3.0583,-3.0105,-2.9327,0.0,-2.6615,-2.5335,-2.4575,0.0,-2.3321,-2.4299,-2.4575,-2.5285,-2.6942,-2.7645,-2.7795,-2.7344,-2.7304,-2.7052,-2.6524,-2.6474,-2.5996,-2.485,-2.475,-2.3973,-2.2347,-2.1217,-2.0021,-1.8828,-1.573,0.0,0.0,0.0,0.0,0.0,0.0,0.0,0.0,0.0,0.0,0.0,0.0,0.0,0.0,0.0,0.0,0.0,0.0,0.0,0.0,0.0,0.0,0.0,0.0,0.0,0.0,0.0,0.0,-3.0628,-3.166,0.0,-2.9353,-2.9783,-3.0379,-3.0708,-3.212,-3.33,-3.4022,-3.5303,-3.6107,-3.6307,-3.7211,-3.7713,-3.7713,-3.7914,-3.8191,-3.8567,-3.8567,-3.8743,-3.9094,-3.9094,-3.9094,-3.9069,-3.8718,-3.8567,-3.8467,-3.7312,-3.6182,-3.5148,-3.4173,-3.3696,-3.3571,-3.3746,-3.3822,-3.3897,-3.4299,-3.4299,-3.4123,-3.3947,-3.2993,-3.1838,-3.1461,-3.0683,-3.008,-3.0834,-3.0934,-3.0984,-3.1738,-3.1662,-3.1386,-3.1386,-3.126,-3.1009,-3.0683,-3.0457,-3.0105,-2.9327,-2.8398,-2.7218,-2.5586,-2.5586,-2.5686,-2.536,-2.5937,-2.6866,-2.8172,-2.8197,-2.8172,-2.8323,-2.7695,-2.7228,-2.7027,-2.6348,-2.5586,-2.4825,-2.4481,-2.3703,-2.2372,-2.1594,-2.0659,-1.95,-1.7412,-1.5309,0.0,0.0,0.0,0.0,0.0,0.0,0.0,0.0,0.0,0.0,0.0,0.0,0.0,0.0,0.0,0.0,0.0,0.0,0.0,0.0,0.0,0.0,0.0,0.0,0.0,0.0,-3.1904,-3.2133,-3.3688,-3.3955,-3.2156,-3.2817,-3.3495,-3.3872,-3.4926,-3.5805,-3.6285,-3.7236,-3.7739,-3.7739,-3.8291,-3.8567,-3.8567,-3.8567,-3.8768,-3.9145,-3.9145,-3.9346,-3.9697,-3.9697,-3.9697,-3.9672,-3.9295,-3.9145,-3.9094,-3.8542,-3.7864,-3.7134,-3.5981,-3.5759,-3.61,-3.5896,-3.609,-3.6404,-3.6,-3.5446,-3.4881,-3.4575,-3.4073,-3.3571,-3.3169,-3.2817,-3.2566,-3.2717,-3.2516,-3.2265,-3.2466,-3.224,-3.1964,-3.1964,-3.1813,-3.1562,-3.1235,-3.0859,-3.0507,-3.0131,-2.9603,-2.875,-2.7268,-2.7469,-2.7645,-2.7092,-2.7494,-2.8172,-2.9101,-2.89,-2.875,-2.8863,-2.8273,-2.7695,-2.7318,-2.6414,-2.5586,-2.4825,-2.413,-2.3276,-2.2347,-2.1594,-2.0893,-2.0138,-1.8138,-1.601,-1.3733,0.0,0.0,0.0,0.0,0.0,0.0,0.0,0.0,0.0,0.0,0.0,0.0,0.0,0.0,0.0,0.0,0.0,0.0,0.0,0.0,0.0,0.0,0.0,-2.9429,-3.1304,-3.3062,-3.4376,-3.4671,-3.4781,-3.4781,-3.5257,-3.6009,-3.7136,-3.7236,-3.7462,-3.8015,-3.8592,-3.8944,-3.8944,-3.9421,-3.9697,-3.9697,-3.9697,-3.9697,-3.9697,-3.9697,-3.9697,-3.9697,-3.9697,-3.9697,-3.9697,-3.9697,-3.9697,-3.9647,-3.912,-3.8944,-3.8844,-3.7638,-3.7881,-3.8786,-3.828,-3.8836,-3.9651,-3.8469,-3.6928,-3.5533,-3.5533,-3.5157,-3.4705,-3.4705,-3.468,-3.46,-3.4117,-3.3941,-3.3815,-3.333,-3.3179,-3.3154,-3.3111,-3.2641,-3.224,-3.2215,-3.1386,-3.0658,-3.0633,-3.0181,-2.9804,-2.9804,-2.9327,-2.9151,-2.9704,-2.9327,0.0,-2.9729,-2.9804,-2.9578,-2.8988,-2.8888,-2.8461,-2.7394,-2.6801,-2.5996,-2.485,-2.3722,-2.2844,-2.2318,-2.1295,-2.0717,-2.0691,-1.7897,-1.563,-1.4067,0.0,0.0,0.0,0.0,0.0,0.0,0.0,0.0,0.0,0.0,0.0,0.0,0.0,0.0,0.0,0.0,0.0,0.0,0.0,0.0,0.0,-2.88,-3.0624,-3.1055,-3.2838,-3.44,-3.5111,-3.6323,-3.7111,-3.7111,-3.7236,-3.7462,-3.7764,-3.8165,-3.8517,-3.8617,-3.917,-3.9471,-3.9471,-3.9622,-3.9697,-3.9697,-3.9697,-3.9697,-3.9697,-3.9697,-3.9697,-3.9697,-3.9697,-3.9697,-3.9697,-3.9697,-3.9697,-3.9697,-3.9521,-3.9471,-3.9346,-3.8216,-3.796,-3.8227,-3.8049,-3.7983,-3.7856,-3.7117,-3.6561,-3.6132,-3.6132,-3.5755,-3.5282,-3.5282,-3.5006,-3.4855,-3.5582,-3.5435,-3.5053,-3.494,-3.4575,-3.4079,-3.3283,-3.2943,-3.2717,-3.229,-3.1989,-3.1537,-3.0758,-3.0482,-3.0256,-2.9854,-2.9654,-2.9603,-2.9779,-2.9654,0.0,-2.9779,-2.9804,-2.9729,-2.9578,-2.9176,-2.8612,-2.7946,-2.6615,-2.5536,-2.4825,-2.3371,-2.2443,-2.2322,-2.1644,-2.1094,-2.0691,-1.823,-1.6554,0.0,0.0,0.0,0.0,0.0,0.0,0.0,0.0,0.0,0.0,0.0,0.0,0.0,0.0,0.0,0.0,0.0,0.0,0.0,0.0,0.0,0.0,-3.0958,-3.2988,-3.3581,-3.4686,-3.578,-3.681,-3.7789,-3.8467,-3.8693,-3.8718,-3.8718,-3.8718,-3.9019,-3.922,-3.922,-3.9521,-3.9697,-3.9697,-3.9697,-3.9697,-3.9697,-3.9697,-3.9697,-3.9697,-3.9697,-3.9697,-3.9697,-3.9697,-3.9697,-3.9697,-3.9697,-3.9697,-3.9697,-3.9697,-3.9697,0.0,0.0,0.0,0.0,0.0,-3.8951,-3.8185,-3.7668,-3.7159,-3.6707,-3.648,-3.6132,-3.5881,-3.5881,-3.5655,-3.5491,-3.5936,-3.5804,-3.5399,-3.4995,-3.4632,-3.4178,-3.329,-3.3111,-3.2993,-3.2641,-3.239,-3.1964,-3.111,-3.0758,0.0,-2.988,-2.9804,-2.9804,-2.9804,-2.9804,-2.9804,-2.9804,-2.9804,-2.9804,-2.9804,-2.9503,-2.9076,-2.8461,-2.7118,0.0,0.0,0.0,-2.2418,-2.197,-2.1669,0.0,0.0,0.0,0.0,0.0,0.0,0.0,0.0,-1.3789,-1.3555,0.0,0.0,0.0,0.0,0.0,0.0,0.0,0.0,0.0,0.0,0.0,0.0,0.0,0.0,0.0,0.0,-3.3194,-3.5303,-3.6531,-3.6681,-3.7235,-3.8743,-3.8919,-3.917,-3.9647,-3.9697,-3.9697,-3.9697,-3.9697,-3.9697,-3.9697,0.0,0.0,0.0,0.0,-3.9697,-3.9697,-3.9697,-3.9697,-3.9697,-3.9697,-3.9697,-3.9697,-3.9697,-3.9697,-3.9697,-3.9697,-3.9697,-3.9697,-3.9697,-3.9697,-3.9647,-3.917,-3.9622,-4.0578,-4.1039,-4.0542,-3.9616,-3.9013,0.0,0.0,-3.6656,-3.6455,-3.6405,-3.6405,-3.6405,-3.6304,-3.5894,-3.5718,-3.5441,-3.4546,-3.4193,-3.3947,-3.3338,-3.3119,-3.3111,-3.3111,-3.2667,-3.2139,-3.1587,-3.106,-3.0532,-2.998,-2.9829,-2.9804,-2.9804,-2.9804,-2.9804,-2.9804,-2.9804,-2.9804,-2.9804,0.0,0.0,-2.8938,-2.7971,-2.7153,-2.6524,-2.4481,-2.2819,-2.182,-2.182,-2.1845,-2.1769,-2.1058,-2.0463,-2.0065,-1.9157,-1.8541,-1.8197,-1.5694,-1.5195,0.0,0.0,0.0,0.0,0.0,0.0,0.0,0.0,0.0,0.0,0.0,0.0,0.0,0.0,0.0,-3.2893,-3.4826,-3.6631,-3.8215,-3.8441,-3.8567,-3.8869,-3.927,-3.9572,-3.9697,-3.9697,-3.9697,-3.9697,-3.9697,-3.9697,-3.9697,-3.9697,-3.9697,-3.9697,-3.9697,-3.9697,-3.9697,-3.9697,-3.9697,-3.9697,0.0,0.0,-3.9697,-3.9697,-3.9697,-3.9697,-3.9697,-3.9697,-3.9697,-3.9697,-3.9697,-3.9697,-3.9572,-3.9675,-3.9855,-3.9521,-3.9267,-3.8992,-3.836,-3.7733,-3.7161,-3.7061,-3.6782,-3.6405,-3.6405,-3.6405,0.0,-3.7364,-3.7227,-3.6765,-3.669,-3.5931,-3.4925,-3.3965,-3.3395,-3.3111,-3.3111,-3.2993,-3.2742,-3.2164,-3.1612,-3.106,-3.0557,-3.008,-2.9804,-2.9804,-2.9804,-2.9804,-2.9804,-2.9804,-2.9804,-2.9804,-2.9804,-2.9553,-2.8938,-2.8323,-2.7519,-2.6549,-2.5234,-2.4173,-2.3527,-2.3929,-2.3979,-2.3527,-2.2805,-2.2138,-2.1556,-2.0072,-1.9447,-1.963,-1.8002,-1.7383,0.0,0.0,0.0,0.0,0.0,0.0,0.0,0.0,0.0,0.0,0.0,-2.7871,-2.9804,0.0,-3.2893,-3.4826,-3.6282,-3.7588,-3.8768,-3.912,-3.927,-3.927,-3.9521,-3.9697,-3.9697,-3.9697,-3.9697,-3.9697,-3.9697,-3.9697,-3.9697,-3.9697,-3.9697,-3.9697,-3.9697,-3.9697,-3.9697,-3.9697,-3.9697,-3.9697,-3.9697,-3.9697,-3.9697,-3.9697,-3.9697,-3.9697,-3.9697,-3.9697,-3.9697,-3.9697,-3.9697,-3.9697,-3.9697,-3.9697,-3.9672,-3.9371,-3.927,-3.9195,-3.8642,-3.8266,-3.7939,-3.7362,-3.6985,-3.6782,-3.648,-3.6405,-3.6546,-3.7103,-3.6991,-3.6708,-3.647,-3.5936,-3.5263,-3.4155,-3.3696,-3.342,-3.3187,-3.3111,-3.2893,-3.2315,-3.1989,-3.1537,-3.0758,-3.0382,-3.0105,-2.9829,-2.9804,-2.9804,-2.9804,-2.9804,-2.9804,-2.9804,-2.9804,-2.9679,-2.9377,-2.885,-2.8047,-2.6977,-2.6364,-2.5686,-2.4833,-2.5059,-2.4958,-2.4431,-2.403,-2.3336,-2.2359,-2.1519,-2.0849,-2.0342,-1.9631,-1.9062,0.0,0.0,0.0,0.0,0.0,0.0,0.0,0.0,-2.6531,-2.8775,-2.9754,-3.0718,-3.2499,-3.3771,-3.5002,-3.648,-3.7513,-3.8366,-3.8944,-3.9421,-3.9697,-3.9697,-3.9697,-3.9697,-3.9697,-3.9697,-3.9697,-3.9697,-3.9697,-3.9697,-3.9697,-3.9697,-3.9697,-3.9697,-3.9697,-3.9697,-3.9697,-3.9697,-3.9697,-3.9697,-3.9697,-3.9697,-3.9697,-3.9697,-3.9697,-3.9697,-3.9697,-3.9697,-3.9697,-3.9697,-3.9697,-3.9697,-3.9697,-3.9697,-3.9697,-3.9697,-3.9697,-3.9622,-3.9195,-3.902,-3.8768,-3.7814,-3.7362,-3.7111,-3.6707,-3.648,-3.6405,-3.6405,-3.6405,-3.6304,-3.5805,-3.5583,-3.5282,-3.4424,-3.4048,-3.3771,-3.3345,-3.3144,-3.2943,-3.2466,-3.229,-3.1938,-3.1085,-3.0758,-3.0432,-2.988,-2.9804,-2.9804,-2.9804,-2.9804,-2.9804,-2.9804,-2.9804,-2.9804,-2.9804,-2.9277,-2.8512,-2.767,-2.7494,-2.7042,-2.6113,-2.6088,-2.5887,-2.5427,-2.5261,-2.4564,-2.3428,-2.3031,-2.2232,-2.1114,-2.0938,-2.0449,-2.5862,-2.4933,-2.4858,-2.5795,-2.5711,-2.644,0.0,0.0,-3.0583,-3.2792,-3.4028,-3.4831,-3.5082,-3.6081,-3.7036,-3.7713,-3.8366,-3.8969,-3.9521,-3.9647,-3.9697,-3.9697,-3.9697,-3.9697,-3.9697,-3.9697,-3.9697,-3.9697,-3.9697,-3.9697,-3.9697,-3.9697,-3.9697,-3.9697,-3.9697,-3.9697,-3.9697,-3.9697,-3.9697,-3.9697,-3.9697,-3.9697,-3.9697,-3.9697,-3.9697,-3.9697,-3.9697,-3.9697,-3.9697,-3.9697,-3.9697,-3.9697,-3.9697,-3.9697,-3.9697,-3.9697,-3.9697,-3.9697,-3.9622,-3.927,-3.8894,-3.8718,-3.799,-3.7186,-3.7111,-3.6807,-3.6405,-3.6405,-3.6405,-3.638,-3.6329,-3.5906,-3.5458,-3.5332,-3.458,-3.3872,-3.3822,-3.342,-3.3068,-3.2993,-3.2566,-3.2164,-3.2064,-3.1235,-3.0432,-2.988,-2.9804,-2.9804,-2.9804,-2.9804,-2.9804,-2.9804,-2.9804,-2.9804,-2.9804,-2.9277,-2.8838,-2.8712,-2.8273,-2.7946,-2.7821,-2.7821,-2.7795,-2.7745,-2.6809,-2.6215,-2.6075,-2.4154,-2.3152,-2.2976,-2.2149,-2.1484,-2.8775,-2.8373,-2.8373,-2.9126,-2.9654,-3.0432,-3.229,-3.2867,-3.3445,-3.5002,-3.5956,-3.6584,-3.691,-3.7638,-3.8241,0.0,-3.8969,-3.9421,-3.9672,-3.9421,-3.922,-3.922,-3.8919,-3.8969,-3.9622,-3.9697,-3.9697,-3.9697,-3.9697,-3.9697,-3.9697,-3.9697,-3.9697,-3.9697,-3.9697,-3.9697,-3.9697,-3.9697,-3.9697,-3.9697,-3.9697,-3.9697,-3.9697,-3.9697,-3.9697,-3.9697,-3.9697,-3.9697,-3.9697,-3.9697,-3.9697,-3.9697,-3.9697,-3.9697,-3.9697,-3.9697,-3.9697,-3.9697,-3.9697,-3.9546,-3.9295,-3.8969,-3.8592,-3.804,-3.7387,-3.701,-3.6832,-3.6505,-3.6405,-3.6405,-3.6405,-3.6182,-3.5956,-3.5583,-3.5157,-3.4675,-3.4048,-3.3721,-3.347,-3.3144,-3.2893,-3.2616,-3.2265,-3.1838,-3.126,-3.0407,-3.0005,-2.9804,-2.9804,-2.9804,-2.9804,-2.9804,-2.9804,-2.9804,-2.9804,-2.9578,-2.9428,-2.9428,-2.9227,-2.8925,-2.8562,-2.8574,-2.8423,-2.8122,-2.7037,-2.6221,-2.5624,-2.4079,-2.302,-2.2493,-2.2081,-2.1914,-3.0331,-3.0507,-3.0809,-3.1637,-3.2692,-3.3646,-3.4098,-3.4826,-3.5629,-3.648,-3.7036,-3.7487,-3.7739,-3.8241,-3.8743,-3.8894,-3.922,-3.9521,-3.9672,-3.922,-3.8869,-3.8642,-3.814,-3.809,-3.8919,-3.9295,-3.9521,-3.9697,-3.9697,-3.9697,-3.9697,-3.9697,-3.9697,-3.9697,-3.9697,-3.9697,-3.9697,-3.9697,-3.9697,-3.9697,-3.9697,-3.9697,-3.9697,-3.9697,-3.9697,-3.9697,-3.9697,-3.9697,-3.9697,-3.9697,-3.9697,-3.9697,-3.9697,-3.9697,-3.9697,-3.9697,-3.9697,-3.9697,-3.9697,-3.9697,-3.9622,-3.922,-3.9045,-3.8768,-3.7889,-3.7437,-3.7111,-3.6757,-3.6531,-3.6405,-3.6405,-3.6405,-3.6304,-3.5855,-3.5608,-3.5282,-3.4525,-3.4123,-3.3796,-3.3395,-3.3194,-3.2943,-3.2516,-3.2315,-3.1964,-3.116,-3.0457,-2.9955,-2.9804,-2.9804,-2.9804,-2.9804,-2.9804,-2.9804,-2.9804,-2.9804,-2.9804,-2.9804,-2.9804,-2.9603,-2.9176,-2.9139,-2.8976,-2.8574,-2.7205,-2.6138,-2.5408,-2.3942,-2.3042,-2.2709,-2.2394,-2.272,-2.9654,-3.0206,-3.1009,-3.2616,-3.3847,-3.5102,-3.6684,-3.7086,-3.7111,-3.7161,-3.7588,-3.7814,-3.7312,-3.7663,-3.8216,-3.8768,-3.8894,-3.9094,-3.9622,-3.922,-3.8668,-3.809,-3.7538,-3.7236,0.0,-3.8266,-3.912,-3.9647,-3.9697,-3.9697,-3.9697,-3.9697,-3.9697,-3.9697,-3.9697,-3.9697,-3.9697,-3.9697,-3.9697,-3.9697,-3.9697,-3.9697,-3.9697,-3.9697,-3.9697,-3.9697,-3.9697,-3.9697,-3.9697,-3.9697,-3.9697,-3.9697,-3.9697,-3.9697,-3.9697,-3.9697,-3.9697,-3.9697,-3.9697,-3.9697,-3.9697,-3.9672,-3.9295,-3.8919,-3.8869,-3.8114,-3.7186,-3.7161,-3.6832,-3.6405,-3.6405,-3.6405,-3.6405,-3.638,-3.5931,-3.5483,-3.5458,-3.4605,-3.3897,-3.3872,-3.3445,-3.3111,-3.3086,-3.2591,-3.2215,-3.2164,-3.126,-3.0407,-2.9854,-2.9804,-2.9804,-2.9804,-2.9804,-2.9804,-2.9804,-2.9804,-2.9804,-2.9804,-2.9804,-2.9779,-2.9754,-2.9754,-2.9754,-2.9754,-2.7619,-2.6479,-2.6438,-2.419,-2.3674,-2.4703,-2.3587,-2.4233,-3.106,-3.2089,-3.3194,-3.4896,-3.5805,-3.6584,-3.7513,-3.7739,-3.7739,-3.7739,-3.7588,-3.7412,-3.7211,-3.7337,-3.7638,-3.8216,-3.8617,-3.912,-3.9622,-3.922,-3.8517,-3.7563,-3.7287,0.0,0.0,0.0,0.0,-3.9069,-3.9145,-3.9295,-3.9672,-3.9697,-3.9697,-3.9697,-3.9697,-3.9697,-3.9697,-3.9697,-3.9697,-3.9697,-3.9697,-3.9697,-3.9697,-3.9697,-3.9697,-3.9697,-3.9697,-3.9697,-3.9697,-3.9697,-3.9697,-3.9697,-3.9697,-3.9697,-3.9697,-3.9697,-3.9697,-3.9697,-3.9697,-3.9697,-3.9697,-3.9697,-3.9572,-3.9346,-3.902,-3.8642,-3.814,-3.7387,-3.7061,-3.6883,-3.6505,-3.6405,-3.6405,-3.6405,-3.6254,-3.5981,-3.5583,-3.4931,-3.4349,-3.3972,-3.3445,-3.3111,-3.3111,-3.2918,-3.2641,-3.2265,-3.1311,-3.0407,-2.9854,-2.9804,-2.9804,-2.9804,-2.9804,-2.9804,-2.9804,-2.9804,-2.9804,-2.9804,-2.9804,-2.9804,-2.9804,-2.9804,-2.9804,-2.9804,-2.8331,-2.7197,-2.6524,-2.5735,-2.5168,-2.483,-2.5189,-2.5336,-3.2365,-3.3621,-3.4876,-3.6533,-3.7362,-3.7889,-3.8241,-3.814,-3.7889,-3.7487,-3.6835,-3.6232,-3.6056,-3.5855,-3.6081,-3.7262,-3.7739,-3.8416,-3.9521,-3.9044,-3.8216,-3.7287,-3.701,-3.6807,0.0,0.0,0.0,-3.8818,-3.9095,-3.932,-3.9672,-3.9697,-3.9697,-3.9697,-3.9697,-3.9697,-3.9697,-3.9697,-3.9697,-3.9697,-3.9697,-3.9697,-3.9697,-3.9697,-3.9697,-3.9697,-3.9697,-3.9697,-3.9697,-3.9697,-3.9697,-3.9697,-3.9697,-3.9697,-3.9697,-3.9697,-3.9697,-3.9697,-3.9697,-3.9697,-3.9697,-3.9697,-3.9697,-3.9622,-3.927,-3.9019,-3.8768,-3.799,-3.7487,-3.7111,-3.6807,-3.6556,-3.6405,-3.6405,-3.6405,-3.6304,-3.5906,-3.5403,-3.4856,-3.455,-3.3872,-3.337,-3.337,-3.3219,-3.2893,-3.229,-3.1612,-3.0909,-3.0181,-2.9905,-2.9804,-2.9804,-2.9804,-2.9804,-2.9804,-2.9804,-2.9804,-2.9804,-2.9804,-2.9804,-2.9804,-2.9804,-2.9804,-2.9804,-2.8688,-2.7763,-2.7075,-2.6689,-2.6295,-2.5983,-2.6337,-2.6295,-3.3545,-3.4826,-3.6034,-3.7663,-3.8467,-3.8919,-3.8894,-3.8366,-3.7613,-3.6505,-3.5353,-3.4399,0.0,0.0,-3.3746,-3.5881,-3.6332,-3.7209,-3.9346,-3.8743,-3.7889,0.0,0.0,0.0,0.0,0.0,0.0,-3.8793,0.0,-3.9647,-3.9697,-3.9697,-3.9697,-3.9697,-3.9697,-3.9697,-3.9697,-3.9697,-3.9697,-3.9697,-3.9697,-3.9697,-3.9697,-3.9697,-3.9697,-3.9697,-3.9697,-3.9697,-3.9697,-3.9697,-3.9697,-3.9697,-3.9697,-3.9697,-3.9697,-3.9697,-3.9697,-3.9697,-3.9697,-3.9697,-3.9697,-3.9697,-3.9697,-3.9697,-3.9697,-3.932,-3.8969,-3.8919,-3.809,-3.7262,-3.7211,-3.6832,-3.643,-3.6405,-3.6405,-3.6405,-3.6405,-3.5931,-3.5508,-3.5508,-3.4605,-3.3897,-3.3847,-3.342,-3.2893,-3.234,-3.224,-3.1813,-3.0758,-3.0156,-2.9829,-2.9804,-2.974,-2.974,-2.9804,-2.974,-2.974,-2.9804,-2.9804,-2.9804,-2.9804,-2.9804,-2.9804,-2.9804,-2.8727,-2.8164,-2.8084,-2.7139,-2.7116,-2.8004,-2.7075,-2.7116,-3.4731,-3.6533,-3.8115,-3.8542,-3.8818,-3.8768,-3.8316,-3.7487,-3.6405,-3.4851,-3.3646,-3.2441,0.0,0.0,0.0,-3.3771,-3.5629,0.0,-3.8894,-3.9195,0.0,-3.7914,0.0,-3.7964,-3.7061,-3.7739,0.0,0.0,-3.8592,-3.8793,-3.9647,-3.9697,-3.9697,-3.9697,-3.9697,-3.9697,-3.9697,-3.9697,-3.9697,-3.9697,-3.9697,-3.9697,-3.9697,-3.9697,-3.9697,-3.9697,-3.9697,-3.9697,-3.9697,-3.9697,-3.9697,-3.9697,-3.9697,-3.9697,-3.9697,-3.9697,-3.9697,-3.9697,-3.9697,-3.9697,-3.9697,-3.9697,-3.9697,-3.9697,-3.9697,-3.9597,-3.9396,-3.8994,-3.8718,-3.8241,-3.7412,-3.7086,-3.6933,-3.6505,-3.6405,-3.6405,-3.6405,-3.5931,-3.5508,-3.5508,-3.4605,-3.3771,-3.3345,-3.3212,-3.3061,-3.2867,-3.2491,-3.1813,-3.0758,-3.0482,-3.0256,-2.9829,-2.9028,-2.891,-2.9702,-2.9028,-2.891,-2.974,-2.9804,-2.9804,-2.9804,-2.9804,-2.9804,-2.9804,-2.9482,-2.8949,-2.8084,-2.8688,-2.8251,-2.6912,-2.8331,-2.7787,-3.6332,-3.7889,-3.922,-3.922,-3.9044,-3.8517,-3.7211,-3.6081,-3.4675,-3.2541,-3.1185,0.0,-2.8574,-2.9679,0.0,0.0,0.0,0.0,-3.8693,-3.9145,-3.9094,0.0,-3.8668,0.0,-3.799,-3.8492,-3.902,0.0,-3.8944,-3.9019,-3.9672,-3.9697,-3.9697,-3.9697,-3.9697,-3.9697,-3.9697,-3.9697,-3.9697,-3.9697,-3.9697,-3.9697,-3.9697,-3.9697,-3.9697,-3.9697,0.0,-3.9697,-3.9697,-3.9697,-3.9697,-3.9697,-3.9697,-3.9697,-3.9697,-3.9697,-3.9697,-3.9697,-3.9697,-3.9697,-3.9697,-3.9697,-3.9697,-3.9697,-3.9697,-3.9697,-3.9622,-3.932,-3.9069,-3.8718,-3.809,-3.7563,-3.7111,-3.6832,-3.6581,-3.6405,-3.6405,-3.6107,-3.583,-3.5533,-3.5006,-3.4374,-3.3571,-3.3445,-3.3345,-3.3162,-3.2792,-3.229,-3.1411,-3.0909,-3.0507,-3.0181,-2.8913,-2.8347,-2.8988,-2.8466,-2.8386,-2.9028,-2.9546,-2.9804,-2.9804,-2.9804,-2.9804,-2.9804,-2.9804,-2.9482,-2.8846,-2.9482,-2.891,-2.7238,-2.8988,-2.7988,-3.7814,-3.8894,-3.9672,-3.9597,-3.912,-3.8065,-3.5784,-3.4424,-3.2767,-2.993,0.0,-2.7419,-2.6273,-2.7494,-2.9252,-3.0909,0.0,-3.616,-3.8442,-3.8869,-3.8944,-3.902,-3.902,-3.902,-3.902,-3.902,-3.917,-3.9672,-3.9697,-3.9697,-3.9697,-3.9697,-3.9697,-3.9697,-3.9697,-3.9697,-3.9697,-3.9697,-3.9697,-3.9697,-3.9697,-3.9697,-3.9697,-3.9697,-3.9697,-3.9697,-3.9697,0.0,-3.9697,-3.9697,-3.9697,-3.9697,-3.9697,-3.9697,-3.9697,-3.9697,-3.9697,-3.9697,-3.9697,-3.9697,-3.9697,-3.9697,-3.9697,-3.9697,-3.9697,-3.9697,-3.9697,-3.9697,-3.9346,-3.902,-3.8944,-3.814,-3.7362,-3.7211,-3.681,-3.6505,-3.643,-3.6405,-3.6207,-3.5608,-3.5508,-3.5182,-3.4198,-3.3947,-3.3746,-3.3269,-3.3162,-3.2893,-3.239,-3.1461,-3.0809,-3.0733,-2.9133,-2.8113,-2.8203,-2.8082,-2.7995,-2.8084,-2.9145,-2.9804,-2.9804,-2.9804,-2.9804,-2.9804,-2.9663,-2.9663,-2.9804,-2.9663,-2.8988,-2.7924,-2.9067,-2.7787,-3.8466,-3.9195,-3.9597,-3.912,-3.8241,-3.6885,-3.4675,-3.2968,0.0,0.0,-2.6549,-2.5561,-2.3973,-2.5812,-2.8122,-2.9804,-3.2767,0.0,0.0,0.0,-3.9044,0.0,0.0,0.0,0.0,0.0,0.0,0.0,0.0,-3.9697,-3.9697,-3.9697,-3.9697,-3.9697,-3.9697,-3.9697,-3.9697,-3.9697,-3.9697,-3.9697,-3.9697,-3.9697,-3.9697,-3.9697,-3.9697,-3.9697,-3.9697,0.0,-3.9697,-3.9697,-3.9697,-3.9697,-3.9697,-3.9697,-3.9697,-3.9697,-3.9697,-3.9697,-3.9697,-3.9697,-3.9697,-3.9697,-3.9697,-3.9697,-3.9697,-3.9697,-3.9697,-3.9697,-3.9622,-3.9446,-3.9045,-3.8718,-3.8391,-3.7412,-3.7111,-3.6958,-3.6505,-3.6405,-3.6207,-3.5608,-3.5508,-3.5282,-3.47,-3.4198,-3.3872,-3.3771,-3.337,-3.3043,-3.2943,-3.234,-3.1763,-3.1311,-2.9272,-2.8153,-2.8733,-2.7861,-2.7511,-2.8068,-2.9145,-2.9804,-2.9804,-2.9804,-2.9804,-2.9804,-2.8846,-2.8846,-2.9804,-2.8846,-2.7827,-2.6789,-2.7907,-2.6603,-3.8994,-3.9496,-3.9572,-3.9019,-3.8015,-3.6383,-3.3294,0.0,0.0,0.0,-2.428,-2.3552,-2.2472,-2.433,0.0,-2.8222,-3.0783,0.0,0.0,0.0,0.0,0.0,0.0,0.0,0.0,0.0,0.0,0.0,0.0,-3.9697,-3.9697,-3.9697,-3.9697,-3.9697,-3.9697,-3.9697,-3.9697,-3.9697,-3.9697,-3.9697,-3.9697,-3.9697,-3.9697,-3.9697,-3.9697,-3.9697,-3.9697,0.0,-3.9697,-3.9697,-3.9697,-3.9697,-3.9697,-3.9697,-3.9697,-3.9697,-3.9697,-3.9697,-3.9697,-3.9697,-3.9697,-3.9697,-3.9697,-3.9697,-3.9697,-3.9697,-3.9697,-3.9697,-3.9697,-3.9647,-3.9371,-3.9094,-3.8793,-3.8191,-3.7613,-3.7036,-3.6531,-3.6405,-3.6329,-3.6006,-3.5981,-3.5805,-3.5207,-3.4881,-3.455,-3.3997,-3.3671,-3.3395,-3.3162,-3.2842,-3.2441,-3.1888,-2.9479,-2.8044,-2.8349,-2.7279,-2.6715,-2.7032,-2.8474,-2.9285,-2.9285,-2.9056,-2.8949,-2.8949,-2.7827,-2.7545,-2.8091,-2.8108,-2.7238,-2.5672,-2.7319,-2.6315,-3.922,-3.9597,-3.9521,-3.8843,-3.7739,-3.5855,-3.2089,-2.9754,0.0,0.0,-2.2393,-2.182,-2.1421,0.0,-2.4908,0.0,-2.8875,-3.142,0.0,0.0,0.0,0.0,0.0,0.0,0.0,0.0,0.0,0.0,0.0,0.0,-3.9697,-3.9697,-3.9697,-3.9697,-3.9697,-3.9697,-3.9697,-3.9697,-3.9697,-3.9697,-3.9697,-3.9697,-3.9697,-3.9697,-3.9697,-3.9697,-3.9697,0.0,0.0,-3.9697,-3.9697,-3.9697,-3.9697,-3.9697,-3.9697,-3.9697,-3.9697,-3.9697,-3.9697,-3.9697,-3.9697,-3.9697,-3.9697,-3.9697,-3.9697,-3.9697,-3.9697,-3.9697,-3.9697,-3.9697,-3.9697,-3.9371,-3.9019,-3.8944,-3.8015,-3.7061,-3.6681,-3.648,-3.6405,-3.6405,-3.6405,-3.6279,-3.578,-3.5583,-3.5207,-3.4374,-3.4048,-3.3746,-3.3319,-3.3144,-3.2893,-3.2441,-2.9879,-2.8208,-2.8096,-2.6969,-2.6163,-2.6124,-2.7644,-2.8579,-2.8579,-2.8222,-2.8011,-2.8011,-2.687,-2.639,-2.664,-2.7121,-2.6479,-2.483,-2.6562,-2.5859,-3.8642,-3.932,-3.9446,-3.8341,-3.6885,-3.4781,-3.1461,0.0,-2.5896,-2.2975,-2.1543,-2.0842,-2.0767,-2.1719,0.0,0.0,0.0,-3.0392,0.0,0.0,0.0,0.0,0.0,0.0,0.0,0.0,0.0,0.0,0.0,0.0,-3.9697,-3.9697,-3.9697,-3.9697,-3.9697,-3.9697,-3.9697,-3.9697,-3.9697,-3.9697,-3.9697,-3.9697,-3.9697,-3.9697,-3.9697,-3.9697,-3.9697,0.0,0.0,-3.9697,-3.9697,-3.9697,-3.9697,-3.9697,-3.9697,-3.9697,-3.9697,-3.9697,-3.9697,-3.9697,-3.9697,-3.9697,-3.9697,-3.9697,-3.9697,-3.9697,-3.9697,-3.9697,-3.9697,-3.9697,-3.9697,-3.9647,-3.9496,-3.9045,-3.8015,-3.7161,-3.7111,-3.6757,-3.6405,-3.6405,-3.6405,-3.638,-3.6355,-3.5881,-3.5458,-3.5357,-3.455,-3.3872,-3.3822,-3.3395,-3.3068,-3.2993,-3.0749,-2.9104,-2.8746,-2.7441,-2.6497,-2.6145,-2.7173,-2.7806,-2.7806,-2.7762,-2.7739,-2.7739,-2.6238,-2.6023,-2.7048,-2.5741,-2.4999,-2.4787,-2.4999,-2.4382,-3.7563,-3.8266,-3.8492,-3.7713,-3.6282,-3.4129,-3.0884,0.0,-2.5159,-2.2397,-2.0916,-2.0289,-2.0641,-2.1043,-2.225,-2.5034,-2.5737,-2.7318,-3.121,0.0,0.0,0.0,0.0,0.0,0.0,0.0,0.0,0.0,0.0,0.0,-3.9697,-3.9697,-3.9697,-3.9697,-3.9697,-3.9697,-3.9697,-3.9697,-3.9697,-3.9697,-3.9697,-3.9697,-3.9697,-3.9697,-3.9697,-3.9697,-3.9697,0.0,0.0,-3.9697,-3.9697,-3.9697,-3.9697,-3.9697,-3.9697,-3.9697,-3.9697,-3.9697,-3.9697,-3.9697,-3.9697,-3.9697,-3.9697,-3.9697,-3.9697,-3.9697,-3.9697,-3.9697,-3.9697,-3.9697,-3.9697,-3.9697,-3.9546,-3.9045,-3.8567,-3.8064,-3.7337,-3.701,-3.6807,-3.648,-3.6405,-3.6405,-3.6405,-3.6182,-3.5931,-3.5533,-3.5132,-3.465,-3.3972,-3.3696,-3.3445,-3.3119,-3.1557,-3.0145,-2.9218,-2.7982,-2.6868,-2.5906,-2.6622,-2.7115,-2.7115,-2.6858,-2.7106,-2.7786,-2.5826,-2.5386,-2.6627,-2.5908,-2.5251,-2.4585,-2.4962,-2.4577,-3.6558,-3.7236,-3.7437,-3.7036,-3.5579,-3.342,0.0,-2.7369,-2.4632,-2.202,-2.0589,-1.9936,-2.0365,-2.0591,-2.1446,-2.3703,-2.418,-2.5485,-2.9026,-3.0608,0.0,0.0,0.0,0.0,0.0,0.0,0.0,0.0,0.0,0.0,-3.9697,-3.9697,-3.9697,-3.9697,-3.9697,-3.9697,-3.9697,-3.9697,-3.9697,-3.9697,-3.9697,-3.9697,-3.9697,-3.9697,-3.9697,-3.9697,-3.9697,0.0,0.0,-3.9697,-3.9697,-3.9697,-3.9697,-3.9697,-3.9697,-3.9697,-3.9697,-3.9697,-3.9697,-3.9697,-3.9697,-3.9697,-3.9697,-3.9697,-3.9697,-3.9697,-3.9697,-3.9697,-3.9697,-3.9697,-3.9697,-3.9697,-3.9597,-3.922,-3.9045,-3.8693,-3.7864,-3.7412,-3.7061,-3.6732,-3.6531,-3.6405,-3.6405,-3.6405,-3.6279,-3.5855,-3.5608,-3.5232,-3.4474,-3.4248,-3.3922,-3.337,-3.2528,-3.13,-2.9555,-2.8262,-2.7078,-2.5771,-2.6127,-2.6584,-2.6956,-2.6321,-2.6729,-2.8321,-2.5874,-2.5237,-2.6472,-2.585,-2.5174,-2.4414,-2.4896,-2.471,-3.5805,-3.6408,-3.643,-3.6405,-3.4771,-3.2365,-2.954,-2.6781,-2.4173,-2.1945,-2.0589,-1.9811,-1.9811,-2.0314,-2.1069,-2.2146,-2.3697,-2.5753,-2.8512,-3.0357,0.0,0.0,0.0,0.0,0.0,0.0,0.0,0.0,0.0,0.0,-3.9697,-3.9697,-3.9697,-3.9697,-3.9697,-3.9697,-3.9697,-3.9697,-3.9697,-3.9697,-3.9697,-3.9697,-3.9697,-3.9697,-3.9697,0.0,0.0,0.0,0.0,-3.9697,-3.9697,-3.9697,-3.9697,-3.9697,-3.9697,-3.9697,-3.9697,-3.9697,-3.9697,-3.9697,-3.9697,-3.9697,-3.9697,-3.9697,-3.9697,-3.9697,-3.9697,-3.9697,-3.9697,-3.9697,-3.9697,-3.9697,-3.9697,-3.9697,-3.927,-3.8919,-3.8894,-3.7965,-3.7186,-3.7186,-3.6782,-3.6405,-3.6405,-3.6405,-3.6405,-3.6405,-3.5881,-3.5483,-3.5483,-3.5006,-3.45,-3.3947,-3.3897,-3.265,-2.9624,-2.8262,-2.7078,-2.5771,-2.5723,-2.6284,-2.7531,-2.638,-2.6867,-2.935,-2.6557,-2.5698,-2.6886,-2.5211,-2.4414,-2.4414,-2.4414,-2.4414,-3.2164,-3.2968,-3.3445,-3.3043,-3.1888,-3.0306,-2.8273,-2.5963,-2.3728,-2.187,-2.0589,-1.9811,-1.9811,-1.9962,-2.0815,-2.31,-2.3904,-2.5209,0.0,0.0,0.0,0.0,0.0,0.0,0.0,0.0,0.0,0.0,0.0,0.0,-3.9697,-3.9697,-3.9697,-3.9697,-3.9697,-3.9697,-3.9697,-3.9697,-3.9697,-3.9697,-3.9697,-3.9697,-3.9697,-3.9697,-3.9697,0.0,0.0,0.0,0.0,-3.9697,-3.9697,-3.9697,-3.9697,-3.9697,-3.9697,-3.9697,-3.9697,-3.9697,-3.9697,-3.9697,-3.9697,-3.9697,-3.9697,-3.9697,-3.9697,-3.9697,-3.9697,-3.9697,-3.9697,-3.9697,-3.9697,-3.9697,-3.9697,-3.9697,-3.9572,-3.932,-3.8994,-3.8642,-3.8115,-3.7337,-3.7036,-3.6857,-3.648,-3.6405,-3.6405,-3.6405,-3.6254,-3.5981,-3.5533,-3.5332,-3.4686,-3.3225,-3.3884,-3.3085,-2.9715,-2.905,-2.7934,-2.582,-2.5693,-2.6304,-2.7552,-2.638,-2.7247,-3.0598,-2.8111,-2.7394,-2.8624,-2.7247,-2.5987,-2.4863,-2.4863,-2.4707,-2.9854,-3.0783,-3.126,-3.1135,-3.0105,-2.8725,-2.7017,-2.5109,-2.3201,-2.1546,-2.0439,-1.9811,-1.9811,-1.9987,-2.0765,-2.2723,-2.3577,0.0,0.0,0.0,0.0,0.0,0.0,0.0,0.0,0.0,0.0,0.0,0.0,0.0,-3.9697,-3.9697,-3.9697,-3.9697,-3.9697,-3.9697,-3.9697,-3.9697,-3.9697,-3.9697,-3.9697,-3.9697,-3.9697,-3.9697,-3.9697,0.0,0.0,0.0,0.0,-3.9697,-3.9697,-3.9697,-3.9697,-3.9697,-3.9697,-3.9697,-3.9697,-3.9697,-3.9697,-3.9697,-3.9697,-3.9697,-3.9697,-3.9697,-3.9697,-3.9697,-3.9697,-3.9697,-3.9697,-3.9697,-3.9697,-3.9697,-3.9697,-3.9697,-3.9697,-3.9597,-3.9245,-3.9019,-3.8718,-3.7965,-3.7487,-3.7086,-3.6782,-3.6556,-3.6405,-3.6405,-3.6405,-3.6279,-3.5906,-3.5409,-3.4576,-3.3149,-3.3756,-3.2884,-2.9459,-2.9498,-2.8549,-2.5888,-2.5693,-2.6304,-2.7552,-2.6839,-2.7934,-3.1134,-2.928,-2.8634,-2.9396,-2.772,-2.6335,-2.5312,-2.5312,-2.5176,0.0,-2.9377,-2.9603,-3.008,-2.9001,-2.7394,-2.5787,-2.418,0.0,-2.1018,-2.0239,-1.9836,-1.9962,-2.039,-2.0943,-2.1669,-2.31,0.0,0.0,-2.8624,0.0,0.0,0.0,0.0,0.0,0.0,0.0,0.0,0.0,0.0,-3.9697,-3.9697,-3.9697,-3.9697,-3.9697,-3.9697,-3.9697,-3.9697,-3.9697,-3.9697,-3.9697,-3.9697,-3.9697,-3.9697,-3.9697,0.0,0.0,0.0,0.0,-3.9697,-3.9697,-3.9697,-3.9697,-3.9697,-3.9697,-3.9697,-3.9697,-3.9697,-3.9697,-3.9697,-3.9697,-3.9697,-3.9697,-3.9697,-3.9697,-3.9697,-3.9697,-3.9697,-3.9697,-3.9697,-3.9697,-3.9697,-3.9697,-3.9697,-3.9697,-3.9697,-3.9697,-3.9295,-3.8969,-3.8919,-3.8064,-3.7287,-3.7186,-3.6807,-3.6455,-3.6405,-3.6405,-3.6405,-3.6405,-3.5331,-3.4244,-3.348,-3.3577,-3.2333,-2.9027,-2.9659,-2.8964,-2.5947,-2.5732,-2.6324,-2.7552,-2.76,-2.8727,-3.1178,-3.0079,-2.951,-2.9396,-2.6982,-2.5791,-2.5693,-2.5693,-2.5693,-2.3853,0.0,-2.6515,-2.6205,-2.5561,-2.4732,0.0,-2.2749,-2.1644,-2.0867,-2.0239,-2.0188,-2.1493,-2.1142,-2.1571,-2.4205,0.0,0.0,0.0,0.0,0.0,0.0,0.0,0.0,0.0,0.0,0.0,0.0,0.0,-3.9697,-3.9697,-3.9697,-3.9697,-3.9697,-3.9697,-3.9697,-3.9697,-3.9697,-3.9697,-3.9697,-3.9697,-3.9697,-3.9697,-3.9697,-3.9697,0.0,0.0,0.0,-3.9697,-3.9697,-3.9697,-3.9697,-3.9697,-3.9697,-3.9697,-3.9697,-3.9697,-3.9697,-3.9697,-3.9697,-3.9697,-3.9697,-3.9697,-3.9697,-3.9697,-3.9697,-3.9697,-3.9697,-3.9697,-3.9697,-3.9697,-3.9697,-3.9697,-3.9697,-3.9697,-3.9697,-3.9697,-3.9597,-3.9371,-3.8994,-3.8668,-3.8191,-3.7337,-3.7086,-3.6883,-3.648,-3.6405,-3.6405,-3.6405,-3.6121,-3.5065,-3.2822,-3.4462,-3.3595,-2.8378,-2.9691,-2.9461,-2.6448,-2.623,-2.6643,-2.7552,-2.76,-2.8727,-3.1178,-3.0911,-3.0305,-2.9396,-2.7908,-2.6668,-2.5693,-2.5693,-2.5693,-2.192,-2.3728,-2.5536,-2.5234,-2.4782,-2.423,-2.3622,-2.2272,-2.0968,-2.0415,-2.0012,-2.0162,-2.1343,-2.1295,0.0,0.0,-2.5285,0.0,0.0,0.0,0.0,0.0,0.0,0.0,0.0,0.0,0.0,0.0,0.0,-3.9697,-3.9697,-3.9697,-3.9697,-3.9697,-3.9697,-3.9697,-3.9697,-3.9697,-3.9697,-3.9697,-3.9697,-3.9697,-3.9697,-3.9697,-3.9697,0.0,0.0,0.0,-3.9697,-3.9697,-3.9697,-3.9697,-3.9697,-3.9697,-3.9697,-3.9697,-3.9697,-3.9697,-3.9697,-3.9697,-3.9697,-3.9697,-3.9697,-3.9697,-3.9697,-3.9697,-3.9697,-3.9697,-3.9697,-3.9697,-3.9697,-3.9697,-3.9697,-3.9697,-3.9697,-3.9697,-3.9697,-3.9697,-3.9597,-3.9295,-3.9095,-3.8668,-3.8114,-3.7739,-3.7462,-3.7161,-3.691,-3.6782,-3.6782,-3.6031,-3.4654,-3.2532,-3.4191,-3.3435,-2.8423,-3.0176,-3.0175,-2.685,-2.668,-2.6863,-2.7325,-2.819,-2.9503,-3.1178,-3.1223,-3.0305,-2.8588,-2.7908,-2.6935,-2.5693,-2.5693,-2.5693,-2.1543,-2.3502,-2.541,-2.5159,-2.4883,-2.4531,-2.3879,-2.225,-2.0691,-2.0162,-2.0062,-2.0313,0.0,-2.1647,0.0,0.0,0.0,0.0,0.0,0.0,0.0,0.0,0.0,0.0,0.0,0.0,0.0,0.0,0.0,-3.9697,-3.9697,-3.9697,-3.9697,-3.9697,-3.9697,-3.9697,-3.9697,-3.9697,-3.9697,-3.9697,-3.9697,-3.9697,-3.9697,-3.9697,-3.9697,-3.9697,0.0,0.0,-3.9697,-3.9697,-3.9697,-3.9697,-3.9697,-3.9697,-3.9697,-3.9697,-3.9697,-3.9697,-3.9697,-3.9697,-3.9697,-3.9697,-3.9697,-3.9697,-3.9697,-3.9697,-3.9697,-3.9697,-3.9697,-3.9697,-3.9697,-3.9697,-3.9697,-3.9697,-3.9697,-3.9697,-3.9697,-3.9697,-3.9697,-3.9697,-3.932,-3.902,-3.8894,-3.8467,-3.8115,-3.8015,-3.7613,-3.7312,-3.7312,-3.5868,-3.4284,-3.2896,-3.3918,-3.3055,-2.8953,-3.0876,-3.0838,-2.74,-2.7148,-2.7224,-2.7602,-2.9225,-3.0558,-3.1416,-3.1389,-3.0102,-2.7683,-2.762,-2.6935,-2.5693,-2.5693,-2.5693,-2.1794,-2.3527,-2.4575,-2.3175,-2.3477,-2.3853,-2.2799,-2.1945,-2.1343,-2.1242,-2.1217,0.0,0.0,-2.3879,-2.4456,0.0,0.0,-3.0884,0.0,0.0,0.0,0.0,0.0,0.0,0.0,0.0,0.0,0.0,0.0,-3.9697,-3.9697,-3.9697,-3.9697,-3.9697,-3.9697,-3.9697,-3.9697,-3.9697,-3.9697,-3.9697,-3.9697,-3.9697,-3.9697,-3.9697,-3.9697,-3.9697,0.0,-3.9697,-3.9697,-3.9697,-3.9697,-3.9697,-3.9697,-3.9697,-3.9697,-3.9697,-3.9697,-3.9697,-3.9697,-3.9697,-3.9697,-3.9697,-3.9697,-3.9697,-3.9697,-3.9697,-3.9697,-3.9697,-3.9697,-3.9697,-3.9697,-3.9697,-3.9697,-3.9697,-3.9697,-3.9697,-3.9697,-3.9697,-3.9697,-3.9697,-3.9622,-3.9421,-3.8994,-3.8844,-3.8567,-3.809,-3.7939,-3.7889,-3.7889,-3.7241,-3.6235,-3.4904,-3.5575,-3.4435,-3.0307,-3.1418,-3.1119,-2.8265,-2.7773,-2.8442,-3.0219,-3.0615,-3.1312,-3.2462,-3.2126,-3.0697,-2.8118,-2.7767,-2.6935,-2.5693,-2.5693,-2.5693,-2.074,-2.2368,-2.3697,-2.292,-2.428,-2.5561,-2.4764,-2.3904,-2.3276,-2.3276,-2.3276,0.0,0.0,0.0,-2.6666,-2.9428,0.0,-3.3043,0.0,0.0,0.0,0.0,0.0,0.0,0.0,0.0,0.0,0.0,0.0,0.0,-3.9697,-3.9697,-3.9697,-3.9697,-3.9697,-3.9697,-3.9697,-3.9697,-3.9697,-3.9697,-3.9697,-3.9697,-3.9697,-3.9697,-3.9697,-3.9697,0.0,-3.9697,-3.9697,-3.9697,-3.9697,-3.9697,-3.9697,-3.9697,-3.9697,-3.9697,-3.9697,-3.9697,-3.9697,-3.9697,-3.9697,-3.9697,-3.9697,-3.9697,-3.9697,-3.9697,-3.9697,-3.9697,-3.9697,-3.9697,-3.9697,-3.9697,-3.9697,-3.9697,-3.9697,-3.9697,-3.9697,-3.9697,-3.9697,-3.9697,-3.9697,-3.9622,-3.9346,-3.932,-3.922,-3.8969,-3.8668,-3.8467,-3.8467,-3.799,-3.7097,-3.5803,-3.6358,-3.516,-3.1104,-3.1673,-3.1184,-2.8441,-2.8105,-2.8661,-3.007,-3.0147,-3.0264,-3.0585,-3.1079,-3.0109,-2.7532,-2.8028,-2.7603,-2.6376,-2.6376,-2.6376,-2.069,-2.1917,-2.317,-2.3421,-2.5134,-2.6691,-2.67,-2.5812,-2.5109,-2.5477,-2.5452,0.0,0.0,-2.7318,0.0,-3.121,-3.3093,-3.4675,-3.5734,0.0,0.0,0.0,0.0,0.0,0.0,0.0,0.0,0.0,0.0,0.0,-3.9697,-3.9697,-3.9697,-3.9697,-3.9697,-3.9697,-3.9697,-3.9697,-3.9697,-3.9697,-3.9697,-3.9697,-3.9697,-3.9697,-3.9697,-3.9697,-3.9697,-3.9697,-3.9697,-3.9697,-3.9697,-3.9697,-3.9697,-3.9697,-3.9697,-3.9697,-3.9697,-3.9697,-3.9697,-3.9697,-3.9697,-3.9697,-3.9697,-3.9697,-3.9697,-3.9697,-3.9697,-3.9697,-3.9697,-3.9697,-3.9697,-3.9697,-3.9697,-3.9697,-3.9697,-3.9697,-3.9697,-3.9697,-3.9697,-3.9697,-3.9697,-3.9697,-3.9697,-3.9697,-3.9697,-3.9697,-3.932,-3.912,-3.912,-3.8567,-3.7842,-3.6785,-3.7072,-3.5814,-3.1897,-3.1753,-3.0824,-2.8441,-2.8301,-2.8707,-2.965,-2.968,-2.9534,-2.9157,-3.0024,-2.9409,-2.7168,-2.7975,-2.7885,-2.7012,-2.7012,-2.7012,-2.3276,-2.3396,-2.3346,-2.4399,-2.4825,-2.5385,-2.6892,-2.6339,-2.5988,-2.7544,-2.7469,-2.7268,0.0,-2.9654,-3.1336,-3.2039,-3.3953,0.0,0.0,0.0,0.0,0.0,0.0,0.0,0.0,0.0,0.0,0.0,0.0,0.0,-3.9697,-3.9697,-3.9697,-3.9697,-3.9697,-3.9697,-3.9697,-3.9697,-3.9697,-3.9697,-3.9697,-3.9697,-3.9697,-3.9697,-3.9697,-3.9697,-3.9697,-3.9697,-3.9697,-3.9697,-3.9697,-3.9697,-3.9697,-3.9697,-3.9697,-3.9697,-3.9697,-3.9697,-3.9697,-3.9697,-3.9697,-3.9697,-3.9697,-3.9697,-3.9697,-3.9697,-3.9697,-3.9697,-3.9697,-3.9697,-3.9697,-3.9697,-3.9697,-3.9697,-3.9697,-3.9697,-3.9697,-3.9697,-3.9697,-3.9697,-3.9697,-3.9697,-3.9697,-3.9697,-3.9697,-3.9697,-3.9672,-3.9647,-3.9647,-3.9145,-3.8793,-3.8692,-3.8241,-3.66,-3.3344,-3.1465,-2.9807,-2.8388,-2.8301,-2.888,-3.0161,-3.0213,-3.0244,-3.0171,-2.9905,-2.9054,-2.7669,-2.731,-2.7063,-2.7012,-2.7012,-2.7012,-2.2156,-2.2422,-2.2794,-2.4404,-2.5586,-2.6615,-2.757,-2.8524,-2.9478,-3.0457,-3.0507,-3.0306,0.0,0.0,-3.2215,-3.3119,0.0,0.0,0.0,0.0,0.0,0.0,0.0,0.0,0.0,0.0,0.0,0.0,0.0,0.0,-3.9697,-3.9697,-3.9697,-3.9697,-3.9697,-3.9697,-3.9697,-3.9697,-3.9697,-3.9697,-3.9697,-3.9697,-3.9697,-3.9697,-3.9697,-3.9697,-3.9697,-3.9697,-3.9697,-3.9697,-3.9697,-3.9697,-3.9697,-3.9697,-3.9697,-3.9697,-3.9697,-3.9697,-3.9697,-3.9697,-3.9697,-3.9697,-3.9697,-3.9697,-3.9697,-3.9697,-3.9697,-3.9697,-3.9697,-3.9697,-3.9697,-3.9697,-3.9697,-3.9697,-3.9697,-3.9697,-3.9697,-3.9697,-3.9697,-3.9697,-3.9697,-3.9697,-3.9697,-3.9697,-3.9697,-3.9697,-3.9697,-3.9697,-3.9697,-3.9521,-3.9371,-3.9371,-3.8107,-3.6509,-3.4591,-3.217,-3.0412,-2.9565,-2.8741,-2.8548,-2.9059,-2.9059,-2.9059,-2.9059,-2.8898,-2.8555,-2.8047,-2.7891,-2.7812,-2.7812,-2.7812,-2.7812,-2.1316,-2.1572,-2.2359,-2.3928,-2.533,-2.6651,-2.7962,-2.9905,-3.1514,-3.2006,-3.197,-3.1801,-3.1655,0.0,0.0,0.0,0.0,0.0,0.0,0.0,0.0,0.0,0.0,0.0,0.0,0.0,0.0,0.0,0.0,0.0,0.0,-3.917,-3.917,-3.917,-3.917,-3.9245,-3.9421,-3.9421,-3.9521,-3.9697,-3.9697,-3.9697,-3.9697,-3.9697,-3.9697,-3.9697,-3.9697,-3.9697,-3.9697,-3.9697,-3.9697,-3.9697,-3.9697,-3.9697,-3.9697,-3.9697,-3.9697,-3.9697,-3.9697,-3.9697,-3.9697,-3.9697,-3.9697,-3.9697,-3.9697,-3.9697,-3.9697,-3.9697,-3.9697,-3.9697,-3.9697,-3.9697,-3.9697,-3.9697,-3.9697,-3.9697,-3.9697,-3.9697,-3.9697,-3.9697,-3.9697,-3.9697,-3.9697,-3.9697,-3.9697,-3.9697,-3.9697,-3.9697,-3.9697,-3.9697,-3.9697,-3.9697,-3.8352,-3.6973,-3.5821,-3.364,-3.2058,-3.1266,-3.0203,-2.9197,-2.8354,-2.8301,-2.8301,-2.8301,-2.8301,-2.8301,-2.8301,-2.8301,-2.8301,-2.8301,-2.8301,-2.8301,-2.1344,-2.1227,-2.2107,-2.3063,-2.38,-2.4995,-2.7953,-3.0048,-3.1489,-3.1833,-3.1445,-3.1277,-3.2062,-3.3144,0.0,-3.3897,0.0,0.0,0.0,0.0,0.0,0.0,0.0,0.0,0.0,0.0,0.0,0.0,0.0,0.0,0.0,-3.8015,-3.8015,-3.8015,-3.8015,-3.8291,-3.8919,-3.8919,-3.9145,-3.9672,-3.9697,-3.9697,-3.9697,-3.9697,-3.9697,-3.9697,-3.9697,-3.9697,-3.9697,-3.9697,-3.9697,-3.9697,-3.9697,-3.9697,-3.9697,-3.9697,-3.9697,-3.9697,-3.9697,-3.9697,-3.9697,-3.9697,-3.9697,-3.9697,-3.9697,-3.9697,-3.9697,-3.9697,-3.9697,-3.9697,-3.9697,-3.9697,-3.9697,-3.9697,-3.9697,-3.9697,-3.9697,-3.9697,-3.9697,-3.9697,-3.9697,-3.9697,-3.9697,-3.9697,-3.9697,-3.9697,-3.9697,-3.9697,-3.9697,-3.9697,-3.9697,-3.9697,-3.9195,-3.8311,-3.6952,-3.5819,-3.4621,-3.3298,-3.2622,-3.1133,-2.8441,-2.8301,-2.8281,-2.8301,-2.8301,-2.8301,-2.8301,-2.8301,-2.8301,-2.8301,-2.8301,-2.8301,-2.0452,-2.044,-2.1397,-2.3988,-2.5538,-2.7043,-2.9699,-3.1113,-3.237,-3.4068,-3.3987,-3.3578,-3.3408,-3.3671,0.0,-3.4424,0.0,0.0,0.0,0.0,0.0,0.0,0.0,0.0,0.0,0.0,0.0,0.0,0.0,0.0,0.0,-3.8015,-3.8015,-3.8015,-3.8015,-3.809,-3.8266,-3.8266,-3.8341,-3.8517,-3.8919,-3.932,-3.9697,-3.9697,-3.9697,-3.9697,-3.9697,-3.9697,-3.9697,-3.9697,-3.9697,-3.9697,-3.9697,-3.9697,-3.9697,-3.9697,-3.9697,-3.9697,-3.9697,-3.9697,-3.9697,-3.9697,-3.9697,-3.9697,-3.9697,-3.9697,-3.9697,-3.9697,-3.9697,-3.9697,-3.9697,-3.9697,-3.9697,-3.9697,-3.9697,-3.9697,-3.9697,-3.9697,-3.9697,-3.9697,-3.9697,-3.9697,-3.9697,-3.9697,-3.9697,-3.9697,-3.9697,-3.9697,-3.9697,-3.9697,-3.9697,-3.9697,-3.9546,-3.9117,-3.8336,-3.71,-3.5999,-3.5235,-3.3754,-3.1943,-2.9828,-2.9723,-2.925,-2.8301,-2.8301,-2.8301,-2.8301,-2.8301,-2.8301,-2.8301,-2.8301,-2.8301,-2.0071,-2.0292,-2.1424,-2.4311,-2.5458,-2.6823,-3.0445,-3.16,-3.2441,0.0,-3.4615,-3.4262,-3.451,-3.455,0.0,0.0,0.0,0.0,0.0,0.0,0.0,0.0,0.0,0.0,0.0,0.0,0.0,0.0,0.0,0.0,0.0,-3.7362,-3.7362,-3.7362,-3.7362,-3.7462,-3.7688,-3.7688,-3.7789,-3.8015,-3.8366,-3.8693,-3.9044,-3.9496,-3.9697,-3.9697,-3.9697,-3.9697,-3.9697,-3.9697,-3.9697,-3.9697,-3.9697,-3.9697,-3.9697,-3.9697,-3.9697,-3.9697,-3.9697,-3.9697,-3.9697,-3.9697,-3.9697,-3.9697,-3.9697,-3.9697,-3.9697,-3.9697,-3.9697,-3.9697,-3.9697,-3.9697,-3.9697,-3.9697,-3.9697,-3.9697,-3.9697,-3.9697,-3.9697,-3.9697,-3.9697,-3.9697,-3.9697,-3.9697,-3.9697,-3.9697,-3.9697,-3.9697,-3.9697,-3.9697,-3.9697,-3.9697,-3.9697,-3.9572,-3.922,-3.8231,-3.7526,-3.7185,-3.5893,-3.4073,-3.1798,-3.083,-2.9911,-2.9112,-2.8548,-2.8301,-2.8301,-2.8301,-2.8301,-2.8301,-2.8301,-2.8301,-1.9905,-2.0474,-2.1837,-2.422,-2.4547,-2.5502,-3.0405,-3.1538,-3.2139,-3.4169,0.0,-3.4125,-3.5372,-3.5583,0.0,0.0,0.0,0.0,0.0,0.0,0.0,0.0,0.0,0.0,0.0,0.0,0.0,0.0,0.0,0.0,0.0,-3.6405,-3.6405,-3.6405,-3.6405,-3.6656,-3.7111,-3.7111,-3.7362,-3.7864,-3.7914,-3.7939,-3.7965,-3.9094,-3.9647,-3.9697,-3.9697,-3.9697,-3.9697,-3.9697,-3.9697,-3.9697,-3.9697,-3.9697,-3.9697,-3.9697,-3.9697,-3.9697,-3.9697,-3.9697,-3.9697,-3.9697,-3.9697,-3.9697,-3.9697,-3.9697,-3.9697,-3.9697,-3.9697,-3.9697,-3.9697,-3.9697,-3.9697,-3.9697,-3.9697,-3.9697,-3.9697,-3.9697,-3.9697,-3.9697,-3.9697,-3.9697,-3.9697,-3.9697,-3.9697,-3.9697,-3.9594,-3.9517,-3.9517,-3.9517,-3.9517,-3.9517,-3.9645,-3.9697,-3.9697,-3.922,-3.8944,-3.8767,-3.8191,-3.6664,-3.3982,-3.1789,-3.0485,-3.0183,-2.896,-2.834,-2.8301,-2.8301,-2.8301,-2.8301,-2.8301,-2.8301,-1.8566,-1.9285,-2.0986,-2.4179,-2.6326,-2.8167,-2.9756,-3.1155,-3.2868,-3.5426,-3.5879,-3.5874,-3.6135,-3.6182,0.0,0.0,0.0,0.0,0.0,0.0,0.0,0.0,0.0,0.0,0.0,0.0,0.0,0.0,0.0,0.0,-3.6405,-3.6405,-3.6405,-3.6405,-3.6405,-3.6455,-3.6581,-3.6581,-3.6656,0.0,-3.7161,-3.7362,-3.7387,-3.8517,-3.927,-3.9697,-3.9697,-3.9697,-3.9697,-3.9697,-3.9697,-3.9697,-3.9697,-3.9697,-3.9697,-3.9697,-3.9697,-3.9697,-3.9697,-3.9697,-3.9697,-3.9697,-3.9697,-3.9697,-3.9697,-3.9697,-3.9697,-3.9697,-3.9697,-3.9697,-3.9697,-3.9697,-3.9697,-3.9697,-3.9697,-3.9697,-3.9697,-3.9697,-3.9697,-3.9697,-3.9697,-3.9697,-3.9697,-3.9697,-3.9697,-3.9697,-3.8687,-3.7954,-3.7954,-3.7954,-3.7954,-3.7954,-3.9025,-3.9697,-3.9697,-3.9597,-3.9007,-3.7839,-3.728,-3.619,-3.437,-3.3493,-3.1848,-2.9257,-2.8932,-2.8633,-2.8301,-2.8301,-2.8301,-2.8301,-2.8301,-2.8301,-1.8596,-1.9707,-2.1312,-2.4513,-2.6513,-2.8023,-2.9387,-3.0917,-3.2659,-3.4969,-3.5953,-3.6405,-3.6405,0.0,0.0,0.0,0.0,0.0,0.0,0.0,0.0,0.0,0.0,0.0,0.0,0.0,0.0,0.0,0.0,-3.6405,-3.6405,-3.6405,-3.6405,-3.6405,-3.6405,-3.6405,-3.6405,-3.6405,-3.6405,-3.6405,-3.6707,-3.6935,-3.7236,-3.8366,-3.9019,-3.932,-3.9572,-3.9697,-3.9697,-3.9697,-3.9697,-3.9697,-3.9697,-3.9697,-3.9697,-3.9697,-3.9697,-3.9697,-3.9697,-3.9697,-3.9697,-3.9697,-3.9697,-3.9697,-3.9697,-3.9697,-3.9697,-3.9697,-3.9697,-3.9697,-3.9697,-3.9697,-3.9697,-3.9697,-3.9697,-3.9697,-3.9697,-3.9697,-3.9697,-3.9697,-3.9697,-3.9697,-3.9697,-3.9697,-3.9697,-3.9697,-3.8453,-3.753,-3.753,-3.6865,-3.6433,-3.6433,-3.7767,-3.8372,-3.766,-3.8243,-3.8031,-3.6541,-3.6844,-3.6094,-3.3845,-3.4282,-3.3149,-3.0241,-2.9549,-2.9121,-2.8906,-2.8906,-2.8906,-2.8906,-2.8906,-2.8906,-1.8652,-2.0294,-2.199,-2.4855,-2.5957,0.0,-2.9069,-3.0612,-3.2056,-3.3763,-3.5353,-3.6405,0.0,0.0,0.0,0.0,0.0,0.0,0.0,0.0,0.0,0.0,0.0,0.0,0.0,0.0,0.0,0.0,0.0,-3.6405,-3.6405,-3.6405,-3.6405,-3.6405,-3.6405,-3.6405,-3.6405,-3.6405,-3.6405,-3.6405,-3.6405,-3.6656,-3.7086,-3.8115,-3.8743,-3.8944,-3.9346,-3.9597,-3.9697,-3.9697,-3.9697,-3.9697,-3.9697,-3.9697,-3.9697,-3.9697,-3.9697,-3.9697,-3.9697,-3.9697,-3.9697,-3.9697,-3.9697,-3.9697,-3.9697,-3.9697,-3.9697,-3.9697,-3.9697,-3.9697,-3.9697,-3.9697,-3.9697,-3.9697,-3.9697,-3.9697,-3.9697,-3.9697,-3.9697,-3.9697,-3.9697,-3.9697,-3.9697,-3.9697,-3.9697,-3.9697,-3.8243,-3.7133,-3.7133,-3.5836,-3.4902,-3.4902,-3.6217,-3.6703,-3.5781,-3.6541,-3.6595,-3.5398,-3.6217,-3.554,-3.2794,-3.3923,-3.359,-3.1526,-3.0302,-2.9648,-2.9626,-2.9626,-2.9626,-2.9626,-2.9626,-2.9626,-1.6804,-1.9434,-2.2344,-2.459,-2.5488,-2.6379,0.0,0.0,-3.1394,0.0,-3.486,0.0,0.0,0.0,0.0,0.0,0.0,0.0,0.0,0.0,0.0,0.0,0.0,0.0,0.0,0.0,0.0,0.0,-3.6405,-3.6405,-3.6405,-3.6405,-3.6405,-3.6405,-3.6405,-3.6405,-3.6405,-3.6405,-3.6405,-3.6405,-3.6405,-3.6455,-3.6531,-3.7184,-3.7989,-3.8919,-3.8994,-3.9245,-3.9697,-3.9697,-3.9697,-3.9697,-3.9697,-3.9697,-3.9697,-3.9697,-3.9697,-3.9697,-3.9697,-3.9697,-3.9697,-3.9697,-3.9697,-3.9697,-3.9697,-3.9697,-3.9697,-3.9697,-3.9697,-3.9697,-3.9697,-3.9697,-3.9697,-3.9697,-3.9697,-3.9697,-3.9697,-3.9697,-3.9697,-3.9697,-3.9697,-3.9697,-3.9697,-3.9697,-3.9697,-3.9697,-3.737,-3.5563,-3.5563,-3.4292,-3.3417,-3.3417,-3.4736,-3.6054,-3.7079,-3.6217,-3.5508,-3.5288,-3.4292,-3.2907,-3.1286,-3.1383,-3.1323,-3.0993,-3.0427,-2.9941,-2.9626,-2.9626,-2.9626,-2.9626,-2.9626,-2.9626,-1.7779,-2.0156,-2.2402,-2.4578,-2.5215,-2.5731,-2.7221,-2.8565,-2.9939,-3.1451,0.0,0.0,0.0,0.0,0.0,0.0,0.0,0.0,0.0,0.0,0.0,0.0,0.0,0.0,0.0,0.0,0.0,0.0,-3.6405,-3.6405,-3.6405,-3.6405,-3.6405,-3.6405,-3.6405,-3.6405,-3.6405,-3.6405,-3.6405,-3.6405,-3.6405,-3.6405,-3.6405,-3.6656,-3.7209,-3.7965,-3.8642,-3.9019,-3.927,-3.9572,-3.9697,-3.9697,-3.9697,-3.9697,-3.9697,-3.9697,-3.9697,-3.9697,-3.9697,-3.9697,-3.9697,-3.9697,-3.9697,-3.9697,-3.9697,-3.9697,-3.9697,-3.9697,-3.9697,-3.9697,-3.9697,-3.9697,-3.9697,-3.9697,-3.9697,-3.9697,-3.9697,-3.9697,-3.9697,-3.9697,-3.9697,-3.9697,-3.9697,-3.9697,-3.9697,-3.9697,-3.7873,-3.6217,-3.5398,-3.4013,-3.2794,-3.1977,-3.3191,-3.4013,-3.381,-3.3957,-3.3698,-3.2871,-3.2964,-3.2416,-3.0957,-3.171,-3.171,-3.0898,-3.0684,-3.0488,-3.0312,-3.0312,-3.0312,-3.0312,-3.0312,-3.0312,-1.813,-1.9902,-2.1309,-2.3717,-2.4414,-2.4805,0.0,0.0,-2.8578,0.0,0.0,0.0,0.0,0.0,0.0,0.0,0.0,0.0,0.0,0.0,0.0,0.0,0.0,0.0,0.0,0.0,0.0,0.0,-3.6157,-3.6254,-3.6405,-3.6405,-3.6405,-3.6405,-3.6405,-3.6405,-3.6405,-3.6405,-3.6405,-3.6405,-3.6405,-3.6405,-3.6405,-3.6405,-3.6631,-3.7036,-3.8064,-3.8617,-3.8944,-3.932,-3.9572,-3.9697,-3.9697,-3.9697,-3.9697,-3.9697,-3.9697,-3.9697,-3.9697,-3.9697,-3.9697,-3.9697,-3.9697,-3.9697,-3.9697,-3.9697,-3.9697,-3.9697,-3.9697,-3.9697,-3.9697,-3.9697,-3.9697,-3.9697,-3.9697,-3.9697,-3.9697,-3.9697,-3.9697,-3.9697,-3.9697,-3.9697,-3.9697,-3.9697,-3.9697,-3.9697,-3.8453,-3.6972,-3.5508,-3.4348,-3.2985,-3.1112,-3.2207,-3.2644,-3.1556,-3.2092,-3.2264,-3.1498,-3.215,-3.2035,-3.0957,-3.1977,-3.2035,-3.0937,-3.0898,-3.0898,-3.0898,-3.0898,-3.0898,-3.0898,-3.0898,-3.0898,-1.6258,-1.7246,-1.8374,-2.1309,-2.2656,-2.3413,0.0,0.0,0.0,0.0,0.0,0.0,0.0,0.0,0.0,0.0,0.0,0.0,0.0,0.0,0.0,0.0,0.0,0.0,0.0,0.0,0.0,0.0,-3.5533,-3.5805,-3.638,-3.6405,-3.6405,-3.6405,-3.6405,-3.6405,-3.6405,-3.6405,-3.6405,-3.6405,-3.6405,-3.6405,-3.6405,-3.6405,-3.643,-3.648,-3.701,-3.7889,-3.8919,-3.8944,-3.922,-3.9697,-3.9697,-3.9697,-3.9697,-3.9697,-3.9697,-3.9697,-3.9697,-3.9697,-3.9697,-3.9697,-3.9697,-3.9697,-3.9697,-3.9697,-3.9697,-3.9697,-3.9697,-3.9697,-3.9697,-3.9697,-3.9697,-3.9697,-3.9697,-3.9697,-3.9697,-3.9697,-3.9697,-3.9697,-3.9697,-3.9697,-3.9697,-3.9697,-3.9697,-3.9697,-3.8453,-3.6972,-3.5508,-3.5233,-3.409,-3.1228,-3.2207,-3.3077,-3.2964,-3.1767,-3.1614,-3.2907,-3.1767,-3.0995,-3.0898,-3.0937,-3.0995,-3.0898,-3.0898,-3.0898,-3.0898,-3.0898,-3.0898,-3.0898,-3.0898,-3.0898,-1.5498,0.0,0.0,-2.0078,-2.1484,-2.2559,-2.3354,-2.4578,0.0,0.0,0.0,0.0,0.0,0.0,0.0,0.0,0.0,0.0,0.0,0.0,0.0,0.0,0.0,0.0,0.0,0.0,0.0,0.0,0.0,-3.5102,-3.5303,-3.5655,-3.583,-3.583,-3.6182,-3.6405,-3.6405,-3.6405,-3.6405,-3.6405,-3.6405,-3.6405,-3.6405,-3.6405,-3.6405,-3.6405,-3.6606,-3.7287,-3.8341,-3.8718,-3.9195,-3.9697,-3.9697,-3.9697,-3.9697,-3.9697,-3.9697,-3.9697,-3.9697,-3.9697,-3.9697,-3.9697,-3.9697,-3.9697,-3.9697,-3.9697,-3.9697,-3.9697,-3.9697,-3.9772,-4.0124,-4.0224,-4.03,-4.0676,-4.0752,-4.0752,-4.0752,-4.0199,-3.9697,-3.9697,-3.9697,-3.9697,-3.9697,-3.9697,-3.9697,-3.9697,-3.8453,-3.7293,-3.6757,-3.589,-3.4515,-3.253,-3.2794,-3.2701,-3.1767,-3.1228,-3.1112,-3.1652,-3.117,-3.0898,-3.0898,-3.0898,-3.0898,-3.0898,-3.0898,-3.0898,-3.0898,-3.0898,-3.0898,-3.0898,-3.0898,-3.0898,-1.4582,-1.5625,0.0,0.0,0.0,-2.1035,-2.2711,0.0,0.0,0.0,0.0,0.0,0.0,0.0,0.0,0.0,0.0,0.0,0.0,0.0,0.0,0.0,0.0,0.0,0.0,0.0,0.0,0.0,0.0,0.0,-3.468,-3.5031,-3.5307,-3.5483,-3.5906,-3.6182,-3.6405,-3.6405,-3.6405,-3.6405,-3.6405,-3.6405,-3.6405,-3.6405,-3.6405,-3.6405,-3.6405,-3.6933,-3.7789,-3.8341,-3.8919,-3.9446,-3.9622,-3.9697,-3.9697,-3.9697,-3.9697,-3.9697,-3.9697,-3.9697,-3.9697,-3.9697,-3.9697,-3.9697,-3.9697,-3.9697,-3.9697,-3.9697,-3.9823,-4.0049,-4.0425,-4.0651,-4.0824,-4.12,-4.1275,-4.1275,-4.1275,-4.0301,-3.9622,-4.012,-3.978,-3.9622,-4.012,-4.0249,-4.0249,-4.0249,-3.9238,-3.835,-3.7846,-3.7197,-3.5999,-3.4069,-3.3845,-3.3247,-3.1767,-3.117,-3.0898,-3.0898,-3.0898,-3.0898,-3.0898,-3.0898,-3.0898,-3.0898,-3.0898,-3.0898,-3.0898,-3.0898,-3.0898,-3.0898,-3.0898,-3.0898,0.0,0.0,0.0,0.0,0.0,0.0,-2.2165,0.0,0.0,0.0,0.0,0.0,0.0,0.0,0.0,0.0,0.0,0.0,0.0,0.0,0.0,0.0,0.0,0.0,0.0,0.0,0.0,0.0,-3.3872,-3.4098,-3.4605,-3.47,-3.4906,-3.5458,-3.5483,-3.578,-3.638,-3.638,-3.638,-3.6405,-3.6405,-3.6405,-3.6405,-3.6405,-3.6405,-3.6405,-3.6405,-3.6707,-3.7211,-3.7764,-3.8341,-3.8919,-3.9471,-3.9697,-3.9697,-3.9697,-3.9697,-3.9697,-3.9697,-3.9697,-3.9697,-3.9697,-3.9697,-3.9697,-3.9697,-3.9697,-3.9697,-3.9722,-4.0099,-4.0526,-4.0551,-4.0978,-4.1326,-4.1326,-4.1326,-4.1326,-4.1326,-4.0111,-3.9402,-4.0927,-4.0007,-3.9465,-4.0981,-4.1275,-4.1275,-4.1275,-4.0824,-3.9947,-3.8557,-3.916,-3.8554,-3.5717,-3.5388,-3.4725,-3.3289,-3.1787,-3.0918,-3.0918,-3.0898,-3.0898,-3.0898,-3.0898,-3.0898,-3.0898,-3.0898,-3.0898,-3.0898,-3.0898,-3.0898,-3.0898,-3.0898,-3.0898,-1.3594,0.0,0.0,0.0,0.0,0.0,0.0,0.0,0.0,0.0,0.0,0.0,0.0,0.0,0.0,0.0,0.0,0.0,0.0,0.0,0.0,0.0,0.0,0.0,0.0,0.0,0.0,0.0,-3.3294,-3.337,-3.352,-3.3897,-3.4374,-3.4881,-3.4906,-3.5182,-3.5755,-3.578,-3.5981,-3.6405,-3.6405,-3.6405,-3.6405,-3.6405,-3.6405,-3.6405,-3.6405,-3.6505,-3.6707,-3.7613,-3.8341,-3.8919,-3.9471,-3.9697,-3.9697,-3.9697,-3.9697,-3.9697,-3.9697,-3.9697,-3.9697,-3.9697,-3.9697,-3.9697,-3.9697,-3.9697,-3.9772,-4.0174,-4.04,-4.0701,-4.1505,-4.2108,-4.2534,-4.2534,-4.2534,-4.2534,-4.2534,-4.1289,-4.004,-3.9633,-4.0117,-4.0414,-3.9709,-4.0523,-4.1275,-4.1275,-3.9947,-3.9296,-4.0306,-3.9433,-3.8515,-3.8107,-3.7018,-3.5716,-3.4218,-3.2411,-3.1348,-3.1348,-3.1055,-3.0898,-3.0898,-3.0898,-3.0898,-3.0898,-3.0898,-3.0898,-3.0898,-3.0898,-3.0898,-3.0898,-3.0898,-3.0898,-1.4258,-1.4696,0.0,0.0,0.0,0.0,0.0,-1.8398,0.0,0.0,0.0,0.0,0.0,0.0,0.0,0.0,0.0,0.0,0.0,0.0,0.0,0.0,0.0,0.0,0.0,-3.3111,-3.3111,-3.3111,-3.3111,-3.3111,-3.3111,-3.2909,-3.3242,-3.4304,-3.4374,-3.4705,-3.5483,-3.5508,-3.5805,-3.6405,-3.6405,-3.6405,-3.6405,-3.6405,-3.6405,-3.6405,-3.6405,-3.6405,-3.648,-3.7563,-3.8216,-3.8592,-3.9396,-3.9697,-3.9697,-3.9697,-3.9697,-3.9697,-3.9697,-3.9697,-3.9697,-3.9697,-3.9697,-3.9697,-3.9697,-3.9697,-3.9798,-4.035,-4.0852,-4.1404,-4.2313,-4.2791,-4.2986,-4.2986,-4.2986,-4.2986,-4.2986,-4.2263,-4.1193,-3.984,-4.0386,-4.0498,-3.8904,-3.9914,-4.1022,-4.1022,-3.9816,-3.9575,-4.1468,-4.0454,-3.9667,-3.9959,-3.805,-3.6343,-3.5475,-3.3008,-3.1523,-3.1523,-3.1133,-3.0898,-3.0898,-3.0898,-3.0898,-3.0898,-3.0898,-3.0898,-3.0898,-3.0898,-3.0898,-3.0898,-3.0898,-3.0898,-1.541,-1.5694,0.0,0.0,0.0,0.0,-1.9177,-1.8535,-1.8066,0.0,0.0,0.0,0.0,0.0,0.0,0.0,0.0,0.0,0.0,0.0,0.0,0.0,0.0,0.0,-3.2968,-3.2993,-3.3061,-3.3111,-3.3111,-3.3025,-3.2896,-3.1952,-3.2083,-3.3551,-3.3753,-3.4299,-3.5307,-3.5382,-3.573,-3.6329,-3.638,-3.6405,-3.6405,-3.6405,-3.6405,-3.6405,-3.6405,-3.6405,-3.648,-3.7563,-3.8015,-3.8115,-3.9245,-3.9697,-3.9697,-3.9697,-3.9697,-3.9697,-3.9697,-3.9697,-3.9697,-3.9697,-3.9697,-3.9697,-3.9697,-3.9697,-3.9823,-4.0425,-4.1354,-4.2338,-4.2836,-4.2986,-4.2986,-4.2986,-4.2986,-4.2986,-4.2986,-4.2986,-4.2488,-4.0904,-4.0592,-4.0187,-3.8698,-3.9639,-4.065,-4.0822,-4.0392,-4.0587,-4.2123,-4.1781,-4.1401,-4.1451,-3.8742,-3.6844,-3.6844,-3.3641,-3.1582,-3.1582,-3.1152,-3.0898,-3.0898,-3.0898,-3.0898,-3.0898,-3.0898,-3.0898,-3.0898,-3.0898,-3.0898,-3.0898,-3.0898,-3.0898,-1.7031,-1.7246,-1.7422,-1.6574,0.0,0.0,0.0,-1.6122,-1.6999,0.0,0.0,0.0,0.0,0.0,0.0,0.0,0.0,0.0,0.0,0.0,0.0,0.0,0.0,0.0,-3.234,-3.239,-3.2566,-3.3043,-3.3111,-3.2655,-3.1645,-3.2326,-3.2419,-3.1745,-3.2717,-3.3545,-3.4223,-3.463,-3.5107,-3.5658,-3.6157,-3.6405,-3.6405,-3.6405,-3.6405,-3.6405,-3.6405,-3.6405,-3.648,-3.7563,-3.8015,-3.8115,-3.9245,-3.9697,-3.9697,-3.9697,-3.9697,-3.9697,-3.9697,-3.9697,-3.9697,-3.9697,-3.9697,-3.9697,-3.9697,-3.9697,-3.9898,-4.0902,-4.1656,-4.2338,-4.2836,-4.2986,-4.2986,-4.2986,-4.2986,-4.2986,-4.2986,-4.2986,-4.2488,-4.0904,-4.0592,-4.0476,-4.0187,-4.0419,-4.1019,-4.2319,-4.2096,-4.2008,-4.276,-4.2333,-4.2158,-4.261,-3.9823,-3.7932,-3.7932,-3.4341,-3.2051,-3.2051,-3.1328,-3.0898,-3.0898,-3.0898,-3.0898,-3.0898,-3.0898,-3.0898,-3.0898,-3.0898,-3.0898,-3.0898,-3.0898,-3.0898,-1.8242,-1.832,-1.8496,-1.7866,0.0,0.0,0.0,0.0,0.0,0.0,0.0,0.0,0.0,0.0,0.0,0.0,0.0,0.0,0.0,0.0,0.0,0.0,0.0,0.0,-3.1763,-3.1813,-3.2039,-3.2591,-3.2352,-3.2152,-3.2152,-3.1601,-3.1512,-3.2152,-3.2152,-3.2728,-3.3897,-3.4449,-3.4956,-3.5508,-3.6107,-3.6405,-3.6405,-3.6405,-3.6405,-3.6405,-3.6405,-3.6405,-3.648,-3.7563,-3.8015,-3.8115,-3.9245,-3.9697,-3.9697,-3.9697,-3.9697,-3.9697,-3.9697,-3.9697,-3.9697,-3.9697,-3.9697,-3.9697,-3.9697,-3.9898,-4.0275,-4.105,-4.1731,-4.2338,-4.2836,-4.2986,-4.2986,-4.2986,-4.2986,-4.2986,-4.2986,-4.2986,-4.2737,-4.1955,-4.0476,-3.917,-3.832,-3.8201,-3.8498,-3.9265,-3.9894,-4.0592,-4.168,-4.2264,-4.2615,-4.2615,-3.981,-3.7753,-3.7506,-3.3992,-3.1836,-3.1836,-3.125,-3.0898,-3.0898,-3.0898,-3.0898,-3.0898,-3.0898,-3.0898,-3.0898,-3.0898,-3.0898,-3.0898,-3.0898,-3.0898,0.0,0.0,0.0,0.0,0.0,-1.772,0.0,0.0,0.0,0.0,0.0,0.0,0.0,0.0,0.0,0.0,0.0,0.0,0.0,0.0,0.0,0.0,0.0,0.0,0.0,-3.0984,-3.1235,-3.1989,-3.1254,-3.1283,-3.2524,-3.0903,-3.0817,-3.2655,-3.1952,-3.2259,-3.3746,-3.4399,-3.4906,-3.5357,-3.6056,-3.6405,-3.6405,-3.6405,-3.6405,-3.6405,-3.6405,-3.6405,-3.648,-3.7563,-3.8015,-3.8115,-3.9245,-3.9697,-3.9697,-3.9697,-3.9697,-3.9697,-3.9697,-3.9697,-3.9697,-3.9697,-3.9697,-3.9697,-3.9697,-3.9998,-4.0501,-4.11,-4.1656,-4.2213,-4.2811,-4.2986,-4.2986,-4.2986,-4.2986,-4.2986,-4.2986,-4.2986,-4.2986,-4.2986,-4.0419,-3.7865,-3.6881,-3.6213,-3.5928,-3.6234,-3.7363,-3.8698,-3.9954,-4.1248,-4.1872,-4.1386,-3.8838,-3.6875,-3.633,-3.3423,-3.1601,-3.1523,-3.1191,-3.0976,-3.0898,-3.0898,-3.0898,-3.0898,-3.0898,-3.0898,-3.0898,-3.0898,-3.0898,-3.0898,-3.0898,-3.0898,0.0,0.0,0.0,0.0,-2.0019,0.0,0.0,0.0,0.0,0.0,0.0,0.0,0.0,0.0,0.0,0.0,0.0,0.0,0.0,0.0,0.0,0.0,0.0,0.0,0.0,-2.9503,-2.9854,-3.1361,-3.0024,-2.9613,-3.0654,-3.1461,-3.1724,-3.1444,-3.237,-3.2964,-3.3212,-3.4198,-3.4705,-3.4781,-3.5855,-3.6405,-3.6405,-3.6405,-3.6405,-3.6405,-3.6405,-3.6405,-3.648,-3.7563,-3.8015,-3.8115,-3.9245,-3.9697,-3.9697,-3.9697,-3.9697,-3.9697,-3.9697,-3.9697,-3.9697,-3.9697,-3.9697,-3.9697,-3.9697,-3.9747,-3.9998,-4.1,-4.1326,-4.1681,-4.271,-4.2986,-4.2986,-4.2986,-4.2986,-4.2986,-4.2986,-4.2986,-4.2986,-4.2986,-4.0419,-3.858,-3.9814,-3.7723,-3.6295,-3.7723,-3.8104,-3.8283,-3.8461,-3.8639,-3.8576,-3.8192,-3.6544,-3.5304,-3.4816,-3.3155,-3.1934,-3.1543,-3.1465,-3.1269,-3.0898,-3.0898,-3.0898,-3.0898,-3.0898,-3.0898,-3.0898,-3.0898,-3.0898,-3.0898,-3.0898,-3.0898,0.0,0.0,0.0,0.0,0.0,0.0,-1.6914,0.0,-1.6172,0.0,0.0,0.0,0.0,0.0,0.0,0.0,0.0,0.0,0.0,0.0,0.0,0.0,0.0,0.0,0.0,0.0,0.0,0.0,-2.964,-2.9496,-3.0908,-3.1065,-3.1333,-3.1792,-3.1937,-3.2326,-3.3068,-3.4173,-3.468,-3.468,-3.583,-3.6405,-3.6405,-3.6405,-3.6405,-3.6405,-3.6405,-3.6405,-3.648,-3.7563,-3.8015,-3.8115,-3.9245,-3.9697,-3.9697,-3.9697,-3.9697,-3.9697,-3.9697,-3.9697,-3.9697,-3.9697,-3.9697,-3.9697,-3.9697,-3.9923,-4.0325,-4.1075,-4.1555,-4.1982,-4.2785,-4.2986,-4.2986,-4.2986,-4.2986,-4.2986,-4.2986,-4.2986,-4.2737,-4.1785,-3.9756,-3.8104,-3.7843,-3.5928,-3.5273,-3.7805,-3.7445,-3.7122,-3.8104,-3.8223,-3.8044,-3.7551,-3.6979,-3.6016,-3.4543,-3.3871,-3.3054,-3.1974,-3.1894,-3.1816,-3.1641,-3.1641,-3.1641,-3.1641,-3.1387,-3.1387,-3.1621,-3.1133,-3.1016,-3.125,-3.0996,-3.0898,-2.2383,0.0,0.0,0.0,0.0,0.0,0.0,0.0,0.0,0.0,0.0,0.0,0.0,0.0,0.0,0.0,0.0,0.0,0.0,0.0,0.0,0.0,0.0,0.0,0.0,0.0,0.0,0.0,0.0,-2.8762,-3.106,-3.0873,-3.1131,-3.2173,-3.1902,-3.2152,-3.3068,-3.4173,-3.468,-3.468,-3.583,-3.6405,-3.6405,-3.6405,-3.6405,-3.6405,-3.6405,-3.6405,-3.648,-3.7563,-3.8015,-3.8115,-3.9245,-3.9697,-3.9697,-3.9697,-3.9697,-3.9697,-3.9697,-3.9697,-3.9697,-3.9697,-3.9697,-3.9722,-3.9873,-4.0199,-4.0651,-4.1354,-4.1856,-4.2338,-4.2836,-4.2986,-4.2986,-4.2986,-4.2986,-4.2986,-4.2986,-4.2986,-4.2681,-4.1476,-3.9581,-3.8104,-3.7843,-3.5335,-3.4195,-3.6539,-3.5867,-3.556,-3.6721,-3.6902,-3.6669,-3.6194,-3.621,-3.5601,-3.3912,-3.3935,-3.3537,-3.2466,-3.2226,-3.2229,-3.2229,-3.2229,-3.2229,-3.2229,-3.1855,-3.1855,-3.2229,-3.1543,-3.1406,-3.168,-3.1152,-3.0898,0.0,0.0,0.0,-2.0176,0.0,0.0,0.0,0.0,-1.793,0.0,0.0,0.0,0.0,0.0,0.0,0.0,0.0,0.0,0.0,0.0,0.0,0.0,0.0,0.0,0.0,0.0,0.0,0.0,0.0,0.0,-3.0432,-3.1094,-3.1621,-3.219,-3.2724,-3.3068,-3.3111,-3.4173,-3.468,-3.468,-3.583,-3.6405,-3.6405,-3.6405,-3.6405,-3.6405,-3.6405,-3.6405,-3.648,-3.7563,-3.8015,-3.8115,-3.9245,-3.9697,-3.9697,-3.9697,-3.9697,-3.9697,-3.9697,-3.9697,-3.9697,-3.9697,-3.9697,-3.9798,-4.0325,-4.0501,-4.0752,-4.1886,-4.2213,-4.2338,-4.2836,-4.2986,-4.2986,-4.2986,-4.2986,-4.2986,-4.2986,-4.2986,-4.2986,-4.2905,-4.0361,-3.917,-4.2263,-3.7544,-3.3418,-3.3544,-3.3544,-3.3481,-3.3544,-3.3544,-3.3387,-3.3018,-3.2979,-3.274,-3.2329,-3.2662,-3.2835,-3.2773,-3.2402,-3.2229,-3.2229,-3.2229,-3.2229,-3.2229,-3.2209,-3.2148,-3.2229,-3.2148,-3.2129,-3.219,-3.1289,-3.0898,0.0,0.0,-2.4621,-2.207,0.0,0.0,0.0,0.0,0.0,0.0,0.0,0.0,0.0,0.0,0.0,0.0,0.0,0.0,0.0,0.0,0.0,0.0,0.0,0.0,0.0,0.0,0.0,0.0,-2.6189,0.0,0.0,-3.0909,-3.1461,-3.1662,-3.2591,-3.3111,-3.3111,-3.4173,-3.468,-3.468,-3.583,-3.6405,-3.6405,-3.6405,-3.6405,-3.6405,-3.6405,-3.6405,-3.648,-3.7563,-3.8015,-3.8115,-3.9245,-3.9697,-3.9697,-3.9697,-3.9697,-3.9697,-3.9697,-3.9697,-3.9697,-3.9697,-3.9697,-3.9798,-4.035,-4.0777,-4.1204,-4.2011,-4.2464,-4.2791,-4.2936,-4.2986,-4.2986,-4.2986,-4.2986,-4.2986,-4.2986,-4.2986,-4.2681,-4.1615,-4.0534,-3.9464,-3.8439,-3.6396,-3.5683,-3.7843,-3.5458,-3.3776,-3.484,-3.407,-3.3359,-3.3223,-3.4161,-3.4266,-3.3132,-3.3125,-3.3203,-3.3203,-3.3066,-3.3008,-3.3008,-3.3008,-3.3008,-3.3008,-3.2734,-3.2715,-3.2988,-3.2441,-3.2305,-3.2559,-3.2012,-3.1738,-2.5312,-2.5625,0.0,-2.3477,-2.2773,0.0,-1.9668,0.0,0.0,0.0,0.0,0.0,0.0,0.0,0.0,0.0,0.0,0.0,0.0,0.0,0.0,0.0,0.0,0.0,0.0,0.0,-2.3753,-2.6801,-2.5762,0.0,0.0,0.0,-3.0794,-3.1386,-3.1928,-3.25,-3.3068,-3.4173,-3.468,-3.468,-3.583,-3.6405,-3.6405,-3.6405,-3.6405,-3.6405,-3.6405,-3.6531,-3.6782,-3.7638,-3.814,-3.8417,-3.9346,-3.9697,-3.9697,-3.9697,-3.9697,-3.9697,-3.9697,-3.9697,-3.9722,-3.9923,-3.9998,-4.0124,-4.0877,-4.1354,-4.1731,-4.2283,-4.271,-4.2986,-4.2986,-4.2986,-4.2986,-4.2986,-4.2569,-4.2319,-4.2849,-4.2569,-4.2012,-4.1533,-4.1019,-4.0105,-3.8616,-3.6941,-3.6274,-3.7783,-3.5396,-3.3776,-3.4798,-3.4027,-3.3418,-3.3418,-3.432,-3.455,-3.3481,-3.3418,-3.3418,-3.3418,-3.3418,-3.3418,-3.3418,-3.3418,-3.3418,-3.3418,-3.3164,-3.3144,-3.3418,-3.2871,-3.2754,-3.3008,-3.2734,-3.2617]},{"header":{"parameterUnit":"m.s-1","parameterCategory":1,"la1":30.6,"la2":29.2853,"lo1":-89.7004,"lo2":-87.6739,"dy":0.0162,"dx":0.0183,"nx":112,"ny":82,"refTime":"2026-04-04T00:00:00:Z","depth":0,"parameterNumber":3,"parameterNumberName":"V-component_of_WINDS"},"data":[0.0,0.0,0.0,0.0,0.0,0.0,0.0,0.0,0.0,0.0,0.0,0.0,0.0,0.0,0.0,0.0,0.0,0.0,0.0,0.0,0.0,0.0,0.0,0.0,0.0,0.0,0.0,0.0,0.0,0.0,0.0,0.0,0.0,0.0,0.0,0.0,0.0,0.0,0.0,0.0,0.0,0.0,0.0,0.0,0.0,0.0,0.0,0.0,0.0,0.0,0.0,0.0,0.0,0.0,0.0,0.0,0.0,0.0,0.0,0.0,0.0,0.0,0.0,0.0,0.0,0.0,0.0,0.0,0.0,0.0,0.0,0.0,0.0,0.0,0.0,0.0,0.0,0.0,0.0,0.0,0.0,0.0,0.0,0.0,0.0,0.0,0.0,0.0,0.0,0.0,0.0,2.2862,2.5899,2.7794,2.7914,2.7016,2.5319,2.267,0.0,0.0,0.0,0.0,0.0,0.0,0.0,0.0,0.0,0.0,0.0,0.0,0.0,0.0,0.0,0.0,0.0,0.0,0.0,0.0,0.0,0.0,0.0,0.0,0.0,0.0,0.0,0.0,0.0,0.0,0.0,0.0,0.0,0.0,0.0,0.0,0.0,0.0,0.0,0.0,0.0,0.0,0.0,0.0,0.0,0.0,0.0,0.0,0.0,0.0,0.0,0.0,0.0,0.0,0.0,0.0,0.0,0.0,0.0,0.0,0.0,0.0,0.0,0.0,0.0,0.0,0.0,0.0,0.0,0.0,0.0,0.0,0.0,0.0,0.0,0.0,0.0,0.0,0.0,0.0,0.0,0.0,0.0,0.0,0.0,0.0,0.0,0.0,0.0,0.0,0.0,0.0,0.0,0.0,0.0,0.0,0.0,0.0,0.0,0.0,0.0,0.0,0.0,0.0,2.1584,2.7043,2.811,2.8667,2.9262,2.7111,2.5069,2.3507,0.0,0.0,0.0,0.0,0.0,0.0,0.0,0.0,0.0,0.0,0.0,0.0,0.0,0.0,0.0,0.0,0.0,0.0,0.0,0.0,0.0,0.0,0.0,0.0,0.0,0.0,0.0,0.0,0.0,0.0,0.0,0.0,0.0,0.0,0.0,0.0,0.0,0.0,0.0,0.0,0.0,0.0,0.0,0.0,0.0,0.0,0.0,0.0,0.0,0.0,0.0,0.0,0.0,0.0,0.0,0.0,0.0,0.0,0.0,0.0,0.0,0.0,0.0,0.0,0.0,0.0,0.0,0.0,0.0,0.0,0.0,0.0,0.0,0.0,0.0,0.0,0.0,0.0,0.0,0.0,0.0,0.0,0.0,0.0,0.0,0.0,0.0,0.0,0.0,0.0,0.0,0.0,0.0,0.0,0.0,0.0,0.0,0.0,0.0,0.0,0.0,0.0,0.0,2.0734,2.3682,2.8614,2.8816,2.8876,2.9562,2.7141,2.513,2.4055,2.1581,0.0,0.0,0.0,0.0,0.0,0.0,0.0,0.0,0.0,0.0,0.0,0.0,0.0,0.0,0.0,0.0,0.0,0.0,0.0,0.0,0.0,0.0,0.0,0.0,0.0,0.0,0.0,0.0,0.0,0.0,0.0,0.0,0.0,0.0,0.0,0.0,0.0,0.0,0.0,0.0,0.0,0.0,0.0,0.0,0.0,0.0,0.0,0.0,0.0,0.0,0.0,0.0,0.0,0.0,0.0,0.0,0.0,0.0,0.0,0.0,0.0,0.0,0.0,0.0,0.0,0.0,0.0,0.0,0.0,0.0,0.0,0.0,0.0,0.0,0.0,0.0,0.0,0.0,0.0,0.0,0.0,0.0,0.0,0.0,0.0,0.0,0.0,0.0,0.0,0.0,0.0,0.0,0.0,0.0,0.0,0.0,0.0,0.0,0.0,0.0,0.0,0.0,2.3879,2.6009,2.9451,2.9235,2.9026,2.9562,2.6991,2.5025,2.4202,2.1186,0.0,0.0,0.0,0.0,0.0,0.0,0.0,0.0,0.0,0.0,0.0,0.0,0.0,0.0,0.0,0.0,0.0,0.0,0.0,0.0,0.0,0.0,0.0,0.0,0.0,0.0,0.0,0.0,0.0,0.0,0.0,0.0,0.0,0.0,0.0,0.0,0.0,0.0,0.0,0.0,0.0,0.0,0.0,0.0,0.0,0.0,0.0,0.0,0.0,0.0,0.0,0.0,0.0,0.0,0.0,0.0,0.0,0.0,0.0,0.0,0.0,0.0,0.0,0.0,0.0,0.0,0.0,0.0,0.0,0.0,0.0,0.0,0.0,0.0,0.0,0.0,0.0,0.0,0.0,0.0,0.0,0.0,0.0,0.0,0.0,0.0,0.0,0.0,0.0,0.0,0.0,0.0,0.0,0.0,0.0,0.0,0.0,0.0,0.0,0.0,0.0,0.0,2.5214,2.8144,3.0227,2.9894,2.9562,2.9621,2.6572,2.4388,2.3683,2.0576,0.0,0.0,0.0,0.0,0.0,0.0,0.0,0.0,0.0,0.0,0.0,0.0,0.0,0.0,0.0,0.0,0.0,0.0,0.0,0.0,0.0,0.0,0.0,0.0,0.0,0.0,0.0,0.0,0.0,0.0,0.0,0.0,0.0,0.0,0.0,0.0,0.0,0.0,0.0,0.0,0.0,0.0,0.0,0.0,0.0,0.0,0.0,0.0,0.0,0.0,0.0,0.0,0.0,0.0,0.0,0.0,0.0,0.0,0.0,0.0,0.0,0.0,0.0,0.0,0.0,0.0,0.0,0.0,0.0,0.0,0.0,0.0,0.0,0.0,0.0,0.0,0.0,0.0,0.0,0.0,0.0,0.0,0.0,0.0,0.0,0.0,0.0,0.0,0.0,0.0,0.0,0.0,0.0,0.0,0.0,0.0,0.0,0.0,0.0,0.0,0.0,0.0,2.5575,2.834,0.0,2.9953,2.9621,2.9621,2.6901,2.4754,2.367,0.0,0.0,0.0,0.0,0.0,0.0,0.0,0.0,0.0,0.0,0.0,0.0,0.0,0.0,0.0,0.0,0.0,0.0,0.0,0.0,0.0,0.0,0.0,0.0,0.0,0.0,0.0,0.0,0.0,0.0,0.0,0.0,0.0,0.0,0.0,0.0,0.0,0.0,0.0,0.0,0.0,0.0,0.0,0.0,0.0,0.0,0.0,0.0,0.0,0.0,0.0,0.0,0.0,0.0,0.0,0.0,0.0,0.0,0.0,0.0,0.0,0.0,0.0,0.0,0.0,0.0,0.0,0.0,0.0,0.0,0.0,0.0,0.0,0.0,0.0,0.0,0.0,0.0,0.0,0.0,0.0,0.0,0.0,0.0,0.0,0.0,0.0,0.0,0.0,0.0,0.0,0.0,0.0,0.0,0.0,0.0,0.0,0.0,0.0,0.0,0.0,0.0,2.2933,2.6213,2.8903,0.0,3.0253,2.9804,2.9621,2.7141,2.5002,2.3571,0.0,0.0,0.0,0.0,0.0,0.0,0.0,0.0,0.0,0.0,0.0,0.0,0.0,0.0,0.0,0.0,0.0,0.0,0.0,0.0,0.0,0.0,0.0,0.0,0.0,0.0,0.0,0.0,0.0,0.0,0.0,0.0,0.0,0.0,0.0,0.0,0.0,0.0,0.0,0.0,0.0,0.0,0.0,0.0,0.0,0.0,0.0,0.0,0.0,0.0,0.0,0.0,0.0,0.0,0.0,0.0,0.0,0.0,0.0,0.0,0.0,0.0,0.0,0.0,0.0,0.0,0.0,0.0,0.0,0.0,0.0,0.0,0.0,0.0,0.0,0.0,0.0,0.0,0.0,0.0,0.0,0.0,0.0,0.0,0.0,0.0,0.0,0.0,0.0,0.0,0.0,0.0,0.0,0.0,0.0,0.0,0.0,0.0,0.0,0.0,0.0,0.0,2.3709,2.7293,3.0073,3.1361,3.0883,3.0253,2.9651,2.7141,2.4935,0.0,0.0,0.0,0.0,0.0,0.0,0.0,0.0,0.0,0.0,0.0,0.0,0.0,0.0,0.0,0.0,0.0,0.0,0.0,0.0,0.0,0.0,0.0,0.0,0.0,0.0,0.0,0.0,0.0,0.0,0.0,0.0,0.0,0.0,0.0,0.0,0.0,0.0,0.0,0.0,0.0,0.0,0.0,0.0,0.0,0.0,0.0,0.0,0.0,0.0,0.0,0.0,0.0,0.0,0.0,0.0,0.0,0.0,0.0,0.0,0.0,0.0,0.0,0.0,0.0,0.0,0.0,0.0,0.0,0.0,0.0,0.0,0.0,0.0,0.0,0.0,0.0,0.0,0.0,0.0,0.0,0.0,0.0,0.0,0.0,0.0,0.0,0.0,0.0,0.0,0.0,0.0,0.0,0.0,0.0,0.0,0.0,0.0,0.0,0.0,0.0,0.0,0.0,2.3709,2.7293,3.0073,3.1361,3.0883,3.0253,2.9651,2.756,2.5417,2.3335,0.0,0.0,0.0,0.0,0.0,0.0,0.0,0.0,0.0,0.0,0.0,0.0,0.0,0.0,0.0,0.0,0.0,0.0,0.0,0.0,0.0,0.0,0.0,0.0,0.0,0.0,0.0,0.0,0.0,0.0,0.0,0.0,0.0,0.0,0.0,0.0,0.0,0.0,0.0,0.0,0.0,0.0,0.0,0.0,0.0,0.0,0.0,0.0,0.0,0.0,0.0,0.0,0.0,0.0,0.0,0.0,0.0,0.0,0.0,0.0,0.0,0.0,0.0,0.0,0.0,0.0,0.0,0.0,0.0,0.0,0.0,0.0,0.0,0.0,0.0,0.0,0.0,0.0,0.0,0.0,0.0,0.0,0.0,0.0,0.0,0.0,0.0,0.0,0.0,0.0,0.0,0.0,0.0,0.0,0.0,0.0,0.0,0.0,0.0,0.0,0.0,0.0,2.3981,2.7398,3.0073,3.1361,3.1122,3.0552,2.9654,2.8004,2.5922,2.3366,0.0,0.0,0.0,0.0,0.0,0.0,0.0,0.0,0.0,0.0,0.0,0.0,0.0,0.0,0.0,0.0,0.0,0.0,0.0,0.0,0.0,0.0,0.0,0.0,0.0,0.0,0.0,0.0,0.0,0.0,0.0,0.0,0.0,0.0,0.0,0.0,0.0,0.0,0.0,0.0,0.0,0.0,0.0,0.0,0.0,0.0,0.0,0.0,0.0,0.0,0.0,0.0,0.0,0.0,0.0,0.0,0.0,0.0,0.0,0.0,0.0,0.0,0.0,0.0,0.0,0.0,0.0,0.0,0.0,0.0,0.0,0.0,0.0,0.0,0.0,0.0,0.0,0.0,0.0,0.0,0.0,0.0,0.0,0.0,0.0,0.0,0.0,0.0,0.0,0.0,0.0,0.0,0.0,0.0,0.0,0.0,0.0,0.0,0.0,0.0,0.0,0.0,2.4418,2.7636,3.0073,3.1361,3.1511,3.1002,2.9774,2.8453,2.6464,2.355,0.0,0.0,0.0,0.0,0.0,0.0,0.0,0.0,0.0,0.0,0.0,0.0,0.0,0.0,0.0,0.0,0.0,0.0,0.0,0.0,0.0,0.0,0.0,0.0,0.0,0.0,0.0,0.0,0.0,0.0,0.0,0.0,0.0,0.0,0.0,0.0,0.0,0.0,0.0,0.0,0.0,0.0,0.0,0.0,0.0,0.0,0.0,0.0,0.0,0.0,0.0,0.0,0.0,0.0,0.0,0.0,0.0,0.0,0.0,0.0,2.4298,0.0,0.0,0.0,0.0,0.0,0.0,0.0,0.0,0.0,0.0,0.0,0.0,0.0,0.0,0.0,0.0,0.0,0.0,0.0,0.0,0.0,0.0,0.0,0.0,0.0,0.0,0.0,0.0,0.0,0.0,0.0,0.0,0.0,0.0,0.0,0.0,0.0,0.0,0.0,0.0,0.0,2.4442,2.7636,3.0073,3.1361,3.1511,3.1182,3.0372,2.9116,2.7344,2.4845,2.2202,0.0,0.0,0.0,0.0,0.0,0.0,0.0,0.0,0.0,0.0,0.0,0.0,0.0,0.0,0.0,0.0,0.0,0.0,0.0,0.0,0.0,0.0,0.0,0.0,0.0,0.0,0.0,0.0,0.0,0.0,0.0,0.0,0.0,0.0,0.0,0.0,0.0,0.0,0.0,0.0,0.0,0.0,0.0,0.0,0.0,0.0,0.0,0.0,0.0,0.0,0.0,0.0,0.0,0.0,0.0,0.0,0.0,0.0,0.0,0.0,2.6852,0.0,0.0,0.0,0.0,0.0,0.0,0.0,0.0,0.0,0.0,0.0,0.0,0.0,0.0,0.0,0.0,0.0,0.0,0.0,0.0,0.0,0.0,0.0,0.0,0.0,0.0,0.0,0.0,0.0,0.0,0.0,0.0,0.0,0.0,0.0,0.0,0.0,0.0,0.0,0.0,2.4858,2.7765,3.0073,3.1361,3.1511,3.1241,3.0552,2.9325,2.7785,2.5924,2.3508,0.0,0.0,0.0,0.0,0.0,0.0,0.0,0.0,0.0,0.0,0.0,0.0,0.0,0.0,0.0,0.0,0.0,0.0,0.0,0.0,0.0,0.0,0.0,0.0,0.0,0.0,0.0,0.0,0.0,0.0,0.0,0.0,0.0,0.0,0.0,0.0,0.0,0.0,0.0,0.0,0.0,0.0,0.0,0.0,0.0,0.0,0.0,0.0,0.0,0.0,0.0,0.0,0.0,3.3589,3.4555,3.5552,3.6207,3.6836,3.7165,3.3437,3.186,3.176,2.9056,0.0,0.0,0.0,0.0,0.0,0.0,0.0,0.0,0.0,0.0,0.0,0.0,0.0,0.0,0.0,0.0,0.0,0.0,0.0,0.0,0.0,0.0,0.0,0.0,2.8996,2.8889,0.0,0.0,0.0,0.0,0.0,0.0,0.0,0.0,0.0,0.0,0.0,0.0,2.5627,2.8158,3.0193,3.1391,3.1511,3.1271,3.0731,2.9594,2.8368,2.7021,2.4948,2.2868,0.0,0.0,0.0,0.0,0.0,0.0,0.0,0.0,0.0,0.0,0.0,0.0,0.0,0.0,0.0,0.0,0.0,0.0,0.0,0.0,0.0,0.0,0.0,0.0,0.0,0.0,0.0,0.0,0.0,0.0,0.0,0.0,2.1807,2.2373,0.0,0.0,0.0,0.0,0.0,0.0,0.0,0.0,0.0,0.0,0.0,0.0,0.0,3.1927,3.2651,3.5617,3.6965,3.6675,3.9092,3.9994,3.9649,4.0307,4.0666,4.0696,4.0151,0.0,3.4818,3.3272,0.0,0.0,0.0,0.0,0.0,0.0,0.0,0.0,0.0,0.0,0.0,0.0,0.0,0.0,0.0,0.0,0.0,0.0,0.0,0.0,0.0,0.0,3.2188,3.1812,3.193,3.178,0.0,2.7085,2.4201,2.3895,2.2082,0.0,0.0,0.0,0.0,0.0,0.0,0.0,2.7016,2.9116,3.0672,3.1421,3.1511,3.1481,3.1391,3.0702,2.9714,2.8427,2.695,2.5235,2.3224,2.121,0.0,0.0,0.0,0.0,0.0,0.0,0.0,0.0,0.0,0.0,0.0,0.0,0.0,0.0,0.0,0.0,0.0,0.0,0.0,0.0,0.0,0.0,0.0,0.0,0.0,0.0,0.0,0.0,0.0,2.1615,2.369,2.4634,2.5105,2.4901,0.0,0.0,0.0,0.0,0.0,0.0,0.0,0.0,0.0,3.2331,3.4618,3.631,3.7345,3.9145,4.0127,4.0217,4.1743,4.2521,4.2611,4.3269,4.3569,4.3569,4.318,4.1833,3.9672,3.6827,3.4607,3.2676,0.0,0.0,0.0,0.0,2.8622,2.9059,3.1389,3.2046,0.0,3.1688,0.0,0.0,0.0,0.0,0.0,0.0,0.0,0.0,0.0,0.0,3.3463,3.4049,3.4203,3.4113,3.3813,3.1569,2.8936,0.0,2.5974,2.4657,2.1395,0.0,0.0,0.0,0.0,2.6123,2.8423,2.9744,3.0911,3.1929,3.172,3.1511,3.1511,3.0883,3.0133,2.9205,2.7914,2.6447,2.4807,2.3264,2.1849,0.0,0.0,0.0,0.0,0.0,0.0,0.0,0.0,0.0,0.0,0.0,0.0,0.0,0.0,0.0,0.0,0.0,0.0,0.0,0.0,0.0,0.0,0.0,0.0,0.0,0.0,0.0,0.0,2.3733,2.6031,2.7089,2.8164,2.8197,0.0,0.0,0.0,0.0,0.0,0.0,3.2184,3.3714,3.5238,3.6816,3.8858,4.0397,4.1384,4.2043,4.268,4.3159,4.3599,4.4077,4.4586,4.5065,4.5304,4.5274,4.4766,4.4287,4.3499,3.9918,3.7674,3.6294,3.4174,3.2952,3.2418,3.2914,3.3227,3.3715,3.6371,3.7246,3.7105,3.6267,3.51,3.3483,3.063,0.0,0.0,0.0,0.0,3.1014,3.3184,3.4122,3.4741,3.5759,3.5878,3.5759,3.5759,3.4831,3.3036,0.0,2.9502,2.8517,2.4418,0.0,0.0,0.0,0.0,2.8068,3.0101,3.0881,3.1599,3.2407,3.2049,3.169,3.1511,3.1032,3.0432,2.9651,2.8663,2.7435,2.5914,2.4901,2.3631,2.204,0.0,0.0,0.0,0.0,0.0,0.0,0.0,0.0,0.0,0.0,0.0,0.0,0.0,0.0,0.0,0.0,0.0,0.0,0.0,0.0,0.0,0.0,0.0,0.0,0.0,0.0,0.0,0.0,0.0,2.961,3.1722,0.0,0.0,0.0,0.0,3.2914,3.3189,3.4358,3.6909,3.8919,4.033,4.1077,4.3,4.4047,4.4107,4.4766,4.5125,4.5155,4.5185,4.5214,4.5244,4.5274,4.5304,4.5304,4.5244,4.5214,4.4975,4.2282,4.0397,3.914,3.8357,3.7639,3.7127,3.7814,3.8053,3.8267,3.9702,3.9792,3.9379,3.9918,3.7973,3.537,3.5158,3.3722,0.0,0.0,3.468,3.5487,3.6832,3.7191,3.7225,3.7315,3.6866,3.6447,3.6447,3.5878,3.4951,0.0,3.1719,3.0193,2.9352,0.0,2.7854,2.9022,2.9352,3.0133,3.2108,3.2946,3.3125,3.2587,3.2467,3.2168,3.154,3.1481,3.0913,2.9681,2.9562,2.8633,2.6632,2.5285,2.445,2.4153,2.121,0.0,0.0,0.0,0.0,0.0,0.0,0.0,0.0,0.0,0.0,0.0,0.0,0.0,0.0,0.0,0.0,0.0,0.0,0.0,0.0,0.0,0.0,0.0,0.0,0.0,0.0,0.0,0.0,3.2487,3.4779,0.0,3.4827,3.5026,3.5647,3.6596,3.7858,3.9162,4.0546,4.2073,4.303,4.3269,4.4347,4.4945,4.4945,4.5185,4.5514,4.5963,4.5963,4.6172,4.6591,4.6591,4.6591,4.6561,4.6142,4.5963,4.5843,4.4466,4.312,4.1795,4.0726,4.0157,4.0008,4.0217,4.0307,4.0397,4.0876,4.0876,4.0666,4.0457,3.932,3.7943,3.7494,3.6567,3.5848,3.6746,3.6866,3.6926,3.7823,3.7734,3.7404,3.7404,3.7255,3.6956,3.6567,3.6297,3.5878,3.4951,3.3844,3.2437,3.0492,3.0492,3.0612,3.0223,3.0911,3.2018,3.3574,3.3604,3.3574,3.3754,3.3006,3.2378,3.2138,3.1331,3.0492,2.9651,2.9175,2.8248,2.6662,2.5734,2.4785,2.3867,2.2186,2.0501,0.0,0.0,0.0,0.0,0.0,0.0,0.0,0.0,0.0,0.0,0.0,0.0,0.0,0.0,0.0,0.0,0.0,0.0,0.0,0.0,0.0,0.0,0.0,0.0,0.0,0.0,3.3915,3.5299,3.7579,3.8804,3.8237,3.911,3.9918,4.0367,4.1624,4.2671,4.3339,4.4377,4.4975,4.4975,4.5633,4.5963,4.5963,4.5963,4.6202,4.6651,4.6651,4.689,4.7309,4.7309,4.7309,4.7279,4.683,4.6651,4.6591,4.5933,4.5125,4.4157,4.288,4.2147,4.1804,4.1568,4.1244,4.0967,4.1322,4.1594,4.1662,4.1205,4.0606,4.0008,3.9529,3.911,3.8811,3.899,3.8751,3.8452,3.8691,3.8422,3.8093,3.8093,3.7913,3.7614,3.7225,3.6776,3.6357,3.5908,3.528,3.4262,3.2497,3.2736,3.2946,3.2287,3.2766,3.3574,3.4681,3.4442,3.4262,3.4474,3.3694,3.3006,3.2557,3.148,3.0492,2.9651,2.8757,2.7739,2.6632,2.5734,2.4844,2.3947,2.2957,2.1537,1.9568,0.0,0.0,0.0,0.0,0.0,0.0,0.0,0.0,0.0,0.0,0.0,0.0,0.0,0.0,0.0,0.0,0.0,0.0,0.0,0.0,0.0,0.0,0.0,3.0608,3.3939,3.6881,3.8011,4.0149,4.1542,4.1542,4.2111,4.301,4.4257,4.4377,4.4646,4.5304,4.5992,4.6309,4.6309,4.698,4.7309,4.7309,4.7309,4.7309,4.7309,4.7309,4.7309,4.7309,4.7309,4.7309,4.7309,4.7309,4.7309,4.7249,4.6621,4.6309,4.619,4.4855,4.3673,4.2607,4.1959,4.1015,4.0173,4.1253,4.2016,4.244,4.244,4.1991,4.1452,4.1452,4.1422,4.1235,4.0569,4.036,4.021,3.9546,3.9367,3.9337,3.9373,3.8901,3.8422,3.8392,3.7404,3.6537,3.6507,3.5968,3.5519,3.5519,3.4951,3.4741,3.54,3.4951,0.0,3.5429,3.5519,3.525,3.4623,3.4503,3.3994,3.2647,3.1869,3.0913,2.9681,2.8334,2.7285,2.6656,2.5322,2.4634,2.4605,2.3589,2.2531,2.1559,0.0,0.0,0.0,0.0,0.0,0.0,0.0,0.0,0.0,0.0,0.0,0.0,0.0,0.0,0.0,0.0,0.0,0.0,0.0,0.0,0.0,3.2985,3.5385,3.4114,3.7445,4.0278,4.1109,4.3001,4.4227,4.4227,4.4377,4.4646,4.5005,4.5484,4.5801,4.6022,4.6681,4.704,4.704,4.7219,4.7309,4.7309,4.7309,4.7309,4.7309,4.7309,4.7309,4.7309,4.7309,4.7309,4.7309,4.7309,4.7309,4.7309,4.71,4.704,4.689,4.5544,4.484,4.4561,4.4353,4.3791,4.3072,4.2887,4.2902,4.306,4.306,4.2611,4.2141,4.2141,4.1811,4.1173,4.013,3.9528,3.9188,3.8975,3.8568,3.8435,3.9228,3.926,3.899,3.8482,3.8123,3.7584,3.6656,3.6327,3.6058,3.5579,3.534,3.528,3.5489,3.534,0.0,3.5489,3.5519,3.5429,3.525,3.4771,3.4174,3.3305,3.1719,3.0432,2.9651,2.7914,2.6806,2.6602,2.5794,2.5083,2.4605,2.3973,2.3315,0.0,0.0,0.0,0.0,0.0,0.0,0.0,0.0,0.0,0.0,0.0,0.0,0.0,0.0,0.0,0.0,0.0,0.0,0.0,0.0,0.0,0.0,3.6488,3.8967,3.8715,4.0702,4.2641,4.3868,4.5035,4.5843,4.6112,4.6142,4.6142,4.6142,4.6501,4.6741,4.6741,4.71,4.7309,4.7309,4.7309,4.7309,4.7309,4.7309,4.7309,4.7309,4.7309,4.7309,4.7309,4.7309,4.7309,4.7309,4.7309,4.7309,4.7309,4.7309,4.7309,0.0,0.0,0.0,0.0,0.0,4.3929,4.3926,4.3237,4.3316,4.3648,4.3379,4.306,4.2761,4.2761,4.2491,4.2016,4.1067,4.0559,4.0187,3.9554,3.9145,3.8972,3.9324,3.9373,3.932,3.8901,3.8601,3.8093,3.7075,3.6656,0.0,3.5609,3.5519,3.5519,3.5519,3.5519,3.5519,3.5519,3.5519,3.5519,3.5519,3.516,3.4651,3.3994,3.2317,0.0,0.0,0.0,2.6776,2.6183,2.5824,0.0,0.0,0.0,0.0,0.0,0.0,0.0,0.0,2.3883,2.3477,0.0,0.0,0.0,0.0,0.0,0.0,0.0,0.0,0.0,0.0,0.0,0.0,0.0,0.0,0.0,0.0,3.9559,4.2073,4.3439,4.3618,4.4276,4.607,4.6381,4.6681,4.7249,4.7309,4.7309,4.7309,4.7309,4.7309,4.7309,0.0,0.0,0.0,0.0,4.7309,4.7309,4.7309,4.7309,4.7309,4.7309,4.7309,4.7309,4.7309,4.7309,4.7309,4.7309,4.7309,4.7309,4.7309,4.7309,4.7249,4.6681,4.5782,4.4673,4.2963,4.3004,4.3806,4.3139,0.0,0.0,4.3589,4.3349,4.329,4.329,4.329,4.317,4.2494,4.2285,4.1957,4.0718,4.0301,4.0099,3.9642,3.9469,3.9373,3.9373,3.8931,3.8302,3.7644,3.7015,3.6387,3.5729,3.5549,3.5519,3.5519,3.5519,3.5519,3.5519,3.5519,3.5519,3.5519,0.0,0.0,3.4563,3.3335,3.2288,3.154,2.9175,2.7255,2.6004,2.6004,2.6033,2.5944,2.6474,2.7279,2.8391,2.9011,2.9962,3.1125,2.7114,2.6319,0.0,0.0,0.0,0.0,0.0,0.0,0.0,0.0,0.0,0.0,0.0,0.0,0.0,0.0,0.0,3.92,4.1504,4.3559,4.5442,4.5711,4.5861,4.6219,4.68,4.716,4.7309,4.7309,4.7309,4.7309,4.7309,4.7309,4.7309,4.7309,4.7309,4.7309,4.7309,4.7309,4.7309,4.7309,4.7309,4.7309,0.0,0.0,4.7309,4.7309,4.7309,4.7309,4.7309,4.7309,4.7309,4.7309,4.7309,4.7309,4.716,4.697,4.6664,4.5766,4.5572,4.5654,4.5013,4.4571,4.4287,4.4167,4.3738,4.329,4.329,4.329,0.0,4.2047,4.1436,4.1011,4.0659,3.9818,3.9302,4.0033,3.9798,3.9373,3.9373,3.932,3.902,3.8332,3.7674,3.7015,3.6417,3.5848,3.5519,3.5519,3.5519,3.5519,3.5519,3.5519,3.5519,3.5519,3.5519,3.522,3.4563,3.3754,3.2796,3.157,3.0073,2.8873,2.8038,2.8517,2.8577,2.8038,2.8478,2.8656,2.8412,2.9479,3.0453,3.1262,3.0334,3.0108,0.0,0.0,0.0,0.0,0.0,0.0,0.0,0.0,0.0,0.0,0.0,3.3215,3.5519,0.0,3.92,4.1504,4.324,4.4796,4.61,4.6621,4.68,4.68,4.71,4.7309,4.7309,4.7309,4.7309,4.7309,4.7309,4.7309,4.7309,4.7309,4.7309,4.7309,4.7309,4.7309,4.7309,4.7309,4.7309,4.7309,4.7309,4.7309,4.7309,4.7309,4.7309,4.7309,4.7309,4.7309,4.7309,4.7309,4.7309,4.7309,4.7309,4.7309,4.7279,4.692,4.68,4.6711,4.6052,4.5603,4.5214,4.4526,4.4077,4.3738,4.3379,4.329,4.317,4.2589,4.2273,4.1949,4.1586,4.1067,4.0566,4.0435,4.0157,3.9828,3.9463,3.9373,3.92,3.8512,3.8123,3.7584,3.6656,3.6207,3.5878,3.5549,3.5519,3.5519,3.5519,3.5519,3.5519,3.5519,3.5519,3.537,3.5011,3.4382,3.3425,3.2079,3.142,3.0612,2.9594,2.9864,2.9744,2.9116,2.9346,2.9802,3.0494,3.1092,3.2105,3.344,3.3409,3.3017,0.0,0.0,0.0,0.0,0.0,0.0,0.0,0.0,3.1688,3.4292,3.5459,3.669,3.8816,4.0247,4.1713,4.3379,4.4706,4.5723,4.6411,4.698,4.7309,4.7309,4.7309,4.7309,4.7309,4.7309,4.7309,4.7309,4.7309,4.7309,4.7309,4.7309,4.7309,4.7309,4.7309,4.7309,4.7309,4.7309,4.7309,4.7309,4.7309,4.7309,4.7309,4.7309,4.7309,4.7309,4.7309,4.7309,4.7309,4.7309,4.7309,4.7309,4.7309,4.7309,4.7309,4.7309,4.7309,4.7219,4.6711,4.6399,4.61,4.5065,4.4526,4.4227,4.3648,4.3379,4.329,4.329,4.329,4.317,4.2671,4.25,4.2141,4.1025,4.0576,4.0247,3.9738,3.9499,3.926,3.8691,3.8482,3.8063,3.7045,3.6656,3.6267,3.5609,3.5519,3.5519,3.5519,3.5519,3.5519,3.5519,3.5519,3.5519,3.5519,3.4891,3.4054,3.2976,3.2766,3.2228,3.112,3.1091,3.0851,3.037,3.0508,3.137,3.2997,3.3276,3.4235,3.5845,3.5993,3.5329,3.0821,2.9714,2.9624,3.0673,3.0642,3.1509,0.0,0.0,3.6447,3.908,4.0643,4.1602,4.1901,4.3,4.4137,4.4945,4.5723,4.6441,4.71,4.7249,4.7309,4.7309,4.7309,4.7309,4.7309,4.7309,4.7309,4.7309,4.7309,4.7309,4.7309,4.7309,4.7309,4.7309,4.7309,4.7309,4.7309,4.7309,4.7309,4.7309,4.7309,4.7309,4.7309,4.7309,4.7309,4.7309,4.7309,4.7309,4.7309,4.7309,4.7309,4.7309,4.7309,4.7309,4.7309,4.7309,4.7309,4.7309,4.7219,4.68,4.6249,4.6142,4.5274,4.4317,4.4227,4.3768,4.329,4.329,4.329,4.326,4.32,4.2791,4.2351,4.2201,4.1302,4.0367,4.0307,3.9828,3.9409,3.932,3.8811,3.8332,3.8212,3.7225,3.6267,3.5609,3.5519,3.5519,3.5519,3.5519,3.5519,3.5519,3.5519,3.5519,3.5519,3.4891,3.4444,3.4294,3.3694,3.3305,3.3155,3.3155,3.3125,3.3066,3.3779,3.4242,3.4447,3.5726,3.6429,3.6679,3.7321,3.7212,3.4292,3.3814,3.3814,3.4711,3.534,3.6267,3.8482,3.917,3.9858,4.1713,4.2851,4.3599,4.3988,4.4855,4.5574,0.0,4.6441,4.698,4.7279,4.698,4.6741,4.6741,4.6381,4.6441,4.7219,4.7309,4.7309,4.7309,4.7309,4.7309,4.7309,4.7309,4.7309,4.7309,4.7309,4.7309,4.7309,4.7309,4.7309,4.7309,4.7309,4.7309,4.7309,4.7309,4.7309,4.7309,4.7309,4.7309,4.7309,4.7309,4.7309,4.7309,4.7309,4.7309,4.7309,4.7309,4.7309,4.7309,4.7309,4.713,4.683,4.6441,4.5891,4.5334,4.4556,4.4107,4.3798,4.3409,4.329,4.329,4.329,4.312,4.2851,4.25,4.1991,4.1324,4.0576,4.0187,3.9888,3.9499,3.92,3.8871,3.8452,3.7943,3.7255,3.6237,3.5759,3.5519,3.5519,3.5519,3.5519,3.5519,3.5519,3.5519,3.5519,3.525,3.507,3.507,3.4831,3.4472,3.4114,3.4053,3.3873,3.3514,3.4296,3.4875,3.5268,3.6293,3.702,3.7434,3.7769,3.7956,3.6148,3.6357,3.6716,3.7704,3.896,4.0098,4.0636,4.1504,4.2462,4.3379,4.4137,4.4676,4.4975,4.5574,4.607,4.6249,4.6741,4.71,4.7279,4.6741,4.6219,4.6052,4.5454,4.5394,4.6381,4.683,4.71,4.7309,4.7309,4.7309,4.7309,4.7309,4.7309,4.7309,4.7309,4.7309,4.7309,4.7309,4.7309,4.7309,4.7309,4.7309,4.7309,4.7309,4.7309,4.7309,4.7309,4.7309,4.7309,4.7309,4.7309,4.7309,4.7309,4.7309,4.7309,4.7309,4.7309,4.7309,4.7309,4.7309,4.7219,4.6741,4.6429,4.61,4.5155,4.4616,4.4227,4.3708,4.3439,4.329,4.329,4.329,4.317,4.2731,4.253,4.2141,4.1145,4.0666,4.0277,3.9798,3.9559,3.926,3.8751,3.8512,3.8093,3.7135,3.6297,3.5699,3.5519,3.5519,3.5519,3.5519,3.5519,3.5519,3.5519,3.5519,3.5519,3.5519,3.5519,3.528,3.4771,3.4803,3.4532,3.4053,3.5057,3.5812,3.6286,3.7222,3.7878,3.817,3.84,3.8571,3.534,3.5998,3.6956,3.8871,4.0337,4.1833,4.3718,4.4197,4.4227,4.4287,4.4796,4.5065,4.4466,4.4885,4.5544,4.6202,4.6352,4.6591,4.7219,4.6741,4.6082,4.5394,4.4736,4.4377,0.0,4.5603,4.6621,4.7249,4.7309,4.7309,4.7309,4.7309,4.7309,4.7309,4.7309,4.7309,4.7309,4.7309,4.7309,4.7309,4.7309,4.7309,4.7309,4.7309,4.7309,4.7309,4.7309,4.7309,4.7309,4.7309,4.7309,4.7309,4.7309,4.7309,4.7309,4.7309,4.7309,4.7309,4.7309,4.7309,4.7309,4.7279,4.683,4.6279,4.6219,4.5323,4.4317,4.4287,4.3798,4.329,4.329,4.329,4.329,4.326,4.2821,4.2381,4.2351,4.1332,4.0397,4.0367,3.9858,3.9373,3.9343,3.8841,3.8392,3.8332,3.7255,3.6237,3.5579,3.5519,3.5519,3.5519,3.5519,3.5519,3.5519,3.5519,3.5519,3.5519,3.5519,3.5489,3.5459,3.5459,3.5459,3.5459,3.6903,3.7729,3.7758,3.9282,3.9595,3.8869,3.9647,3.9256,3.7015,3.8242,3.9559,4.1496,4.2671,4.3599,4.4706,4.4975,4.4975,4.4975,4.4796,4.4586,4.4347,4.4496,4.4855,4.5544,4.6022,4.6518,4.7219,4.6741,4.5903,4.4766,4.4436,0.0,0.0,0.0,0.0,4.6561,4.6651,4.683,4.7279,4.7309,4.7309,4.7309,4.7309,4.7309,4.7309,4.7309,4.7309,4.7309,4.7309,4.7309,4.7309,4.7309,4.7309,4.7309,4.7309,4.7309,4.7309,4.7309,4.7309,4.7309,4.7309,4.7309,4.7309,4.7309,4.7309,4.7309,4.7309,4.7309,4.7309,4.7309,4.716,4.689,4.6399,4.595,4.5454,4.4556,4.4167,4.3858,4.3409,4.329,4.329,4.329,4.311,4.288,4.25,4.1722,4.0935,4.0487,3.9858,3.9373,3.9373,3.923,3.8901,3.8452,3.7315,3.6237,3.5579,3.5519,3.5519,3.5519,3.5519,3.5519,3.5519,3.5519,3.5519,3.5519,3.5519,3.5519,3.5519,3.5519,3.5519,3.5519,3.6508,3.7263,3.7793,3.8334,3.8663,3.8881,3.8695,3.8553,3.8571,4.0068,4.1564,4.3539,4.4526,4.5155,4.5574,4.5454,4.5155,4.4676,4.3898,4.318,4.297,4.2731,4.3,4.4407,4.4975,4.5681,4.71,4.6531,4.5544,4.4436,4.4107,4.3768,0.0,0.0,0.0,4.616,4.6488,4.686,4.7279,4.7309,4.7309,4.7309,4.7309,4.7309,4.7309,4.7309,4.7309,4.7309,4.7309,4.7309,4.7309,4.7309,4.7309,4.7309,4.7309,4.7309,4.7309,4.7309,4.7309,4.7309,4.7309,4.7309,4.7309,4.7309,4.7309,4.7309,4.7309,4.7309,4.7309,4.7309,4.7309,4.7219,4.68,4.6501,4.61,4.5274,4.4676,4.4227,4.3768,4.3469,4.329,4.329,4.329,4.317,4.2791,4.2192,4.1632,4.1175,4.0367,3.9768,3.9768,3.9589,3.92,3.8482,3.7674,3.6836,3.5968,3.5639,3.5519,3.5519,3.5519,3.5519,3.5519,3.5519,3.5519,3.5519,3.5519,3.5519,3.5519,3.5519,3.5519,3.5519,3.6228,3.6843,3.7352,3.7677,3.7905,3.8072,3.7876,3.7905,3.9978,4.1504,4.3039,4.4885,4.5843,4.6279,4.6249,4.5723,4.4825,4.3409,4.2132,4.0995,0.0,0.0,4.0217,4.2761,4.3299,4.4246,4.689,4.6172,4.5155,0.0,0.0,0.0,0.0,0.0,0.0,4.613,0.0,4.7249,4.7309,4.7309,4.7309,4.7309,4.7309,4.7309,4.7309,4.7309,4.7309,4.7309,4.7309,4.7309,4.7309,4.7309,4.7309,4.7309,4.7309,4.7309,4.7309,4.7309,4.7309,4.7309,4.7309,4.7309,4.7309,4.7309,4.7309,4.7309,4.7309,4.7309,4.7309,4.7309,4.7309,4.7309,4.7309,4.686,4.6339,4.6279,4.5394,4.4407,4.4347,4.3798,4.3319,4.329,4.329,4.329,4.329,4.2821,4.241,4.241,4.1332,4.0397,4.0337,3.9828,3.92,3.8542,3.8422,3.7913,3.6656,3.5938,3.5549,3.5519,3.5522,3.5522,3.5519,3.5522,3.5522,3.5519,3.5519,3.5519,3.5519,3.5519,3.5519,3.5519,3.6196,3.6538,3.66,3.7354,3.7322,3.6661,3.7352,3.7322,4.1482,4.3539,4.5424,4.5933,4.616,4.6202,4.5663,4.4676,4.329,4.1534,4.0098,3.8661,0.0,0.0,0.0,4.0247,4.2462,0.0,4.6352,4.6711,0.0,4.5185,0.0,4.5143,4.4167,4.4975,0.0,0.0,4.5992,4.6232,4.7249,4.7309,4.7309,4.7309,4.7309,4.7309,4.7309,4.7309,4.7309,4.7309,4.7309,4.7309,4.7309,4.7309,4.7309,4.7309,4.7309,4.7309,4.7309,4.7309,4.7309,4.7309,4.7309,4.7309,4.7309,4.7309,4.7309,4.7309,4.7309,4.7309,4.7309,4.7309,4.7309,4.7309,4.7309,4.7189,4.695,4.6471,4.604,4.5574,4.4586,4.4197,4.3917,4.3409,4.329,4.329,4.329,4.2821,4.241,4.241,4.1332,4.0247,3.9738,3.9493,3.9313,3.917,3.8721,3.7913,3.6656,3.6327,3.6058,3.5549,3.6006,3.6101,3.5554,3.6006,3.6101,3.5522,3.5519,3.5519,3.5519,3.5519,3.5519,3.5519,3.5686,3.607,3.66,3.6228,3.6569,3.7469,3.6508,3.6874,4.3299,4.5155,4.6741,4.6741,4.6531,4.5903,4.4347,4.3,4.1324,3.8781,3.7165,0.0,3.4053,3.537,0.0,0.0,0.0,0.0,4.601,4.6651,4.6591,0.0,4.6082,0.0,4.5274,4.5873,4.6399,0.0,4.6411,4.6501,4.7279,4.7309,4.7309,4.7309,4.7309,4.7309,4.7309,4.7309,4.7309,4.7309,4.7309,4.7309,4.7309,4.7309,4.7309,4.7309,0.0,4.7309,4.7309,4.7309,4.7309,4.7309,4.7309,4.7309,4.7309,4.7309,4.7309,4.7309,4.7309,4.7309,4.7309,4.7309,4.7309,4.7309,4.7309,4.7309,4.7219,4.686,4.6561,4.6142,4.5394,4.4766,4.4227,4.3798,4.3499,4.329,4.329,4.303,4.2701,4.244,4.1811,4.0965,4.0008,3.9858,3.9738,3.9433,3.908,3.8482,3.7434,3.6836,3.6357,3.5968,3.6348,3.6446,3.6038,3.6353,3.6415,3.6006,3.5683,3.5519,3.5519,3.5519,3.5519,3.5519,3.5519,3.5686,3.6102,3.5686,3.6101,3.7233,3.6038,3.6722,4.5065,4.6352,4.7279,4.7189,4.6621,4.5364,4.274,4.1025,3.905,3.5669,0.0,3.2677,3.1241,3.2766,3.4861,3.6836,0.0,4.3189,4.5813,4.6219,4.6309,4.6399,4.6399,4.6399,4.6399,4.6399,4.6681,4.7279,4.7309,4.7309,4.7309,4.7309,4.7309,4.7309,4.7309,4.7309,4.7309,4.7309,4.7309,4.7309,4.7309,4.7309,4.7309,4.7309,4.7309,4.7309,4.7309,0.0,4.7309,4.7309,4.7309,4.7309,4.7309,4.7309,4.7309,4.7309,4.7309,4.7309,4.7309,4.7309,4.7309,4.7309,4.7309,4.7309,4.7309,4.7309,4.7309,4.7309,4.689,4.6399,4.6309,4.5454,4.4526,4.4347,4.3868,4.3409,4.3319,4.329,4.315,4.253,4.241,4.2021,4.0756,4.0457,4.0217,3.9649,3.9433,3.92,3.8601,3.7494,3.6716,3.6626,3.6872,3.697,3.6754,3.6847,3.6815,3.66,3.5911,3.5519,3.5519,3.5519,3.5519,3.5519,3.5587,3.5587,3.5519,3.5587,3.6038,3.6722,3.5975,3.6874,4.5741,4.6711,4.7189,4.6621,4.5574,4.3958,4.1324,3.929,0.0,0.0,3.157,3.0462,2.8633,3.0761,3.3514,3.5519,3.905,0.0,0.0,0.0,4.6531,0.0,0.0,0.0,0.0,0.0,0.0,0.0,0.0,4.7309,4.7309,4.7309,4.7309,4.7309,4.7309,4.7309,4.7309,4.7309,4.7309,4.7309,4.7309,4.7309,4.7309,4.7309,4.7309,4.7309,4.7309,0.0,4.7309,4.7309,4.7309,4.7309,4.7309,4.7309,4.7309,4.7309,4.7309,4.7309,4.7309,4.7309,4.7309,4.7309,4.7309,4.7309,4.7309,4.7309,4.7309,4.7309,4.7219,4.701,4.6429,4.6142,4.5651,4.4586,4.4227,4.3947,4.3409,4.329,4.315,4.253,4.241,4.2141,4.1354,4.0756,4.0367,4.0247,3.9768,3.9379,3.926,3.8542,3.7853,3.7315,3.8494,3.8838,3.753,3.8084,3.7953,3.6661,3.5911,3.5519,3.5519,3.5519,3.5519,3.5519,3.6102,3.6102,3.5519,3.6102,3.6844,3.7557,3.6783,3.7642,4.6471,4.707,4.716,4.6501,4.5304,4.3359,3.9679,0.0,0.0,0.0,2.8936,2.8068,2.6782,2.8996,0.0,3.3634,3.6686,0.0,0.0,0.0,0.0,0.0,0.0,0.0,0.0,0.0,0.0,0.0,0.0,4.7309,4.7309,4.7309,4.7309,4.7309,4.7309,4.7309,4.7309,4.7309,4.7309,4.7309,4.7309,4.7309,4.7309,4.7309,4.7309,4.7309,4.7309,0.0,4.7309,4.7309,4.7309,4.7309,4.7309,4.7309,4.7309,4.7309,4.7309,4.7309,4.7309,4.7309,4.7309,4.7309,4.7309,4.7309,4.7309,4.7309,4.7309,4.7309,4.7309,4.7249,4.692,4.6591,4.613,4.5514,4.4825,4.4137,4.3439,4.329,4.32,4.291,4.288,4.2671,4.2051,4.1662,4.1175,4.0516,4.0127,3.9798,3.9433,3.914,3.8661,3.8003,3.9121,3.9589,3.884,3.9599,3.9794,3.9058,3.753,3.6651,3.6651,3.6284,3.607,3.607,3.6844,3.7055,3.6692,3.6631,3.7233,3.833,3.7174,3.7844,4.6741,4.7189,4.71,4.6292,4.4975,4.2731,3.8242,3.5459,0.0,0.0,2.6746,2.6004,2.5472,0.0,2.9684,0.0,3.4412,3.7528,0.0,0.0,0.0,0.0,0.0,0.0,0.0,0.0,0.0,0.0,0.0,0.0,4.7309,4.7309,4.7309,4.7309,4.7309,4.7309,4.7309,4.7309,4.7309,4.7309,4.7309,4.7309,4.7309,4.7309,4.7309,4.7309,4.7309,0.0,0.0,4.7309,4.7309,4.7309,4.7309,4.7309,4.7309,4.7309,4.7309,4.7309,4.7309,4.7309,4.7309,4.7309,4.7309,4.7309,4.7309,4.7309,4.7309,4.7309,4.7309,4.7309,4.7309,4.692,4.6501,4.6309,4.5304,4.4167,4.3618,4.3379,4.329,4.329,4.329,4.314,4.2641,4.25,4.2051,4.0965,4.0576,4.0217,3.9709,3.9499,3.92,3.8661,3.9651,4.0286,4.0126,4.0939,4.1366,4.1205,3.9297,3.8185,3.8185,3.7622,3.7341,3.7341,3.7932,3.8219,3.8046,3.7415,3.7729,3.8881,3.7671,3.8157,4.6052,4.686,4.701,4.5693,4.3958,4.1542,3.7494,0.0,3.0793,2.738,2.5674,2.4784,2.4694,2.5884,0.0,0.0,0.0,3.6301,0.0,0.0,0.0,0.0,0.0,0.0,0.0,0.0,0.0,0.0,0.0,0.0,4.7309,4.7309,4.7309,4.7309,4.7309,4.7309,4.7309,4.7309,4.7309,4.7309,4.7309,4.7309,4.7309,4.7309,4.7309,4.7309,4.7309,0.0,0.0,4.7309,4.7309,4.7309,4.7309,4.7309,4.7309,4.7309,4.7309,4.7309,4.7309,4.7309,4.7309,4.7309,4.7309,4.7309,4.7309,4.7309,4.7309,4.7309,4.7309,4.7309,4.7309,4.7249,4.707,4.6429,4.5304,4.4287,4.4227,4.3708,4.329,4.329,4.329,4.326,4.323,4.2761,4.2351,4.2231,4.1175,4.0367,4.0307,3.9798,3.9409,3.932,4.0805,4.1565,4.0863,4.1656,4.1894,4.1238,4.0286,3.9804,3.9804,3.974,3.9708,3.9708,3.983,3.9503,3.8809,3.8707,3.8772,3.8908,3.8772,3.9209,4.4766,4.5603,4.5873,4.4945,4.324,4.0763,3.6806,0.0,2.9983,2.6692,2.4926,2.4126,2.4545,2.5023,2.6458,2.9834,3.0672,3.2557,3.7195,0.0,0.0,0.0,0.0,0.0,0.0,0.0,0.0,0.0,0.0,0.0,4.7309,4.7309,4.7309,4.7309,4.7309,4.7309,4.7309,4.7309,4.7309,4.7309,4.7309,4.7309,4.7309,4.7309,4.7309,4.7309,4.7309,0.0,0.0,4.7309,4.7309,4.7309,4.7309,4.7309,4.7309,4.7309,4.7309,4.7309,4.7309,4.7309,4.7309,4.7309,4.7309,4.7309,4.7309,4.7309,4.7309,4.7309,4.7309,4.7309,4.7309,4.7309,4.713,4.6429,4.5861,4.5263,4.4496,4.4107,4.3768,4.3379,4.329,4.329,4.329,4.312,4.2821,4.244,4.1961,4.1294,4.0487,4.0157,3.9858,3.9469,4.0481,4.1302,4.1534,4.2376,4.2999,4.3221,4.2092,4.1357,4.1357,4.0965,4.0472,3.9961,4.0932,4.1023,4.0134,4.0278,4.0509,4.0916,4.0044,4.0007,4.3569,4.4377,4.4616,4.4137,4.2402,3.9828,0.0,3.2617,2.9355,2.6243,2.4537,2.3759,2.4216,2.4485,2.5501,2.8248,2.8816,3.0372,3.4592,3.6477,0.0,0.0,0.0,0.0,0.0,0.0,0.0,0.0,0.0,0.0,4.7309,4.7309,4.7309,4.7309,4.7309,4.7309,4.7309,4.7309,4.7309,4.7309,4.7309,4.7309,4.7309,4.7309,4.7309,4.7309,4.7309,0.0,0.0,4.7309,4.7309,4.7309,4.7309,4.7309,4.7309,4.7309,4.7309,4.7309,4.7309,4.7309,4.7309,4.7309,4.7309,4.7309,4.7309,4.7309,4.7309,4.7309,4.7309,4.7309,4.7309,4.7309,4.7189,4.6741,4.6429,4.601,4.5125,4.4586,4.4167,4.3678,4.3439,4.329,4.329,4.329,4.314,4.2731,4.253,4.2081,4.1085,4.0816,4.0427,3.9768,4.0259,4.0976,4.1917,4.28,4.3651,4.4525,4.359,4.2854,4.262,4.2327,4.1654,4.054,4.1915,4.221,4.1354,4.147,4.1793,4.2286,4.123,4.1023,4.2671,4.3389,4.3319,4.329,4.1346,3.8571,3.5282,3.1988,2.8873,2.6153,2.4537,2.361,2.361,2.4156,2.5053,2.6393,2.8304,3.076,3.4054,3.6178,0.0,0.0,0.0,0.0,0.0,0.0,0.0,0.0,0.0,0.0,4.7309,4.7309,4.7309,4.7309,4.7309,4.7309,4.7309,4.7309,4.7309,4.7309,4.7309,4.7309,4.7309,4.7309,4.7309,0.0,0.0,0.0,0.0,4.7309,4.7309,4.7309,4.7309,4.7309,4.7309,4.7309,4.7309,4.7309,4.7309,4.7309,4.7309,4.7309,4.7309,4.7309,4.7309,4.7309,4.7309,4.7309,4.7309,4.7309,4.7309,4.7309,4.7309,4.7309,4.68,4.6279,4.6249,4.5244,4.4317,4.4317,4.3738,4.329,4.329,4.329,4.329,4.329,4.2761,4.2381,4.2381,4.1811,4.1115,4.0457,4.0397,4.0863,4.1917,4.28,4.3651,4.4525,4.4553,4.4179,4.332,4.4121,4.3735,4.2013,4.2916,4.2981,4.2202,4.2271,4.2286,4.2286,4.2286,4.2286,3.8332,3.929,3.9858,3.9379,3.8003,3.6118,3.3694,3.0941,2.8278,2.6063,2.4537,2.361,2.361,2.3789,2.4807,2.753,2.8487,3.0043,0.0,0.0,0.0,0.0,0.0,0.0,0.0,0.0,0.0,0.0,0.0,0.0,4.7309,4.7309,4.7309,4.7309,4.7309,4.7309,4.7309,4.7309,4.7309,4.7309,4.7309,4.7309,4.7309,4.7309,4.7309,0.0,0.0,0.0,0.0,4.7309,4.7309,4.7309,4.7309,4.7309,4.7309,4.7309,4.7309,4.7309,4.7309,4.7309,4.7309,4.7309,4.7309,4.7309,4.7309,4.7309,4.7309,4.7309,4.7309,4.7309,4.7309,4.7309,4.7309,4.7309,4.716,4.686,4.6369,4.595,4.5424,4.4496,4.4137,4.3828,4.3379,4.329,4.329,4.329,4.311,4.288,4.244,4.2201,4.2078,4.2052,4.1472,4.1315,4.1948,4.2269,4.3015,4.4497,4.4615,4.4212,4.3353,4.4121,4.3499,4.1162,4.2572,4.2897,4.204,4.2667,4.3036,4.3064,4.3064,4.2794,3.5579,3.6686,3.7255,3.7105,3.5878,3.4233,3.2198,2.9924,2.7649,2.5621,2.4358,2.361,2.361,2.3819,2.4747,2.7081,2.8098,0.0,0.0,0.0,0.0,0.0,0.0,0.0,0.0,0.0,0.0,0.0,0.0,0.0,4.7309,4.7309,4.7309,4.7309,4.7309,4.7309,4.7309,4.7309,4.7309,4.7309,4.7309,4.7309,4.7309,4.7309,4.7309,0.0,0.0,0.0,0.0,4.7309,4.7309,4.7309,4.7309,4.7309,4.7309,4.7309,4.7309,4.7309,4.7309,4.7309,4.7309,4.7309,4.7309,4.7309,4.7309,4.7309,4.7309,4.7309,4.7309,4.7309,4.7309,4.7309,4.7309,4.7309,4.7309,4.7189,4.677,4.6501,4.604,4.5244,4.4676,4.4197,4.3738,4.3469,4.329,4.329,4.329,4.314,4.2791,4.3051,4.3274,4.32,4.2628,4.2566,4.3267,4.2719,4.3031,4.4502,4.4615,4.4212,4.3353,4.3798,4.3015,4.0758,4.2109,4.2552,4.1981,4.3199,4.3829,4.3842,4.3842,4.3606,0.0,3.5011,3.528,3.5848,3.4562,3.2647,3.0731,2.8816,0.0,2.4993,2.4066,2.364,2.3789,2.4246,2.4903,2.5824,2.753,0.0,0.0,3.4113,0.0,0.0,0.0,0.0,0.0,0.0,0.0,0.0,0.0,0.0,4.7309,4.7309,4.7309,4.7309,4.7309,4.7309,4.7309,4.7309,4.7309,4.7309,4.7309,4.7309,4.7309,4.7309,4.7309,0.0,0.0,0.0,0.0,4.7309,4.7309,4.7309,4.7309,4.7309,4.7309,4.7309,4.7309,4.7309,4.7309,4.7309,4.7309,4.7309,4.7309,4.7309,4.7309,4.7309,4.7309,4.7309,4.7309,4.7309,4.7309,4.7309,4.7309,4.7309,4.7309,4.7309,4.7309,4.683,4.6339,4.6279,4.5263,4.4436,4.4317,4.3768,4.3349,4.329,4.329,4.329,4.329,4.412,4.4527,4.4029,4.3857,4.4299,4.5563,4.4075,4.3553,4.4603,4.4682,4.4246,4.3353,4.3323,4.2489,4.0724,4.1495,4.1949,4.1981,4.371,4.4559,4.4615,4.4615,4.4615,2.8427,0.0,3.1599,3.1299,3.0462,2.9475,0.0,2.7111,2.5794,2.4814,2.4066,2.4059,2.5615,2.5196,2.5651,2.8846,0.0,0.0,0.0,0.0,0.0,0.0,0.0,0.0,0.0,0.0,0.0,0.0,0.0,4.7309,4.7309,4.7309,4.7309,4.7309,4.7309,4.7309,4.7309,4.7309,4.7309,4.7309,4.7309,4.7309,4.7309,4.7309,4.7309,0.0,0.0,0.0,4.7309,4.7309,4.7309,4.7309,4.7309,4.7309,4.7309,4.7309,4.7309,4.7309,4.7309,4.7309,4.7309,4.7309,4.7309,4.7309,4.7309,4.7309,4.7309,4.7309,4.7309,4.7309,4.7309,4.7309,4.7309,4.7309,4.7309,4.7309,4.7309,4.7189,4.692,4.6369,4.6082,4.5514,4.4496,4.4197,4.3858,4.3379,4.329,4.329,4.329,4.3527,4.4182,4.5488,4.4308,4.4481,4.7113,4.5179,4.4301,4.5351,4.5432,4.4783,4.3353,4.3323,4.2489,4.0724,4.0927,4.133,4.1981,4.3078,4.3948,4.4615,4.4615,4.4615,2.6123,2.8278,3.0432,3.0073,2.9535,2.8876,2.8214,2.6542,2.4933,2.4276,2.3849,2.4029,2.5435,2.5322,0.0,0.0,3.0133,0.0,0.0,0.0,0.0,0.0,0.0,0.0,0.0,0.0,0.0,0.0,0.0,4.7309,4.7309,4.7309,4.7309,4.7309,4.7309,4.7309,4.7309,4.7309,4.7309,4.7309,4.7309,4.7309,4.7309,4.7309,4.7309,0.0,0.0,0.0,4.7309,4.7309,4.7309,4.7309,4.7309,4.7309,4.7309,4.7309,4.7309,4.7309,4.7309,4.7309,4.7309,4.7309,4.7309,4.7309,4.7309,4.7309,4.7309,4.7309,4.7309,4.7309,4.7309,4.7309,4.7309,4.7309,4.7309,4.7309,4.7309,4.7309,4.7189,4.683,4.6488,4.6082,4.5323,4.4975,4.4646,4.4287,4.3988,4.3738,4.3738,4.3904,4.4555,4.6032,4.4862,4.5185,4.8133,4.6356,4.5374,4.6157,4.621,4.5833,4.492,4.3826,4.243,4.0724,4.069,4.133,4.2583,4.3078,4.3739,4.4615,4.4615,4.4615,2.5674,2.8008,3.0283,2.9983,2.9654,2.9235,2.8457,2.6458,2.4605,2.4029,2.3909,2.4208,0.0,2.5741,0.0,0.0,0.0,0.0,0.0,0.0,0.0,0.0,0.0,0.0,0.0,0.0,0.0,0.0,0.0,4.7309,4.7309,4.7309,4.7309,4.7309,4.7309,4.7309,4.7309,4.7309,4.7309,4.7309,4.7309,4.7309,4.7309,4.7309,4.7309,4.7309,0.0,0.0,4.7309,4.7309,4.7309,4.7309,4.7309,4.7309,4.7309,4.7309,4.7309,4.7309,4.7309,4.7309,4.7309,4.7309,4.7309,4.7309,4.7309,4.7309,4.7309,4.7309,4.7309,4.7309,4.7309,4.7309,4.7309,4.7309,4.7309,4.7309,4.7309,4.7309,4.7309,4.7309,4.686,4.6399,4.6352,4.5843,4.5424,4.5304,4.4825,4.4466,4.4466,4.4591,4.5086,4.6012,4.5216,4.5706,4.8545,4.7205,4.6481,4.7102,4.7022,4.6798,4.6394,4.4364,4.2546,4.1034,4.0907,4.1719,4.3454,4.3355,4.3739,4.4615,4.4615,4.4615,2.5974,2.8038,2.9352,2.7619,2.7979,2.8427,2.7171,2.6153,2.5435,2.5315,2.5285,0.0,0.0,2.8457,2.9146,0.0,0.0,3.6806,0.0,0.0,0.0,0.0,0.0,0.0,0.0,0.0,0.0,0.0,0.0,4.7309,4.7309,4.7309,4.7309,4.7309,4.7309,4.7309,4.7309,4.7309,4.7309,4.7309,4.7309,4.7309,4.7309,4.7309,4.7309,4.7309,0.0,4.7309,4.7309,4.7309,4.7309,4.7309,4.7309,4.7309,4.7309,4.7309,4.7309,4.7309,4.7309,4.7309,4.7309,4.7309,4.7309,4.7309,4.7309,4.7309,4.7309,4.7309,4.7309,4.7309,4.7309,4.7309,4.7309,4.7309,4.7309,4.7309,4.7309,4.7309,4.7309,4.7309,4.7219,4.698,4.6369,4.619,4.5963,4.5394,4.5214,4.5155,4.5155,4.4678,4.4747,4.5694,4.4425,4.4675,4.7572,4.6799,4.6905,4.8588,4.8105,4.6755,4.4592,4.4131,4.3495,4.2497,4.1868,4.2446,4.4243,4.3586,4.3739,4.4615,4.4615,4.4615,2.4717,2.6716,2.8304,2.7375,2.8936,3.0462,2.9448,2.8487,2.7739,2.7739,2.7739,0.0,0.0,0.0,3.1779,3.507,0.0,3.9379,0.0,0.0,0.0,0.0,0.0,0.0,0.0,0.0,0.0,0.0,0.0,0.0,4.7309,4.7309,4.7309,4.7309,4.7309,4.7309,4.7309,4.7309,4.7309,4.7309,4.7309,4.7309,4.7309,4.7309,4.7309,4.7309,0.0,4.7309,4.7309,4.7309,4.7309,4.7309,4.7309,4.7309,4.7309,4.7309,4.7309,4.7309,4.7309,4.7309,4.7309,4.7309,4.7309,4.7309,4.7309,4.7309,4.7309,4.7309,4.7309,4.7309,4.7309,4.7309,4.7309,4.7309,4.7309,4.7309,4.7309,4.7309,4.7309,4.7309,4.7309,4.7219,4.689,4.686,4.6741,4.6441,4.6082,4.5843,4.5843,4.5274,4.5203,4.6136,4.4798,4.5003,4.7896,4.6957,4.7002,4.8892,4.868,4.7582,4.5538,4.544,4.508,4.4294,4.347,4.3911,4.5708,4.4854,4.4933,4.5799,4.5799,4.5799,2.4657,2.6177,2.7675,2.7974,2.9953,3.1809,3.175,3.0761,2.9924,3.043,3.04,0.0,0.0,3.2557,0.0,3.7195,3.9439,4.1324,4.268,0.0,0.0,0.0,0.0,0.0,0.0,0.0,0.0,0.0,0.0,0.0,4.7309,4.7309,4.7309,4.7309,4.7309,4.7309,4.7309,4.7309,4.7309,4.7309,4.7309,4.7309,4.7309,4.7309,4.7309,4.7309,4.7309,4.7309,4.7309,4.7309,4.7309,4.7309,4.7309,4.7309,4.7309,4.7309,4.7309,4.7309,4.7309,4.7309,4.7309,4.7309,4.7309,4.7309,4.7309,4.7309,4.7309,4.7309,4.7309,4.7309,4.7309,4.7309,4.7309,4.7309,4.7309,4.7309,4.7309,4.7309,4.7309,4.7309,4.7309,4.7309,4.7309,4.7309,4.7309,4.7309,4.686,4.6518,4.6518,4.5963,4.5804,4.6557,4.5374,4.5532,4.8076,4.7186,4.7239,4.8892,4.9018,4.8373,4.6879,4.6814,4.6583,4.5989,4.5147,4.5503,4.7056,4.6216,4.6179,4.6786,4.6786,4.6786,2.7739,2.7944,2.7884,2.9142,2.9651,3.0253,3.2048,3.139,3.0971,3.2826,3.2736,3.2497,0.0,3.534,3.7345,3.8182,4.0554,0.0,0.0,0.0,0.0,0.0,0.0,0.0,0.0,0.0,0.0,0.0,0.0,0.0,4.7309,4.7309,4.7309,4.7309,4.7309,4.7309,4.7309,4.7309,4.7309,4.7309,4.7309,4.7309,4.7309,4.7309,4.7309,4.7309,4.7309,4.7309,4.7309,4.7309,4.7309,4.7309,4.7309,4.7309,4.7309,4.7309,4.7309,4.7309,4.7309,4.7309,4.7309,4.7309,4.7309,4.7309,4.7309,4.7309,4.7309,4.7309,4.7309,4.7309,4.7309,4.7309,4.7309,4.7309,4.7309,4.7309,4.7309,4.7309,4.7309,4.7309,4.7309,4.7309,4.7309,4.7309,4.7309,4.7309,4.7279,4.7249,4.7249,4.6651,4.6232,4.6316,4.5675,4.5807,4.718,4.7425,4.7933,4.8923,4.9018,4.8543,4.7572,4.754,4.7474,4.7474,4.6717,4.6837,4.7804,4.7064,4.6756,4.6786,4.6786,4.6786,2.6639,2.7382,2.8337,2.9342,3.0492,3.1719,3.2856,3.3993,3.513,3.6297,3.6357,3.6118,0.0,0.0,3.8392,3.9469,0.0,0.0,0.0,0.0,0.0,0.0,0.0,0.0,0.0,0.0,0.0,0.0,0.0,0.0,4.7309,4.7309,4.7309,4.7309,4.7309,4.7309,4.7309,4.7309,4.7309,4.7309,4.7309,4.7309,4.7309,4.7309,4.7309,4.7309,4.7309,4.7309,4.7309,4.7309,4.7309,4.7309,4.7309,4.7309,4.7309,4.7309,4.7309,4.7309,4.7309,4.7309,4.7309,4.7309,4.7309,4.7309,4.7309,4.7309,4.7309,4.7309,4.7309,4.7309,4.7309,4.7309,4.7309,4.7309,4.7309,4.7309,4.7309,4.7309,4.7309,4.7309,4.7309,4.7309,4.7309,4.7309,4.7309,4.7309,4.7309,4.7309,4.7309,4.71,4.692,4.692,4.6849,4.6625,4.6322,4.747,4.82,4.8129,4.8671,4.8829,4.8482,4.8482,4.8482,4.8482,4.8214,4.8236,4.8578,4.8308,4.8173,4.8173,4.8173,4.8173,2.6918,2.7611,2.8682,2.9681,3.1561,3.3505,3.4607,3.6198,3.7807,3.9173,3.9304,3.8836,3.7893,0.0,0.0,0.0,0.0,0.0,0.0,0.0,0.0,0.0,0.0,0.0,0.0,0.0,0.0,0.0,0.0,0.0,0.0,4.6681,4.6681,4.6681,4.6681,4.677,4.698,4.698,4.71,4.7309,4.7309,4.7309,4.7309,4.7309,4.7309,4.7309,4.7309,4.7309,4.7309,4.7309,4.7309,4.7309,4.7309,4.7309,4.7309,4.7309,4.7309,4.7309,4.7309,4.7309,4.7309,4.7309,4.7309,4.7309,4.7309,4.7309,4.7309,4.7309,4.7309,4.7309,4.7309,4.7309,4.7309,4.7309,4.7309,4.7309,4.7309,4.7309,4.7309,4.7309,4.7309,4.7309,4.7309,4.7309,4.7309,4.7309,4.7309,4.7309,4.7309,4.7309,4.7309,4.7309,4.7255,4.7006,4.6368,4.7161,4.764,4.7463,4.7869,4.8353,4.8987,4.9018,4.9018,4.9018,4.9018,4.9018,4.9018,4.9018,4.9018,4.9018,4.9018,4.9018,2.9445,2.895,2.8876,3.026,3.2682,3.5286,3.7433,3.7691,3.8284,4.1206,4.1258,4.0303,3.8722,3.9499,0.0,4.0397,0.0,0.0,0.0,0.0,0.0,0.0,0.0,0.0,0.0,0.0,0.0,0.0,0.0,0.0,0.0,4.5304,4.5304,4.5304,4.5304,4.5633,4.6279,4.6279,4.6651,4.7279,4.7309,4.7309,4.7309,4.7309,4.7309,4.7309,4.7309,4.7309,4.7309,4.7309,4.7309,4.7309,4.7309,4.7309,4.7309,4.7309,4.7309,4.7309,4.7309,4.7309,4.7309,4.7309,4.7309,4.7309,4.7309,4.7309,4.7309,4.7309,4.7309,4.7309,4.7309,4.7309,4.7309,4.7309,4.7309,4.7309,4.7309,4.7309,4.7309,4.7309,4.7309,4.7309,4.7309,4.7309,4.7309,4.7309,4.7309,4.7309,4.7309,4.7309,4.7309,4.7309,4.6711,4.6682,4.7617,4.6469,4.6153,4.7116,4.6589,4.7036,4.8892,4.9018,4.8984,4.9018,4.9018,4.9018,4.9018,4.9018,4.9018,4.9018,4.9018,4.9018,2.8739,2.9464,3.0558,3.1617,3.475,3.8,3.9591,4.0183,4.0786,4.1977,4.1691,4.0915,3.9991,4.0127,0.0,4.1025,0.0,0.0,0.0,0.0,0.0,0.0,0.0,0.0,0.0,0.0,0.0,0.0,0.0,0.0,0.0,4.5304,4.5304,4.5304,4.5304,4.5394,4.5603,4.5603,4.5693,4.5903,4.6381,4.686,4.7309,4.7309,4.7309,4.7309,4.7309,4.7309,4.7309,4.7309,4.7309,4.7309,4.7309,4.7309,4.7309,4.7309,4.7309,4.7309,4.7309,4.7309,4.7309,4.7309,4.7309,4.7309,4.7309,4.7309,4.7309,4.7309,4.7309,4.7309,4.7309,4.7309,4.7309,4.7309,4.7309,4.7309,4.7309,4.7309,4.7309,4.7309,4.7309,4.7309,4.7309,4.7309,4.7309,4.7309,4.7309,4.7309,4.7309,4.7309,4.7309,4.7309,4.713,4.6929,4.6713,4.6956,4.7021,4.6865,4.6887,4.7246,4.7967,4.8032,4.8321,4.9018,4.9018,4.9018,4.9018,4.9018,4.9018,4.9018,4.9018,4.9018,3.0468,3.1396,3.2523,3.4479,3.739,4.0239,4.2097,4.2802,4.3149,0.0,4.2841,4.2122,4.131,4.1175,0.0,0.0,0.0,0.0,0.0,0.0,0.0,0.0,0.0,0.0,0.0,0.0,0.0,0.0,0.0,0.0,0.0,4.4526,4.4526,4.4526,4.4526,4.4646,4.4915,4.4915,4.5035,4.5304,4.5723,4.6112,4.6531,4.707,4.7309,4.7309,4.7309,4.7309,4.7309,4.7309,4.7309,4.7309,4.7309,4.7309,4.7309,4.7309,4.7309,4.7309,4.7309,4.7309,4.7309,4.7309,4.7309,4.7309,4.7309,4.7309,4.7309,4.7309,4.7309,4.7309,4.7309,4.7309,4.7309,4.7309,4.7309,4.7309,4.7309,4.7309,4.7309,4.7309,4.7309,4.7309,4.7309,4.7309,4.7309,4.7309,4.7309,4.7309,4.7309,4.7309,4.7309,4.7309,4.7309,4.716,4.6741,4.7001,4.6966,4.6539,4.6461,4.6898,4.7814,4.7701,4.7868,4.845,4.8829,4.9018,4.9018,4.9018,4.9018,4.9018,4.9018,4.9018,3.3292,3.3907,3.4442,3.8018,4.0254,4.2234,4.4655,4.525,4.5161,4.4732,0.0,4.3482,4.2625,4.25,0.0,0.0,0.0,0.0,0.0,0.0,0.0,0.0,0.0,0.0,0.0,0.0,0.0,0.0,0.0,0.0,0.0,4.329,4.329,4.329,4.329,4.3589,4.4227,4.4227,4.4526,4.5125,4.5185,4.5214,4.5244,4.6591,4.7249,4.7309,4.7309,4.7309,4.7309,4.7309,4.7309,4.7309,4.7309,4.7309,4.7309,4.7309,4.7309,4.7309,4.7309,4.7309,4.7309,4.7309,4.7309,4.7309,4.7309,4.7309,4.7309,4.7309,4.7309,4.7309,4.7309,4.7309,4.7309,4.7309,4.7309,4.7309,4.7309,4.7309,4.7309,4.7309,4.7309,4.7309,4.7309,4.7309,4.7309,4.7309,4.7396,4.7409,4.7409,4.7409,4.7409,4.7409,4.7352,4.7309,4.7309,4.6741,4.6411,4.6509,4.592,4.6404,4.8307,4.7914,4.7737,4.7836,4.8677,4.9086,4.9018,4.9018,4.9018,4.9018,4.9018,4.9018,3.1362,3.3069,3.5013,3.8045,4.1725,4.4859,4.593,4.6081,4.5552,4.3944,4.3524,4.3326,4.3159,4.312,0.0,0.0,0.0,0.0,0.0,0.0,0.0,0.0,0.0,0.0,0.0,0.0,0.0,0.0,0.0,0.0,4.329,4.329,4.329,4.329,4.329,4.3349,4.3499,4.3499,4.3589,0.0,4.4287,4.4526,4.4556,4.5903,4.68,4.7309,4.7309,4.7309,4.7309,4.7309,4.7309,4.7309,4.7309,4.7309,4.7309,4.7309,4.7309,4.7309,4.7309,4.7309,4.7309,4.7309,4.7309,4.7309,4.7309,4.7309,4.7309,4.7309,4.7309,4.7309,4.7309,4.7309,4.7309,4.7309,4.7309,4.7309,4.7309,4.7309,4.7309,4.7309,4.7309,4.7309,4.7309,4.7309,4.7309,4.7309,4.7988,4.847,4.847,4.847,4.847,4.847,4.7764,4.7309,4.7309,4.7189,4.7425,4.8214,4.7609,4.7808,4.9085,4.8505,4.8576,4.9545,4.9736,4.9593,4.9018,4.9018,4.9018,4.9018,4.9018,4.9018,3.1888,3.4134,3.6544,4.0595,4.3585,4.5729,4.6352,4.6053,4.5366,4.4259,4.3615,4.329,4.329,0.0,0.0,0.0,0.0,0.0,0.0,0.0,0.0,0.0,0.0,0.0,0.0,0.0,0.0,0.0,0.0,4.329,4.329,4.329,4.329,4.329,4.329,4.329,4.329,4.329,4.329,4.329,4.3648,4.4018,4.4377,4.5723,4.6501,4.686,4.716,4.7309,4.7309,4.7309,4.7309,4.7309,4.7309,4.7309,4.7309,4.7309,4.7309,4.7309,4.7309,4.7309,4.7309,4.7309,4.7309,4.7309,4.7309,4.7309,4.7309,4.7309,4.7309,4.7309,4.7309,4.7309,4.7309,4.7309,4.7309,4.7309,4.7309,4.7309,4.7309,4.7309,4.7309,4.7309,4.7309,4.7309,4.7309,4.7309,4.8126,4.88,4.88,4.9256,4.9575,4.9575,4.8666,4.824,4.8749,4.8293,4.846,4.9496,4.8783,4.9001,5.0533,4.9764,4.9495,4.9958,5.0416,5.0439,5.0067,5.0067,5.0067,5.0067,5.0067,5.0067,3.2307,3.5238,3.8183,4.3159,4.4959,0.0,4.6183,4.5599,4.4837,4.4501,4.3852,4.329,0.0,0.0,0.0,0.0,0.0,0.0,0.0,0.0,0.0,0.0,0.0,0.0,0.0,0.0,0.0,0.0,0.0,4.329,4.329,4.329,4.329,4.329,4.329,4.329,4.329,4.329,4.329,4.329,4.329,4.3589,4.4197,4.5424,4.607,4.6309,4.689,4.7189,4.7309,4.7309,4.7309,4.7309,4.7309,4.7309,4.7309,4.7309,4.7309,4.7309,4.7309,4.7309,4.7309,4.7309,4.7309,4.7309,4.7309,4.7309,4.7309,4.7309,4.7309,4.7309,4.7309,4.7309,4.7309,4.7309,4.7309,4.7309,4.7309,4.7309,4.7309,4.7309,4.7309,4.7309,4.7309,4.7309,4.7309,4.7309,4.8293,4.9054,4.9054,5.0009,5.0665,5.0665,4.9734,4.9376,5.0048,4.9496,4.9456,5.032,4.9734,5.0172,5.2101,5.1373,5.075,5.0452,5.106,5.1352,5.1185,5.1185,5.1185,5.1185,5.1185,5.1185,2.9179,3.366,3.87,4.2591,4.4147,4.4894,0.0,0.0,4.4013,0.0,4.3145,0.0,0.0,0.0,0.0,0.0,0.0,0.0,0.0,0.0,0.0,0.0,0.0,0.0,0.0,0.0,0.0,0.0,4.329,4.329,4.329,4.329,4.329,4.329,4.329,4.329,4.329,4.329,4.329,4.329,4.329,4.3349,4.3439,4.4216,4.5173,4.6279,4.6369,4.677,4.7309,4.7309,4.7309,4.7309,4.7309,4.7309,4.7309,4.7309,4.7309,4.7309,4.7309,4.7309,4.7309,4.7309,4.7309,4.7309,4.7309,4.7309,4.7309,4.7309,4.7309,4.7309,4.7309,4.7309,4.7309,4.7309,4.7309,4.7309,4.7309,4.7309,4.7309,4.7309,4.7309,4.7309,4.7309,4.7309,4.7309,4.7309,4.8922,5.0204,5.0204,5.108,5.1704,5.1704,5.0779,4.9852,4.9094,4.9734,5.0242,5.0397,5.108,5.2029,5.3246,5.3144,5.3043,5.3011,5.2436,5.186,5.1185,5.1185,5.1185,5.1185,5.1185,5.1185,3.0871,3.4912,3.8802,4.2462,4.3673,4.4232,4.5303,4.4838,4.4074,4.3588,0.0,0.0,0.0,0.0,0.0,0.0,0.0,0.0,0.0,0.0,0.0,0.0,0.0,0.0,0.0,0.0,0.0,0.0,4.329,4.329,4.329,4.329,4.329,4.329,4.329,4.329,4.329,4.329,4.329,4.329,4.329,4.329,4.329,4.3589,4.4246,4.5244,4.595,4.6501,4.68,4.716,4.7309,4.7309,4.7309,4.7309,4.7309,4.7309,4.7309,4.7309,4.7309,4.7309,4.7309,4.7309,4.7309,4.7309,4.7309,4.7309,4.7309,4.7309,4.7309,4.7309,4.7309,4.7309,4.7309,4.7309,4.7309,4.7309,4.7309,4.7309,4.7309,4.7309,4.7309,4.7309,4.7309,4.7309,4.7309,4.7309,4.8584,4.9734,5.032,5.1266,5.2101,5.2697,5.1849,5.1266,5.1447,5.1303,5.1521,5.2098,5.1993,5.2383,5.3484,5.2904,5.2904,5.3518,5.3145,5.2807,5.2503,5.2503,5.2503,5.2503,5.2503,5.2503,3.1481,3.4472,3.6907,4.0975,4.2286,4.2963,0.0,0.0,4.3901,0.0,0.0,0.0,0.0,0.0,0.0,0.0,0.0,0.0,0.0,0.0,0.0,0.0,0.0,0.0,0.0,0.0,0.0,0.0,4.309,4.311,4.329,4.329,4.329,4.329,4.329,4.329,4.329,4.329,4.329,4.329,4.329,4.329,4.329,4.329,4.3559,4.4137,4.5263,4.6022,4.6309,4.686,4.716,4.7309,4.7309,4.7309,4.7309,4.7309,4.7309,4.7309,4.7309,4.7309,4.7309,4.7309,4.7309,4.7309,4.7309,4.7309,4.7309,4.7309,4.7309,4.7309,4.7309,4.7309,4.7309,4.7309,4.7309,4.7309,4.7309,4.7309,4.7309,4.7309,4.7309,4.7309,4.7309,4.7309,4.7309,4.7309,4.8126,4.9175,5.0242,5.1043,5.2026,5.3348,5.2557,5.2241,5.3041,5.2627,5.2522,5.3076,5.2592,5.2662,5.3484,5.2697,5.2662,5.345,5.3518,5.3518,5.3518,5.3518,5.3518,5.3518,5.3518,5.3518,2.8231,2.9871,3.1745,3.6907,3.9242,4.0654,0.0,0.0,0.0,0.0,0.0,0.0,0.0,0.0,0.0,0.0,0.0,0.0,0.0,0.0,0.0,0.0,0.0,0.0,0.0,0.0,0.0,0.0,4.244,4.2671,4.326,4.329,4.329,4.329,4.329,4.329,4.329,4.329,4.329,4.329,4.329,4.329,4.329,4.329,4.3319,4.3379,4.4107,4.5155,4.6279,4.6309,4.6741,4.7309,4.7309,4.7309,4.7309,4.7309,4.7309,4.7309,4.7309,4.7309,4.7309,4.7309,4.7309,4.7309,4.7309,4.7309,4.7309,4.7309,4.7309,4.7309,4.7309,4.7309,4.7309,4.7309,4.7309,4.7309,4.7309,4.7309,4.7309,4.7309,4.7309,4.7309,4.7309,4.7309,4.7309,4.7309,4.8126,4.9175,5.0242,5.0435,5.1262,5.328,5.2557,5.1921,5.1993,5.287,5.3007,5.2029,5.287,5.3416,5.3518,5.345,5.3416,5.3518,5.3518,5.3518,5.3518,5.3518,5.3518,5.3518,5.3518,5.3518,2.6911,0.0,0.0,3.4776,3.7212,3.9073,4.0553,4.1829,0.0,0.0,0.0,0.0,0.0,0.0,0.0,0.0,0.0,0.0,0.0,0.0,0.0,0.0,0.0,0.0,0.0,0.0,0.0,0.0,0.0,4.1833,4.2073,4.2491,4.2701,4.2701,4.312,4.329,4.329,4.329,4.329,4.329,4.329,4.329,4.329,4.329,4.329,4.329,4.3529,4.4436,4.5693,4.6142,4.6711,4.7309,4.7309,4.7309,4.7309,4.7309,4.7309,4.7309,4.7309,4.7309,4.7309,4.7309,4.7309,4.7309,4.7309,4.7309,4.7309,4.7309,4.7309,4.7399,4.7818,4.7938,4.8027,4.8476,4.8566,4.8566,4.8566,4.7908,4.7309,4.7309,4.7309,4.7309,4.7309,4.7309,4.7309,4.7309,4.8126,4.8932,4.9336,4.997,5.093,5.2312,5.2101,5.2205,5.287,5.328,5.3348,5.2939,5.3314,5.3518,5.3518,5.3518,5.3518,5.3518,5.3518,5.3518,5.3518,5.3518,5.3518,5.3518,5.3518,5.3518,2.532,2.7063,0.0,0.0,0.0,3.6434,3.9436,0.0,0.0,0.0,0.0,0.0,0.0,0.0,0.0,0.0,0.0,0.0,0.0,0.0,0.0,0.0,0.0,0.0,0.0,0.0,0.0,0.0,0.0,0.0,4.1422,4.1841,4.2171,4.2381,4.2791,4.312,4.329,4.329,4.329,4.329,4.329,4.329,4.329,4.329,4.329,4.329,4.329,4.3917,4.5035,4.5693,4.6381,4.701,4.7219,4.7309,4.7309,4.7309,4.7309,4.7309,4.7309,4.7309,4.7309,4.7309,4.7309,4.7309,4.7309,4.7309,4.7309,4.7309,4.7459,4.7728,4.8177,4.8446,4.876,4.9209,4.9299,4.9299,4.9299,4.889,4.8386,4.8025,4.8257,4.8386,4.8025,4.7967,4.7967,4.7967,4.8347,4.8756,4.9099,4.925,4.9891,5.1229,5.1377,5.1813,5.287,5.3314,5.3518,5.3518,5.3518,5.3518,5.3518,5.3518,5.3518,5.3518,5.3518,5.3518,5.3518,5.3518,5.3518,5.3518,5.3518,5.3518,0.0,0.0,0.0,0.0,0.0,0.0,3.8488,0.0,0.0,0.0,0.0,0.0,0.0,0.0,0.0,0.0,0.0,0.0,0.0,0.0,0.0,0.0,0.0,0.0,0.0,0.0,0.0,0.0,4.0367,4.0636,4.1332,4.1354,4.1692,4.2351,4.2381,4.2641,4.326,4.326,4.326,4.329,4.329,4.329,4.329,4.329,4.329,4.329,4.329,4.3648,4.4347,4.5005,4.5693,4.6381,4.704,4.7309,4.7309,4.7309,4.7309,4.7309,4.7309,4.7309,4.7309,4.7309,4.7309,4.7309,4.7309,4.7309,4.7309,4.7339,4.7788,4.8297,4.8327,4.8835,4.9359,4.9359,4.9359,4.9359,4.9359,5.0201,5.066,4.9538,5.0184,5.0513,4.9494,4.9299,4.9299,4.9299,4.876,4.8675,4.9685,4.8359,4.8145,5.019,5.0422,5.0881,5.1878,5.2903,5.3551,5.3551,5.3518,5.3518,5.3518,5.3518,5.3518,5.3518,5.3518,5.3518,5.3518,5.3518,5.3518,5.3518,5.3518,5.3518,2.3545,0.0,0.0,0.0,0.0,0.0,0.0,0.0,0.0,0.0,0.0,0.0,0.0,0.0,0.0,0.0,0.0,0.0,0.0,0.0,0.0,0.0,0.0,0.0,0.0,0.0,0.0,0.0,3.9679,3.9768,3.9948,4.0397,4.0965,4.1662,4.1692,4.2021,4.2611,4.2641,4.288,4.329,4.329,4.329,4.329,4.329,4.329,4.329,4.329,4.3409,4.3648,4.4825,4.5693,4.6381,4.704,4.7309,4.7309,4.7309,4.7309,4.7309,4.7309,4.7309,4.7309,4.7309,4.7309,4.7309,4.7309,4.7309,4.7399,4.7878,4.8147,4.8506,4.9464,5.0182,5.069,5.069,5.069,5.069,5.069,5.156,5.1945,5.0728,5.0096,4.9907,5.0371,4.9819,4.9299,4.9299,4.933,4.9402,4.9442,4.9243,4.9519,5.057,5.1421,5.2333,5.3325,5.3941,5.4296,5.4296,5.3788,5.3518,5.3518,5.3518,5.3518,5.3518,5.3518,5.3518,5.3518,5.3518,5.3518,5.3518,5.3518,5.3518,2.4695,2.539,0.0,0.0,0.0,0.0,0.0,3.1867,0.0,0.0,0.0,0.0,0.0,0.0,0.0,0.0,0.0,0.0,0.0,0.0,0.0,0.0,0.0,0.0,0.0,3.9373,3.9373,3.9373,3.9373,3.9373,3.9373,4.01,4.0686,4.0973,4.0965,4.1452,4.2381,4.241,4.2671,4.329,4.329,4.329,4.329,4.329,4.329,4.329,4.329,4.329,4.3379,4.4766,4.5544,4.5992,4.695,4.7309,4.7309,4.7309,4.7309,4.7309,4.7309,4.7309,4.7309,4.7309,4.7309,4.7309,4.7309,4.7309,4.7429,4.8087,4.8686,4.9344,5.0315,5.0883,5.1229,5.1229,5.1229,5.1229,5.1229,5.1727,5.2136,5.1803,5.123,5.1141,5.2218,5.1549,5.0772,5.0772,5.0734,5.0426,4.9749,4.9623,4.9756,5.0123,5.1538,5.2756,5.3343,5.4128,5.46,5.46,5.3923,5.3518,5.3518,5.3518,5.3518,5.3518,5.3518,5.3518,5.3518,5.3518,5.3518,5.3518,5.3518,5.3518,2.6691,2.7114,0.0,0.0,0.0,0.0,3.3132,3.2104,3.1292,0.0,0.0,0.0,0.0,0.0,0.0,0.0,0.0,0.0,0.0,0.0,0.0,0.0,0.0,0.0,3.929,3.932,3.9313,3.9373,3.9373,3.9445,3.9553,4.017,4.0515,4.0431,4.0314,4.0876,4.2171,4.2261,4.2581,4.32,4.326,4.329,4.329,4.329,4.329,4.329,4.329,4.329,4.3379,4.4766,4.5304,4.5424,4.677,4.7309,4.7309,4.7309,4.7309,4.7309,4.7309,4.7309,4.7309,4.7309,4.7309,4.7309,4.7309,4.7309,4.7459,4.8177,4.9284,5.0345,5.105,5.1229,5.1229,5.1229,5.1229,5.1229,5.1229,5.1229,5.1542,5.2709,5.29,5.3209,5.4253,5.3569,5.2856,5.2723,5.2167,5.1369,5.0423,4.9793,4.9449,4.9509,5.1412,5.2741,5.2741,5.3967,5.4702,5.4702,5.3957,5.3518,5.3518,5.3518,5.3518,5.3518,5.3518,5.3518,5.3518,5.3518,5.3518,5.3518,5.3518,5.3518,2.9499,2.9871,3.0176,2.8635,0.0,0.0,0.0,2.7994,2.9517,0.0,0.0,0.0,0.0,0.0,0.0,0.0,0.0,0.0,0.0,0.0,0.0,0.0,0.0,0.0,3.8542,3.8601,3.8811,3.9379,3.9373,3.9702,4.0413,3.992,3.9945,4.0632,3.9954,3.9978,4.0786,4.1362,4.1931,4.259,4.309,4.329,4.329,4.329,4.329,4.329,4.329,4.329,4.3379,4.4766,4.5304,4.5424,4.677,4.7309,4.7309,4.7309,4.7309,4.7309,4.7309,4.7309,4.7309,4.7309,4.7309,4.7309,4.7309,4.7309,4.7549,4.8745,4.9643,5.0345,5.105,5.1229,5.1229,5.1229,5.1229,5.1229,5.1229,5.1229,5.1542,5.2709,5.29,5.2989,5.3209,5.3033,5.262,5.1681,5.0954,5.0621,5.096,5.0451,5.0242,5.078,5.2847,5.4173,5.4173,5.4957,5.5513,5.5513,5.4262,5.3518,5.3518,5.3518,5.3518,5.3518,5.3518,5.3518,5.3518,5.3518,5.3518,5.3518,5.3518,5.3518,3.1596,3.1732,3.2036,3.0866,0.0,0.0,0.0,0.0,0.0,0.0,0.0,0.0,0.0,0.0,0.0,0.0,0.0,0.0,0.0,0.0,0.0,0.0,0.0,0.0,3.7853,3.7913,3.8182,3.8841,3.9597,4.006,4.006,4.0447,4.0516,4.006,4.006,4.0147,4.0397,4.1055,4.1752,4.241,4.303,4.329,4.329,4.329,4.329,4.329,4.329,4.329,4.3379,4.4766,4.5304,4.5424,4.677,4.7309,4.7309,4.7309,4.7309,4.7309,4.7309,4.7309,4.7309,4.7309,4.7309,4.7309,4.7309,4.7549,4.7997,4.903,4.9733,5.0345,5.105,5.1229,5.1229,5.1229,5.1229,5.1229,5.1229,5.1229,5.1386,5.1926,5.2989,5.3913,5.4473,5.4557,5.4348,5.3796,5.2941,5.2308,5.2048,5.1271,5.0674,5.0674,5.271,5.3917,5.3565,5.4531,5.5141,5.5141,5.4126,5.3518,5.3518,5.3518,5.3518,5.3518,5.3518,5.3518,5.3518,5.3518,5.3518,5.3518,5.3518,5.3518,0.0,0.0,0.0,0.0,0.0,3.077,0.0,0.0,0.0,0.0,0.0,0.0,0.0,0.0,0.0,0.0,0.0,0.0,0.0,0.0,0.0,0.0,0.0,0.0,0.0,3.6926,3.7225,3.8123,3.9028,3.9504,3.9455,4.064,4.0803,3.9702,4.017,4.0375,4.0217,4.0995,4.1692,4.2231,4.297,4.329,4.329,4.329,4.329,4.329,4.329,4.329,4.3379,4.4766,4.5304,4.5424,4.677,4.7309,4.7309,4.7309,4.7309,4.7309,4.7309,4.7309,4.7309,4.7309,4.7309,4.7309,4.7309,4.7668,4.8267,4.909,4.9643,5.0196,5.102,5.1229,5.1229,5.1229,5.1229,5.1229,5.1229,5.1229,5.1229,5.1229,5.3033,5.4838,5.5458,5.5896,5.6126,5.5929,5.5134,5.4253,5.3384,5.244,5.1592,5.088,5.2607,5.3528,5.286,5.4011,5.4735,5.46,5.4025,5.3653,5.3518,5.3518,5.3518,5.3518,5.3518,5.3518,5.3518,5.3518,5.3518,5.3518,5.3518,5.3518,0.0,0.0,0.0,0.0,3.4675,0.0,0.0,0.0,0.0,0.0,0.0,0.0,0.0,0.0,0.0,0.0,0.0,0.0,0.0,0.0,0.0,0.0,0.0,0.0,0.0,3.516,3.5579,3.7375,3.6099,3.6487,3.9501,3.9112,3.9352,4.0519,3.9884,3.9547,3.9493,4.0756,4.1452,4.1542,4.2731,4.329,4.329,4.329,4.329,4.329,4.329,4.329,4.3379,4.4766,4.5304,4.5424,4.677,4.7309,4.7309,4.7309,4.7309,4.7309,4.7309,4.7309,4.7309,4.7309,4.7309,4.7309,4.7309,4.7369,4.7668,4.897,4.9359,4.9673,5.09,5.1229,5.1229,5.1229,5.1229,5.1229,5.1229,5.1229,5.1229,5.1229,5.3033,5.4337,5.3439,5.4888,5.5889,5.4888,5.4672,5.4547,5.4421,5.4295,5.3957,5.3174,5.4179,5.4623,5.3869,5.4907,5.531,5.4634,5.4499,5.416,5.3518,5.3518,5.3518,5.3518,5.3518,5.3518,5.3518,5.3518,5.3518,5.3518,5.3518,5.3518,0.0,0.0,0.0,0.0,0.0,0.0,2.9296,0.0,2.801,0.0,0.0,0.0,0.0,0.0,0.0,0.0,0.0,0.0,0.0,0.0,0.0,0.0,0.0,0.0,0.0,0.0,0.0,0.0,3.5402,3.5623,3.8253,3.8879,3.9215,3.9347,3.9882,3.992,3.9409,4.0726,4.1422,4.1422,4.2701,4.329,4.329,4.329,4.329,4.329,4.329,4.329,4.3379,4.4766,4.5304,4.5424,4.677,4.7309,4.7309,4.7309,4.7309,4.7309,4.7309,4.7309,4.7309,4.7309,4.7309,4.7309,4.7309,4.7578,4.8057,4.906,4.9523,5.0032,5.099,5.1229,5.1229,5.1229,5.1229,5.1229,5.1229,5.1229,5.1386,5.2063,5.3483,5.4672,5.4806,5.6126,5.6586,5.4879,5.5125,5.5296,5.4672,5.4589,5.4333,5.3629,5.393,5.4157,5.4091,5.4468,5.4876,5.5242,5.5243,5.5108,5.4803,5.4803,5.4803,5.4803,5.4363,5.4363,5.4769,5.3923,5.3721,5.4126,5.3687,5.3518,3.8768,0.0,0.0,0.0,0.0,0.0,0.0,0.0,0.0,0.0,0.0,0.0,0.0,0.0,0.0,0.0,0.0,0.0,0.0,0.0,0.0,0.0,0.0,0.0,0.0,0.0,0.0,0.0,0.0,3.4354,3.7015,3.8382,3.8876,3.8427,3.966,4.006,3.9409,4.0726,4.1422,4.1422,4.2701,4.329,4.329,4.329,4.329,4.329,4.329,4.329,4.3379,4.4766,4.5304,4.5424,4.677,4.7309,4.7309,4.7309,4.7309,4.7309,4.7309,4.7309,4.7309,4.7309,4.7309,4.7339,4.7519,4.7908,4.8446,4.9284,4.9883,5.0345,5.105,5.1229,5.1229,5.1229,5.1229,5.1229,5.1229,5.1229,5.1433,5.226,5.3613,5.4672,5.4806,5.6547,5.7335,5.573,5.6165,5.636,5.5611,5.549,5.527,5.4554,5.4449,5.443,5.4535,5.4704,5.5132,5.595,5.5818,5.5681,5.5681,5.5681,5.5681,5.5681,5.5175,5.5175,5.5681,5.4634,5.4397,5.4871,5.3957,5.3518,0.0,0.0,0.0,3.4945,0.0,0.0,0.0,0.0,3.1055,0.0,0.0,0.0,0.0,0.0,0.0,0.0,0.0,0.0,0.0,0.0,0.0,0.0,0.0,0.0,0.0,0.0,0.0,0.0,0.0,0.0,3.6267,3.7139,3.7768,3.8362,3.9086,3.9409,3.9373,4.0726,4.1422,4.1422,4.2701,4.329,4.329,4.329,4.329,4.329,4.329,4.329,4.3379,4.4766,4.5304,4.5424,4.677,4.7309,4.7309,4.7309,4.7309,4.7309,4.7309,4.7309,4.7309,4.7309,4.7309,4.7429,4.8057,4.8267,4.8566,4.9807,5.0196,5.0345,5.105,5.1229,5.1229,5.1229,5.1229,5.1229,5.1229,5.1229,5.1229,5.1246,5.3077,5.3913,5.1727,5.5011,5.7881,5.7808,5.7808,5.7845,5.7808,5.7808,5.7538,5.6759,5.6691,5.6423,5.5714,5.6288,5.6729,5.6765,5.6122,5.5681,5.5681,5.5681,5.5681,5.5681,5.5647,5.5683,5.5681,5.5683,5.5649,5.5614,5.4194,5.3518,0.0,0.0,4.2753,3.8227,0.0,0.0,0.0,0.0,0.0,0.0,0.0,0.0,0.0,0.0,0.0,0.0,0.0,0.0,0.0,0.0,0.0,0.0,0.0,0.0,0.0,0.0,0.0,0.0,3.121,0.0,0.0,3.6836,3.7494,3.7734,3.8841,3.9373,3.9373,4.0726,4.1422,4.1422,4.2701,4.329,4.329,4.329,4.329,4.329,4.329,4.329,4.3379,4.4766,4.5304,4.5424,4.677,4.7309,4.7309,4.7309,4.7309,4.7309,4.7309,4.7309,4.7309,4.7309,4.7309,4.7429,4.8087,4.8596,4.9105,4.9956,5.0495,5.0883,5.1169,5.1229,5.1229,5.1229,5.1229,5.1229,5.1229,5.1229,5.1433,5.22,5.2945,5.3699,5.4389,5.5777,5.6282,5.4806,5.647,5.7628,5.6854,5.7409,5.778,5.7543,5.6854,5.6608,5.7099,5.7374,5.7509,5.7509,5.7273,5.7171,5.7171,5.7171,5.7171,5.7171,5.6697,5.6664,5.7137,5.619,5.5953,5.6393,5.5446,5.4972,4.3842,4.4384,0.0,4.0663,3.9445,0.0,3.4066,0.0,0.0,0.0,0.0,0.0,0.0,0.0,0.0,0.0,0.0,0.0,0.0,0.0,0.0,0.0,0.0,0.0,0.0,0.0,2.8308,3.1869,3.0702,0.0,0.0,0.0,3.7439,3.7404,3.8732,3.9425,3.9409,4.0726,4.1422,4.1422,4.2701,4.329,4.329,4.329,4.329,4.329,4.329,4.3439,4.3738,4.4855,4.5454,4.5783,4.689,4.7309,4.7309,4.7309,4.7309,4.7309,4.7309,4.7309,4.7339,4.7578,4.7668,4.7818,4.8716,4.9284,4.9733,5.0391,5.09,5.1229,5.1229,5.1229,5.1229,5.1229,5.1526,5.1681,5.1293,5.1526,5.188,5.2215,5.262,5.3221,5.4263,5.5417,5.5857,5.4847,5.6509,5.7628,5.6925,5.748,5.7881,5.7881,5.726,5.7076,5.7845,5.7881,5.7881,5.7881,5.7881,5.7881,5.7881,5.7881,5.7881,5.7881,5.7442,5.7408,5.7881,5.6934,5.6731,5.7171,5.6697,5.6494]}]]